<?xml version="1.0" encoding="UTF-8" standalone="no" ?>
<gpx xmlns="http://www.topografix.com/GPX/1/1" xmlns:xsi="http://www.w3.org/2001/XMLSchema-instance" xsi:schemaLocation="http://www.topografix.com/GPX/1/1 http://www.topografix.com/GPX/1/1/gpx.xsd" version="1.1" creator="VisuGPX - https://www.visugpx.com">
  <metadata>
    <name>Chauve nico jon</name>
    <desc><![CDATA[Avé le loïc qui trotte avec nous]]></desc>
  </metadata>
  <trk>
    <name><![CDATA[(null)]]></name>
    <desc><![CDATA[(null)]]></desc>
    <trkseg>
      <trkpt lat="43.74394" lon="7.26347">
        <ele>297.417656</ele>
        <time>2012-01-21T13:11:59Z</time>
      </trkpt>
      <trkpt lat="43.74394" lon="7.26347">
        <ele>297.417656</ele>
        <time>2012-01-21T13:12:01Z</time>
      </trkpt>
      <trkpt lat="43.74394" lon="7.26347">
        <ele>297.417656</ele>
        <time>2012-01-21T13:12:04Z</time>
      </trkpt>
      <trkpt lat="43.74394" lon="7.26347">
        <ele>297.417656</ele>
        <time>2012-01-21T13:12:20Z</time>
      </trkpt>
      <trkpt lat="43.74424" lon="7.26348">
        <ele>306.417706</ele>
        <time>2012-01-21T13:12:23Z</time>
      </trkpt>
      <trkpt lat="43.74443" lon="7.26348">
        <ele>306.417725</ele>
        <time>2012-01-21T13:12:25Z</time>
      </trkpt>
      <trkpt lat="43.74458" lon="7.26346">
        <ele>306.417744</ele>
        <time>2012-01-21T13:12:27Z</time>
      </trkpt>
      <trkpt lat="43.74474" lon="7.26345">
        <ele>306.417763</ele>
        <time>2012-01-21T13:12:29Z</time>
      </trkpt>
      <trkpt lat="43.74491" lon="7.26345">
        <ele>305.417786</ele>
        <time>2012-01-21T13:12:31Z</time>
      </trkpt>
      <trkpt lat="43.745" lon="7.26348">
        <ele>305.417809</ele>
        <time>2012-01-21T13:12:32Z</time>
      </trkpt>
      <trkpt lat="43.74512" lon="7.26353">
        <ele>305.417831</ele>
        <time>2012-01-21T13:12:33Z</time>
      </trkpt>
      <trkpt lat="43.74521" lon="7.26357">
        <ele>304.417854</ele>
        <time>2012-01-21T13:12:34Z</time>
      </trkpt>
      <trkpt lat="43.7453" lon="7.26362">
        <ele>304.417877</ele>
        <time>2012-01-21T13:12:35Z</time>
      </trkpt>
      <trkpt lat="43.74538" lon="7.26368">
        <ele>303.4179</ele>
        <time>2012-01-21T13:12:36Z</time>
      </trkpt>
      <trkpt lat="43.74547" lon="7.26373">
        <ele>303.417919</ele>
        <time>2012-01-21T13:12:37Z</time>
      </trkpt>
      <trkpt lat="43.74563" lon="7.26381">
        <ele>302.417961</ele>
        <time>2012-01-21T13:12:39Z</time>
      </trkpt>
      <trkpt lat="43.74578" lon="7.26388">
        <ele>302.417995</ele>
        <time>2012-01-21T13:12:41Z</time>
      </trkpt>
      <trkpt lat="43.74593" lon="7.26391">
        <ele>302.418022</ele>
        <time>2012-01-21T13:12:43Z</time>
      </trkpt>
      <trkpt lat="43.74607" lon="7.26392">
        <ele>302.418041</ele>
        <time>2012-01-21T13:12:45Z</time>
      </trkpt>
      <trkpt lat="43.7462" lon="7.26392">
        <ele>302.41806</ele>
        <time>2012-01-21T13:12:47Z</time>
      </trkpt>
      <trkpt lat="43.74632" lon="7.26393">
        <ele>302.418083</ele>
        <time>2012-01-21T13:12:49Z</time>
      </trkpt>
      <trkpt lat="43.74643" lon="7.26392">
        <ele>302.418091</ele>
        <time>2012-01-21T13:12:51Z</time>
      </trkpt>
      <trkpt lat="43.74655" lon="7.26391">
        <ele>302.418106</ele>
        <time>2012-01-21T13:12:53Z</time>
      </trkpt>
      <trkpt lat="43.74666" lon="7.26393">
        <ele>302.418129</ele>
        <time>2012-01-21T13:12:55Z</time>
      </trkpt>
      <trkpt lat="43.74671" lon="7.26395">
        <ele>302.418137</ele>
        <time>2012-01-21T13:12:56Z</time>
      </trkpt>
      <trkpt lat="43.74682" lon="7.26397">
        <ele>302.418159</ele>
        <time>2012-01-21T13:12:58Z</time>
      </trkpt>
      <trkpt lat="43.74692" lon="7.26398">
        <ele>302.418175</ele>
        <time>2012-01-21T13:13:00Z</time>
      </trkpt>
      <trkpt lat="43.74702" lon="7.26398">
        <ele>302.41819</ele>
        <time>2012-01-21T13:13:02Z</time>
      </trkpt>
      <trkpt lat="43.74712" lon="7.26398">
        <ele>302.418205</ele>
        <time>2012-01-21T13:13:04Z</time>
      </trkpt>
      <trkpt lat="43.74722" lon="7.26397">
        <ele>302.418213</ele>
        <time>2012-01-21T13:13:06Z</time>
      </trkpt>
      <trkpt lat="43.74731" lon="7.26396">
        <ele>301.418224</ele>
        <time>2012-01-21T13:13:08Z</time>
      </trkpt>
      <trkpt lat="43.7474" lon="7.26395">
        <ele>301.418236</ele>
        <time>2012-01-21T13:13:10Z</time>
      </trkpt>
      <trkpt lat="43.74749" lon="7.26396">
        <ele>302.418251</ele>
        <time>2012-01-21T13:13:12Z</time>
      </trkpt>
      <trkpt lat="43.74759" lon="7.26397">
        <ele>302.418259</ele>
        <time>2012-01-21T13:13:14Z</time>
      </trkpt>
      <trkpt lat="43.74768" lon="7.26398">
        <ele>303.418282</ele>
        <time>2012-01-21T13:13:16Z</time>
      </trkpt>
      <trkpt lat="43.74781" lon="7.264">
        <ele>303.418301</ele>
        <time>2012-01-21T13:13:19Z</time>
      </trkpt>
      <trkpt lat="43.74793" lon="7.26405">
        <ele>303.418327</ele>
        <time>2012-01-21T13:13:22Z</time>
      </trkpt>
      <trkpt lat="43.74805" lon="7.2641">
        <ele>303.418358</ele>
        <time>2012-01-21T13:13:25Z</time>
      </trkpt>
      <trkpt lat="43.74816" lon="7.26414">
        <ele>304.418377</ele>
        <time>2012-01-21T13:13:28Z</time>
      </trkpt>
      <trkpt lat="43.74828" lon="7.26418">
        <ele>304.418404</ele>
        <time>2012-01-21T13:13:31Z</time>
      </trkpt>
      <trkpt lat="43.74839" lon="7.26421">
        <ele>304.418423</ele>
        <time>2012-01-21T13:13:34Z</time>
      </trkpt>
      <trkpt lat="43.74851" lon="7.26425">
        <ele>304.418449</ele>
        <time>2012-01-21T13:13:37Z</time>
      </trkpt>
      <trkpt lat="43.74862" lon="7.26429">
        <ele>303.418472</ele>
        <time>2012-01-21T13:13:40Z</time>
      </trkpt>
      <trkpt lat="43.74874" lon="7.26432">
        <ele>303.418495</ele>
        <time>2012-01-21T13:13:43Z</time>
      </trkpt>
      <trkpt lat="43.74886" lon="7.26437">
        <ele>303.418522</ele>
        <time>2012-01-21T13:13:46Z</time>
      </trkpt>
      <trkpt lat="43.74895" lon="7.26441">
        <ele>303.418541</ele>
        <time>2012-01-21T13:13:48Z</time>
      </trkpt>
      <trkpt lat="43.74904" lon="7.26445">
        <ele>304.418564</ele>
        <time>2012-01-21T13:13:50Z</time>
      </trkpt>
      <trkpt lat="43.74913" lon="7.26454">
        <ele>305.418594</ele>
        <time>2012-01-21T13:13:52Z</time>
      </trkpt>
      <trkpt lat="43.74917" lon="7.26461">
        <ele>305.418617</ele>
        <time>2012-01-21T13:13:53Z</time>
      </trkpt>
      <trkpt lat="43.74925" lon="7.26475">
        <ele>306.418655</ele>
        <time>2012-01-21T13:13:55Z</time>
      </trkpt>
      <trkpt lat="43.74934" lon="7.2649">
        <ele>307.418701</ele>
        <time>2012-01-21T13:13:57Z</time>
      </trkpt>
      <trkpt lat="43.74944" lon="7.26504">
        <ele>307.418739</ele>
        <time>2012-01-21T13:13:59Z</time>
      </trkpt>
      <trkpt lat="43.74955" lon="7.26514">
        <ele>307.418781</ele>
        <time>2012-01-21T13:14:01Z</time>
      </trkpt>
      <trkpt lat="43.74964" lon="7.2652">
        <ele>308.418808</ele>
        <time>2012-01-21T13:14:02Z</time>
      </trkpt>
      <trkpt lat="43.7497" lon="7.26526">
        <ele>308.418831</ele>
        <time>2012-01-21T13:14:03Z</time>
      </trkpt>
      <trkpt lat="43.74982" lon="7.26537">
        <ele>308.418869</ele>
        <time>2012-01-21T13:14:05Z</time>
      </trkpt>
      <trkpt lat="43.74988" lon="7.26542">
        <ele>307.418884</ele>
        <time>2012-01-21T13:14:06Z</time>
      </trkpt>
      <trkpt lat="43.75002" lon="7.26549">
        <ele>307.418922</ele>
        <time>2012-01-21T13:14:08Z</time>
      </trkpt>
      <trkpt lat="43.7501" lon="7.26551">
        <ele>307.418938</ele>
        <time>2012-01-21T13:14:09Z</time>
      </trkpt>
      <trkpt lat="43.75026" lon="7.26556">
        <ele>307.418968</ele>
        <time>2012-01-21T13:14:11Z</time>
      </trkpt>
      <trkpt lat="43.75041" lon="7.2656">
        <ele>306.418999</ele>
        <time>2012-01-21T13:14:13Z</time>
      </trkpt>
      <trkpt lat="43.75054" lon="7.26565">
        <ele>305.419022</ele>
        <time>2012-01-21T13:14:15Z</time>
      </trkpt>
      <trkpt lat="43.75067" lon="7.26561">
        <ele>304.419033</ele>
        <time>2012-01-21T13:14:17Z</time>
      </trkpt>
      <trkpt lat="43.75077" lon="7.26556">
        <ele>304.419037</ele>
        <time>2012-01-21T13:14:19Z</time>
      </trkpt>
      <trkpt lat="43.75087" lon="7.26556">
        <ele>304.419052</ele>
        <time>2012-01-21T13:14:21Z</time>
      </trkpt>
      <trkpt lat="43.75096" lon="7.26565">
        <ele>305.419083</ele>
        <time>2012-01-21T13:14:23Z</time>
      </trkpt>
      <trkpt lat="43.75108" lon="7.26574">
        <ele>306.419121</ele>
        <time>2012-01-21T13:14:25Z</time>
      </trkpt>
      <trkpt lat="43.75122" lon="7.26582">
        <ele>307.419151</ele>
        <time>2012-01-21T13:14:27Z</time>
      </trkpt>
      <trkpt lat="43.75137" lon="7.26585">
        <ele>306.419182</ele>
        <time>2012-01-21T13:14:29Z</time>
      </trkpt>
      <trkpt lat="43.75144" lon="7.26587">
        <ele>306.419197</ele>
        <time>2012-01-21T13:14:30Z</time>
      </trkpt>
      <trkpt lat="43.75159" lon="7.26589">
        <ele>305.41922</ele>
        <time>2012-01-21T13:14:32Z</time>
      </trkpt>
      <trkpt lat="43.75166" lon="7.2659">
        <ele>305.419228</ele>
        <time>2012-01-21T13:14:33Z</time>
      </trkpt>
      <trkpt lat="43.75178" lon="7.26592">
        <ele>305.41925</ele>
        <time>2012-01-21T13:14:35Z</time>
      </trkpt>
      <trkpt lat="43.75187" lon="7.26602">
        <ele>305.419285</ele>
        <time>2012-01-21T13:14:37Z</time>
      </trkpt>
      <trkpt lat="43.75193" lon="7.26616">
        <ele>306.419323</ele>
        <time>2012-01-21T13:14:39Z</time>
      </trkpt>
      <trkpt lat="43.75196" lon="7.26628">
        <ele>308.419353</ele>
        <time>2012-01-21T13:14:41Z</time>
      </trkpt>
      <trkpt lat="43.75197" lon="7.26635">
        <ele>308.419365</ele>
        <time>2012-01-21T13:14:42Z</time>
      </trkpt>
      <trkpt lat="43.75198" lon="7.26649">
        <ele>309.419399</ele>
        <time>2012-01-21T13:14:44Z</time>
      </trkpt>
      <trkpt lat="43.752" lon="7.26663">
        <ele>309.419434</ele>
        <time>2012-01-21T13:14:46Z</time>
      </trkpt>
      <trkpt lat="43.75203" lon="7.26678">
        <ele>309.419468</ele>
        <time>2012-01-21T13:14:48Z</time>
      </trkpt>
      <trkpt lat="43.75205" lon="7.26694">
        <ele>309.419506</ele>
        <time>2012-01-21T13:14:50Z</time>
      </trkpt>
      <trkpt lat="43.75208" lon="7.26709">
        <ele>309.41954</ele>
        <time>2012-01-21T13:14:52Z</time>
      </trkpt>
      <trkpt lat="43.75214" lon="7.26723">
        <ele>309.419579</ele>
        <time>2012-01-21T13:14:54Z</time>
      </trkpt>
      <trkpt lat="43.75219" lon="7.26734">
        <ele>308.419609</ele>
        <time>2012-01-21T13:14:56Z</time>
      </trkpt>
      <trkpt lat="43.75227" lon="7.2674">
        <ele>308.419632</ele>
        <time>2012-01-21T13:15:00Z</time>
      </trkpt>
      <trkpt lat="43.75233" lon="7.26731">
        <ele>307.419617</ele>
        <time>2012-01-21T13:15:03Z</time>
      </trkpt>
      <trkpt lat="43.75236" lon="7.26726">
        <ele>307.419617</ele>
        <time>2012-01-21T13:15:04Z</time>
      </trkpt>
      <trkpt lat="43.75243" lon="7.26713">
        <ele>306.419598</ele>
        <time>2012-01-21T13:15:07Z</time>
      </trkpt>
      <trkpt lat="43.75248" lon="7.26703">
        <ele>305.419579</ele>
        <time>2012-01-21T13:15:10Z</time>
      </trkpt>
      <trkpt lat="43.75261" lon="7.26676">
        <ele>301.419544</ele>
        <time>2012-01-21T13:15:19Z</time>
      </trkpt>
      <trkpt lat="43.75266" lon="7.26665">
        <ele>301.419525</ele>
        <time>2012-01-21T13:15:23Z</time>
      </trkpt>
      <trkpt lat="43.75271" lon="7.26647">
        <ele>301.419498</ele>
        <time>2012-01-21T13:15:28Z</time>
      </trkpt>
      <trkpt lat="43.75275" lon="7.26634">
        <ele>301.419479</ele>
        <time>2012-01-21T13:15:31Z</time>
      </trkpt>
      <trkpt lat="43.75277" lon="7.2663">
        <ele>301.419464</ele>
        <time>2012-01-21T13:15:32Z</time>
      </trkpt>
      <trkpt lat="43.75288" lon="7.26602">
        <ele>304.419426</ele>
        <time>2012-01-21T13:15:39Z</time>
      </trkpt>
      <trkpt lat="43.75299" lon="7.26579">
        <ele>306.419392</ele>
        <time>2012-01-21T13:15:47Z</time>
      </trkpt>
      <trkpt lat="43.75304" lon="7.26567">
        <ele>307.419373</ele>
        <time>2012-01-21T13:15:51Z</time>
      </trkpt>
      <trkpt lat="43.75314" lon="7.26551">
        <ele>308.41935</ele>
        <time>2012-01-21T13:15:57Z</time>
      </trkpt>
      <trkpt lat="43.75321" lon="7.26541">
        <ele>309.419342</ele>
        <time>2012-01-21T13:16:00Z</time>
      </trkpt>
      <trkpt lat="43.75328" lon="7.26531">
        <ele>309.419327</ele>
        <time>2012-01-21T13:16:03Z</time>
      </trkpt>
      <trkpt lat="43.75336" lon="7.2652">
        <ele>311.419315</ele>
        <time>2012-01-21T13:16:06Z</time>
      </trkpt>
      <trkpt lat="43.75343" lon="7.26509">
        <ele>310.419304</ele>
        <time>2012-01-21T13:16:09Z</time>
      </trkpt>
      <trkpt lat="43.75351" lon="7.26498">
        <ele>310.419289</ele>
        <time>2012-01-21T13:16:12Z</time>
      </trkpt>
      <trkpt lat="43.75358" lon="7.26488">
        <ele>311.419273</ele>
        <time>2012-01-21T13:16:15Z</time>
      </trkpt>
      <trkpt lat="43.75364" lon="7.26478">
        <ele>310.419262</ele>
        <time>2012-01-21T13:16:18Z</time>
      </trkpt>
      <trkpt lat="43.75371" lon="7.26469">
        <ele>310.419254</ele>
        <time>2012-01-21T13:16:21Z</time>
      </trkpt>
      <trkpt lat="43.75379" lon="7.26459">
        <ele>311.419247</ele>
        <time>2012-01-21T13:16:25Z</time>
      </trkpt>
      <trkpt lat="43.75386" lon="7.26451">
        <ele>311.419235</ele>
        <time>2012-01-21T13:16:29Z</time>
      </trkpt>
      <trkpt lat="43.75395" lon="7.26445">
        <ele>312.419235</ele>
        <time>2012-01-21T13:16:34Z</time>
      </trkpt>
      <trkpt lat="43.75405" lon="7.2644">
        <ele>314.419243</ele>
        <time>2012-01-21T13:16:40Z</time>
      </trkpt>
      <trkpt lat="43.75414" lon="7.26436">
        <ele>314.419243</ele>
        <time>2012-01-21T13:16:46Z</time>
      </trkpt>
      <trkpt lat="43.75428" lon="7.26432">
        <ele>314.41925</ele>
        <time>2012-01-21T13:16:54Z</time>
      </trkpt>
      <trkpt lat="43.75438" lon="7.26429">
        <ele>314.419258</ele>
        <time>2012-01-21T13:17:00Z</time>
      </trkpt>
      <trkpt lat="43.75448" lon="7.26425">
        <ele>314.419266</ele>
        <time>2012-01-21T13:17:06Z</time>
      </trkpt>
      <trkpt lat="43.75458" lon="7.26419">
        <ele>316.419266</ele>
        <time>2012-01-21T13:17:12Z</time>
      </trkpt>
      <trkpt lat="43.75467" lon="7.26412">
        <ele>316.419266</ele>
        <time>2012-01-21T13:17:18Z</time>
      </trkpt>
      <trkpt lat="43.75476" lon="7.26403">
        <ele>318.419258</ele>
        <time>2012-01-21T13:17:25Z</time>
      </trkpt>
      <trkpt lat="43.75484" lon="7.26396">
        <ele>318.419254</ele>
        <time>2012-01-21T13:17:31Z</time>
      </trkpt>
      <trkpt lat="43.75491" lon="7.26385">
        <ele>318.419235</ele>
        <time>2012-01-21T13:17:38Z</time>
      </trkpt>
      <trkpt lat="43.75497" lon="7.26374">
        <ele>320.41922</ele>
        <time>2012-01-21T13:17:44Z</time>
      </trkpt>
      <trkpt lat="43.75504" lon="7.26363">
        <ele>321.419212</ele>
        <time>2012-01-21T13:17:52Z</time>
      </trkpt>
      <trkpt lat="43.75511" lon="7.26352">
        <ele>323.419197</ele>
        <time>2012-01-21T13:17:58Z</time>
      </trkpt>
      <trkpt lat="43.75512" lon="7.2635">
        <ele>324.419189</ele>
        <time>2012-01-21T13:18:00Z</time>
      </trkpt>
      <trkpt lat="43.75518" lon="7.26339">
        <ele>324.419182</ele>
        <time>2012-01-21T13:18:04Z</time>
      </trkpt>
      <trkpt lat="43.75523" lon="7.26326">
        <ele>324.419159</ele>
        <time>2012-01-21T13:18:09Z</time>
      </trkpt>
      <trkpt lat="43.75533" lon="7.26307">
        <ele>326.419132</ele>
        <time>2012-01-21T13:18:16Z</time>
      </trkpt>
      <trkpt lat="43.75541" lon="7.26293">
        <ele>327.419113</ele>
        <time>2012-01-21T13:18:21Z</time>
      </trkpt>
      <trkpt lat="43.75549" lon="7.26281">
        <ele>328.419098</ele>
        <time>2012-01-21T13:18:27Z</time>
      </trkpt>
      <trkpt lat="43.75558" lon="7.2627">
        <ele>328.41909</ele>
        <time>2012-01-21T13:18:34Z</time>
      </trkpt>
      <trkpt lat="43.75565" lon="7.26263">
        <ele>329.419083</ele>
        <time>2012-01-21T13:18:41Z</time>
      </trkpt>
      <trkpt lat="43.75574" lon="7.26255">
        <ele>329.419079</ele>
        <time>2012-01-21T13:18:49Z</time>
      </trkpt>
      <trkpt lat="43.75587" lon="7.26245">
        <ele>328.419075</ele>
        <time>2012-01-21T13:18:54Z</time>
      </trkpt>
      <trkpt lat="43.75596" lon="7.26239">
        <ele>329.419071</ele>
        <time>2012-01-21T13:18:57Z</time>
      </trkpt>
      <trkpt lat="43.75612" lon="7.26226">
        <ele>327.419067</ele>
        <time>2012-01-21T13:19:03Z</time>
      </trkpt>
      <trkpt lat="43.7562" lon="7.26219">
        <ele>327.419064</ele>
        <time>2012-01-21T13:19:06Z</time>
      </trkpt>
      <trkpt lat="43.75629" lon="7.26212">
        <ele>327.41906</ele>
        <time>2012-01-21T13:19:09Z</time>
      </trkpt>
      <trkpt lat="43.75639" lon="7.26205">
        <ele>327.41906</ele>
        <time>2012-01-21T13:19:12Z</time>
      </trkpt>
      <trkpt lat="43.7565" lon="7.26198">
        <ele>327.41906</ele>
        <time>2012-01-21T13:19:15Z</time>
      </trkpt>
      <trkpt lat="43.75661" lon="7.26193">
        <ele>328.41906</ele>
        <time>2012-01-21T13:19:18Z</time>
      </trkpt>
      <trkpt lat="43.75671" lon="7.26187">
        <ele>328.419067</ele>
        <time>2012-01-21T13:19:21Z</time>
      </trkpt>
      <trkpt lat="43.75681" lon="7.26181">
        <ele>329.419067</ele>
        <time>2012-01-21T13:19:24Z</time>
      </trkpt>
      <trkpt lat="43.7569" lon="7.26175">
        <ele>330.419067</ele>
        <time>2012-01-21T13:19:27Z</time>
      </trkpt>
      <trkpt lat="43.75699" lon="7.2617">
        <ele>331.419067</ele>
        <time>2012-01-21T13:19:30Z</time>
      </trkpt>
      <trkpt lat="43.75708" lon="7.26167">
        <ele>331.419075</ele>
        <time>2012-01-21T13:19:33Z</time>
      </trkpt>
      <trkpt lat="43.75716" lon="7.26163">
        <ele>332.419079</ele>
        <time>2012-01-21T13:19:36Z</time>
      </trkpt>
      <trkpt lat="43.75727" lon="7.26158">
        <ele>332.419083</ele>
        <time>2012-01-21T13:19:40Z</time>
      </trkpt>
      <trkpt lat="43.75738" lon="7.26153">
        <ele>332.419083</ele>
        <time>2012-01-21T13:19:44Z</time>
      </trkpt>
      <trkpt lat="43.75748" lon="7.26147">
        <ele>332.419083</ele>
        <time>2012-01-21T13:19:48Z</time>
      </trkpt>
      <trkpt lat="43.75757" lon="7.26141">
        <ele>333.41909</ele>
        <time>2012-01-21T13:19:52Z</time>
      </trkpt>
      <trkpt lat="43.75765" lon="7.26135">
        <ele>334.419083</ele>
        <time>2012-01-21T13:19:56Z</time>
      </trkpt>
      <trkpt lat="43.75773" lon="7.26128">
        <ele>334.419083</ele>
        <time>2012-01-21T13:20:00Z</time>
      </trkpt>
      <trkpt lat="43.75782" lon="7.26121">
        <ele>334.419075</ele>
        <time>2012-01-21T13:20:05Z</time>
      </trkpt>
      <trkpt lat="43.75791" lon="7.26113">
        <ele>335.419071</ele>
        <time>2012-01-21T13:20:10Z</time>
      </trkpt>
      <trkpt lat="43.75799" lon="7.26104">
        <ele>336.419067</ele>
        <time>2012-01-21T13:20:15Z</time>
      </trkpt>
      <trkpt lat="43.75808" lon="7.26097">
        <ele>336.419064</ele>
        <time>2012-01-21T13:20:20Z</time>
      </trkpt>
      <trkpt lat="43.75817" lon="7.2609">
        <ele>336.41906</ele>
        <time>2012-01-21T13:20:25Z</time>
      </trkpt>
      <trkpt lat="43.75827" lon="7.26083">
        <ele>335.41906</ele>
        <time>2012-01-21T13:20:30Z</time>
      </trkpt>
      <trkpt lat="43.75836" lon="7.26077">
        <ele>336.41906</ele>
        <time>2012-01-21T13:20:34Z</time>
      </trkpt>
      <trkpt lat="43.75844" lon="7.26073">
        <ele>336.41906</ele>
        <time>2012-01-21T13:20:38Z</time>
      </trkpt>
      <trkpt lat="43.75853" lon="7.26069">
        <ele>337.419067</ele>
        <time>2012-01-21T13:20:42Z</time>
      </trkpt>
      <trkpt lat="43.75864" lon="7.26065">
        <ele>340.419071</ele>
        <time>2012-01-21T13:20:47Z</time>
      </trkpt>
      <trkpt lat="43.75875" lon="7.26062">
        <ele>340.419083</ele>
        <time>2012-01-21T13:20:52Z</time>
      </trkpt>
      <trkpt lat="43.75885" lon="7.2606">
        <ele>341.41909</ele>
        <time>2012-01-21T13:20:56Z</time>
      </trkpt>
      <trkpt lat="43.75896" lon="7.26056">
        <ele>341.419098</ele>
        <time>2012-01-21T13:21:00Z</time>
      </trkpt>
      <trkpt lat="43.75906" lon="7.26052">
        <ele>342.419098</ele>
        <time>2012-01-21T13:21:04Z</time>
      </trkpt>
      <trkpt lat="43.75917" lon="7.26048">
        <ele>342.419106</ele>
        <time>2012-01-21T13:21:08Z</time>
      </trkpt>
      <trkpt lat="43.75928" lon="7.26043">
        <ele>341.419113</ele>
        <time>2012-01-21T13:21:12Z</time>
      </trkpt>
      <trkpt lat="43.75939" lon="7.26039">
        <ele>342.419117</ele>
        <time>2012-01-21T13:21:16Z</time>
      </trkpt>
      <trkpt lat="43.75949" lon="7.26034">
        <ele>344.419121</ele>
        <time>2012-01-21T13:21:20Z</time>
      </trkpt>
      <trkpt lat="43.75958" lon="7.2603">
        <ele>346.419128</ele>
        <time>2012-01-21T13:21:24Z</time>
      </trkpt>
      <trkpt lat="43.7596" lon="7.2603">
        <ele>346.419128</ele>
        <time>2012-01-21T13:21:25Z</time>
      </trkpt>
      <trkpt lat="43.75969" lon="7.26027">
        <ele>346.419132</ele>
        <time>2012-01-21T13:21:29Z</time>
      </trkpt>
      <trkpt lat="43.75979" lon="7.26025">
        <ele>347.419144</ele>
        <time>2012-01-21T13:21:33Z</time>
      </trkpt>
      <trkpt lat="43.75988" lon="7.26023">
        <ele>348.419151</ele>
        <time>2012-01-21T13:21:37Z</time>
      </trkpt>
      <trkpt lat="43.75997" lon="7.26021">
        <ele>347.419159</ele>
        <time>2012-01-21T13:21:41Z</time>
      </trkpt>
      <trkpt lat="43.76006" lon="7.26019">
        <ele>348.419167</ele>
        <time>2012-01-21T13:21:45Z</time>
      </trkpt>
      <trkpt lat="43.76017" lon="7.26017">
        <ele>349.419178</ele>
        <time>2012-01-21T13:21:50Z</time>
      </trkpt>
      <trkpt lat="43.76027" lon="7.26014">
        <ele>351.419189</ele>
        <time>2012-01-21T13:21:55Z</time>
      </trkpt>
      <trkpt lat="43.76037" lon="7.2601">
        <ele>353.419189</ele>
        <time>2012-01-21T13:22:00Z</time>
      </trkpt>
      <trkpt lat="43.76046" lon="7.26006">
        <ele>353.419197</ele>
        <time>2012-01-21T13:22:06Z</time>
      </trkpt>
      <trkpt lat="43.76055" lon="7.26001">
        <ele>354.419197</ele>
        <time>2012-01-21T13:22:12Z</time>
      </trkpt>
      <trkpt lat="43.76063" lon="7.25996">
        <ele>354.419197</ele>
        <time>2012-01-21T13:22:18Z</time>
      </trkpt>
      <trkpt lat="43.76072" lon="7.25989">
        <ele>354.419193</ele>
        <time>2012-01-21T13:22:24Z</time>
      </trkpt>
      <trkpt lat="43.7608" lon="7.25983">
        <ele>355.419193</ele>
        <time>2012-01-21T13:22:29Z</time>
      </trkpt>
      <trkpt lat="43.76089" lon="7.25978">
        <ele>357.419193</ele>
        <time>2012-01-21T13:22:34Z</time>
      </trkpt>
      <trkpt lat="43.76098" lon="7.25976">
        <ele>359.419201</ele>
        <time>2012-01-21T13:22:39Z</time>
      </trkpt>
      <trkpt lat="43.76108" lon="7.25978">
        <ele>359.41922</ele>
        <time>2012-01-21T13:22:44Z</time>
      </trkpt>
      <trkpt lat="43.76108" lon="7.25978">
        <ele>359.41922</ele>
        <time>2012-01-21T13:22:46Z</time>
      </trkpt>
      <trkpt lat="43.76116" lon="7.25984">
        <ele>361.419247</ele>
        <time>2012-01-21T13:22:49Z</time>
      </trkpt>
      <trkpt lat="43.76124" lon="7.25994">
        <ele>363.419277</ele>
        <time>2012-01-21T13:22:54Z</time>
      </trkpt>
      <trkpt lat="43.76131" lon="7.26003">
        <ele>363.419304</ele>
        <time>2012-01-21T13:22:59Z</time>
      </trkpt>
      <trkpt lat="43.76139" lon="7.26018">
        <ele>363.419346</ele>
        <time>2012-01-21T13:23:06Z</time>
      </trkpt>
      <trkpt lat="43.76147" lon="7.26026">
        <ele>366.41938</ele>
        <time>2012-01-21T13:23:11Z</time>
      </trkpt>
      <trkpt lat="43.76158" lon="7.2603">
        <ele>367.419403</ele>
        <time>2012-01-21T13:23:16Z</time>
      </trkpt>
      <trkpt lat="43.76168" lon="7.26031">
        <ele>369.419415</ele>
        <time>2012-01-21T13:23:21Z</time>
      </trkpt>
      <trkpt lat="43.76172" lon="7.26031">
        <ele>369.419418</ele>
        <time>2012-01-21T13:23:23Z</time>
      </trkpt>
      <trkpt lat="43.76182" lon="7.26035">
        <ele>372.419441</ele>
        <time>2012-01-21T13:23:29Z</time>
      </trkpt>
      <trkpt lat="43.76183" lon="7.26037">
        <ele>373.419449</ele>
        <time>2012-01-21T13:23:30Z</time>
      </trkpt>
      <trkpt lat="43.76192" lon="7.26048">
        <ele>376.419483</ele>
        <time>2012-01-21T13:23:36Z</time>
      </trkpt>
      <trkpt lat="43.76201" lon="7.26059">
        <ele>376.419521</ele>
        <time>2012-01-21T13:23:44Z</time>
      </trkpt>
      <trkpt lat="43.7621" lon="7.26066">
        <ele>378.419548</ele>
        <time>2012-01-21T13:23:50Z</time>
      </trkpt>
      <trkpt lat="43.76221" lon="7.26074">
        <ele>381.419582</ele>
        <time>2012-01-21T13:23:56Z</time>
      </trkpt>
      <trkpt lat="43.76237" lon="7.26092">
        <ele>384.41964</ele>
        <time>2012-01-21T13:24:05Z</time>
      </trkpt>
      <trkpt lat="43.76243" lon="7.26104">
        <ele>384.419678</ele>
        <time>2012-01-21T13:24:10Z</time>
      </trkpt>
      <trkpt lat="43.76247" lon="7.26116">
        <ele>386.419704</ele>
        <time>2012-01-21T13:24:17Z</time>
      </trkpt>
      <trkpt lat="43.76253" lon="7.26128">
        <ele>389.419735</ele>
        <time>2012-01-21T13:24:23Z</time>
      </trkpt>
      <trkpt lat="43.76259" lon="7.26137">
        <ele>391.419765</ele>
        <time>2012-01-21T13:24:27Z</time>
      </trkpt>
      <trkpt lat="43.76266" lon="7.26146">
        <ele>392.419796</ele>
        <time>2012-01-21T13:24:31Z</time>
      </trkpt>
      <trkpt lat="43.76274" lon="7.26154">
        <ele>392.419823</ele>
        <time>2012-01-21T13:24:35Z</time>
      </trkpt>
      <trkpt lat="43.76283" lon="7.2616">
        <ele>392.419846</ele>
        <time>2012-01-21T13:24:39Z</time>
      </trkpt>
      <trkpt lat="43.76295" lon="7.26169">
        <ele>393.419884</ele>
        <time>2012-01-21T13:24:45Z</time>
      </trkpt>
      <trkpt lat="43.76302" lon="7.26176">
        <ele>394.419907</ele>
        <time>2012-01-21T13:24:54Z</time>
      </trkpt>
      <trkpt lat="43.76309" lon="7.26186">
        <ele>397.419937</ele>
        <time>2012-01-21T13:25:00Z</time>
      </trkpt>
      <trkpt lat="43.76316" lon="7.26198">
        <ele>400.419971</ele>
        <time>2012-01-21T13:25:05Z</time>
      </trkpt>
      <trkpt lat="43.76324" lon="7.26215">
        <ele>400.420021</ele>
        <time>2012-01-21T13:25:11Z</time>
      </trkpt>
      <trkpt lat="43.7633" lon="7.26226">
        <ele>401.420052</ele>
        <time>2012-01-21T13:25:17Z</time>
      </trkpt>
      <trkpt lat="43.76335" lon="7.26238">
        <ele>402.420082</ele>
        <time>2012-01-21T13:25:22Z</time>
      </trkpt>
      <trkpt lat="43.76341" lon="7.26249">
        <ele>402.420116</ele>
        <time>2012-01-21T13:25:27Z</time>
      </trkpt>
      <trkpt lat="43.76348" lon="7.26258">
        <ele>401.420143</ele>
        <time>2012-01-21T13:25:32Z</time>
      </trkpt>
      <trkpt lat="43.76357" lon="7.26263">
        <ele>402.420166</ele>
        <time>2012-01-21T13:25:37Z</time>
      </trkpt>
      <trkpt lat="43.76369" lon="7.26266">
        <ele>404.420189</ele>
        <time>2012-01-21T13:25:45Z</time>
      </trkpt>
      <trkpt lat="43.76379" lon="7.26266">
        <ele>406.4202</ele>
        <time>2012-01-21T13:25:52Z</time>
      </trkpt>
      <trkpt lat="43.76396" lon="7.26267">
        <ele>408.420227</ele>
        <time>2012-01-21T13:26:03Z</time>
      </trkpt>
      <trkpt lat="43.76405" lon="7.26272">
        <ele>409.42025</ele>
        <time>2012-01-21T13:26:07Z</time>
      </trkpt>
      <trkpt lat="43.76406" lon="7.26273">
        <ele>409.420254</ele>
        <time>2012-01-21T13:26:08Z</time>
      </trkpt>
      <trkpt lat="43.76416" lon="7.26289">
        <ele>412.420303</ele>
        <time>2012-01-21T13:26:17Z</time>
      </trkpt>
      <trkpt lat="43.7641" lon="7.263">
        <ele>415.420319</ele>
        <time>2012-01-21T13:26:25Z</time>
      </trkpt>
      <trkpt lat="43.76409" lon="7.26301">
        <ele>415.420319</ele>
        <time>2012-01-21T13:26:26Z</time>
      </trkpt>
      <trkpt lat="43.76396" lon="7.26306">
        <ele>419.420315</ele>
        <time>2012-01-21T13:26:32Z</time>
      </trkpt>
      <trkpt lat="43.76382" lon="7.26313">
        <ele>421.420307</ele>
        <time>2012-01-21T13:26:39Z</time>
      </trkpt>
      <trkpt lat="43.76373" lon="7.26324">
        <ele>422.420319</ele>
        <time>2012-01-21T13:26:45Z</time>
      </trkpt>
      <trkpt lat="43.76366" lon="7.26332">
        <ele>424.420326</ele>
        <time>2012-01-21T13:26:50Z</time>
      </trkpt>
      <trkpt lat="43.76364" lon="7.26334">
        <ele>424.420326</ele>
        <time>2012-01-21T13:26:51Z</time>
      </trkpt>
      <trkpt lat="43.76349" lon="7.2635">
        <ele>428.420341</ele>
        <time>2012-01-21T13:27:01Z</time>
      </trkpt>
      <trkpt lat="43.76343" lon="7.26355">
        <ele>429.420341</ele>
        <time>2012-01-21T13:27:04Z</time>
      </trkpt>
      <trkpt lat="43.76335" lon="7.26365">
        <ele>431.420349</ele>
        <time>2012-01-21T13:27:09Z</time>
      </trkpt>
      <trkpt lat="43.76331" lon="7.26376">
        <ele>433.420372</ele>
        <time>2012-01-21T13:27:13Z</time>
      </trkpt>
      <trkpt lat="43.76339" lon="7.26386">
        <ele>433.420399</ele>
        <time>2012-01-21T13:27:23Z</time>
      </trkpt>
      <trkpt lat="43.7635" lon="7.26377">
        <ele>435.420399</ele>
        <time>2012-01-21T13:27:31Z</time>
      </trkpt>
      <trkpt lat="43.76366" lon="7.26371">
        <ele>438.420406</ele>
        <time>2012-01-21T13:27:39Z</time>
      </trkpt>
      <trkpt lat="43.76377" lon="7.2637">
        <ele>439.420418</ele>
        <time>2012-01-21T13:27:42Z</time>
      </trkpt>
      <trkpt lat="43.76387" lon="7.26369">
        <ele>439.420429</ele>
        <time>2012-01-21T13:27:46Z</time>
      </trkpt>
      <trkpt lat="43.76395" lon="7.26366">
        <ele>440.420437</ele>
        <time>2012-01-21T13:27:50Z</time>
      </trkpt>
      <trkpt lat="43.76405" lon="7.26362">
        <ele>440.420441</ele>
        <time>2012-01-21T13:27:55Z</time>
      </trkpt>
      <trkpt lat="43.76413" lon="7.26358">
        <ele>441.420444</ele>
        <time>2012-01-21T13:27:59Z</time>
      </trkpt>
      <trkpt lat="43.76422" lon="7.26353">
        <ele>443.420444</ele>
        <time>2012-01-21T13:28:05Z</time>
      </trkpt>
      <trkpt lat="43.76424" lon="7.26352">
        <ele>443.420448</ele>
        <time>2012-01-21T13:28:06Z</time>
      </trkpt>
      <trkpt lat="43.76433" lon="7.26347">
        <ele>445.420448</ele>
        <time>2012-01-21T13:28:10Z</time>
      </trkpt>
      <trkpt lat="43.76442" lon="7.26342">
        <ele>445.420448</ele>
        <time>2012-01-21T13:28:15Z</time>
      </trkpt>
      <trkpt lat="43.76451" lon="7.26336">
        <ele>446.420448</ele>
        <time>2012-01-21T13:28:20Z</time>
      </trkpt>
      <trkpt lat="43.76454" lon="7.26334">
        <ele>447.420448</ele>
        <time>2012-01-21T13:28:22Z</time>
      </trkpt>
      <trkpt lat="43.76463" lon="7.26327">
        <ele>448.420441</ele>
        <time>2012-01-21T13:28:27Z</time>
      </trkpt>
      <trkpt lat="43.76471" lon="7.2632">
        <ele>450.420441</ele>
        <time>2012-01-21T13:28:31Z</time>
      </trkpt>
      <trkpt lat="43.76473" lon="7.26319">
        <ele>450.420441</ele>
        <time>2012-01-21T13:28:32Z</time>
      </trkpt>
      <trkpt lat="43.76485" lon="7.26312">
        <ele>454.420448</ele>
        <time>2012-01-21T13:28:38Z</time>
      </trkpt>
      <trkpt lat="43.76496" lon="7.26301">
        <ele>458.420437</ele>
        <time>2012-01-21T13:28:45Z</time>
      </trkpt>
      <trkpt lat="43.76497" lon="7.263">
        <ele>459.420433</ele>
        <time>2012-01-21T13:28:47Z</time>
      </trkpt>
      <trkpt lat="43.76506" lon="7.26292">
        <ele>462.420433</ele>
        <time>2012-01-21T13:28:52Z</time>
      </trkpt>
      <trkpt lat="43.76514" lon="7.26284">
        <ele>466.420425</ele>
        <time>2012-01-21T13:28:57Z</time>
      </trkpt>
      <trkpt lat="43.76526" lon="7.26268">
        <ele>469.42041</ele>
        <time>2012-01-21T13:29:05Z</time>
      </trkpt>
      <trkpt lat="43.76526" lon="7.26254">
        <ele>470.42038</ele>
        <time>2012-01-21T13:29:11Z</time>
      </trkpt>
      <trkpt lat="43.76523" lon="7.26242">
        <ele>471.420349</ele>
        <time>2012-01-21T13:29:14Z</time>
      </trkpt>
      <trkpt lat="43.76522" lon="7.26223">
        <ele>471.420307</ele>
        <time>2012-01-21T13:29:18Z</time>
      </trkpt>
      <trkpt lat="43.76522" lon="7.2621">
        <ele>471.42028</ele>
        <time>2012-01-21T13:29:21Z</time>
      </trkpt>
      <trkpt lat="43.7652" lon="7.26195">
        <ele>471.420242</ele>
        <time>2012-01-21T13:29:27Z</time>
      </trkpt>
      <trkpt lat="43.76517" lon="7.26182">
        <ele>472.420212</ele>
        <time>2012-01-21T13:29:33Z</time>
      </trkpt>
      <trkpt lat="43.76514" lon="7.26169">
        <ele>473.420181</ele>
        <time>2012-01-21T13:29:37Z</time>
      </trkpt>
      <trkpt lat="43.76511" lon="7.26161">
        <ele>473.420158</ele>
        <time>2012-01-21T13:29:42Z</time>
      </trkpt>
      <trkpt lat="43.76508" lon="7.26149">
        <ele>475.420132</ele>
        <time>2012-01-21T13:29:44Z</time>
      </trkpt>
      <trkpt lat="43.76505" lon="7.26135">
        <ele>477.420097</ele>
        <time>2012-01-21T13:29:54Z</time>
      </trkpt>
      <trkpt lat="43.76504" lon="7.26133">
        <ele>478.42009</ele>
        <time>2012-01-21T13:29:57Z</time>
      </trkpt>
      <trkpt lat="43.765" lon="7.26121">
        <ele>478.420063</ele>
        <time>2012-01-21T13:30:05Z</time>
      </trkpt>
      <trkpt lat="43.7649" lon="7.2611">
        <ele>477.420025</ele>
        <time>2012-01-21T13:30:11Z</time>
      </trkpt>
      <trkpt lat="43.76468" lon="7.261">
        <ele>474.419971</ele>
        <time>2012-01-21T13:30:19Z</time>
      </trkpt>
      <trkpt lat="43.76477" lon="7.26107">
        <ele>469.419998</ele>
        <time>2012-01-21T13:30:34Z</time>
      </trkpt>
      <trkpt lat="43.76486" lon="7.26112">
        <ele>469.420021</ele>
        <time>2012-01-21T13:30:38Z</time>
      </trkpt>
      <trkpt lat="43.76495" lon="7.26119">
        <ele>468.420048</ele>
        <time>2012-01-21T13:30:42Z</time>
      </trkpt>
      <trkpt lat="43.76503" lon="7.26126">
        <ele>468.420078</ele>
        <time>2012-01-21T13:30:46Z</time>
      </trkpt>
      <trkpt lat="43.76512" lon="7.26133">
        <ele>468.420105</ele>
        <time>2012-01-21T13:30:50Z</time>
      </trkpt>
      <trkpt lat="43.76521" lon="7.26138">
        <ele>467.420128</ele>
        <time>2012-01-21T13:30:54Z</time>
      </trkpt>
      <trkpt lat="43.76531" lon="7.26142">
        <ele>467.420143</ele>
        <time>2012-01-21T13:30:58Z</time>
      </trkpt>
      <trkpt lat="43.76539" lon="7.26145">
        <ele>467.420166</ele>
        <time>2012-01-21T13:31:02Z</time>
      </trkpt>
      <trkpt lat="43.7655" lon="7.2615">
        <ele>467.420197</ele>
        <time>2012-01-21T13:31:07Z</time>
      </trkpt>
      <trkpt lat="43.7656" lon="7.26154">
        <ele>467.420216</ele>
        <time>2012-01-21T13:31:12Z</time>
      </trkpt>
      <trkpt lat="43.7657" lon="7.26159">
        <ele>469.420242</ele>
        <time>2012-01-21T13:31:17Z</time>
      </trkpt>
      <trkpt lat="43.76579" lon="7.26166">
        <ele>470.420265</ele>
        <time>2012-01-21T13:31:22Z</time>
      </trkpt>
      <trkpt lat="43.76588" lon="7.26173">
        <ele>471.420292</ele>
        <time>2012-01-21T13:31:27Z</time>
      </trkpt>
      <trkpt lat="43.76597" lon="7.2618">
        <ele>470.420319</ele>
        <time>2012-01-21T13:31:32Z</time>
      </trkpt>
      <trkpt lat="43.76606" lon="7.26188">
        <ele>470.420349</ele>
        <time>2012-01-21T13:31:37Z</time>
      </trkpt>
      <trkpt lat="43.76615" lon="7.26197">
        <ele>470.42038</ele>
        <time>2012-01-21T13:31:42Z</time>
      </trkpt>
      <trkpt lat="43.76625" lon="7.26205">
        <ele>470.420406</ele>
        <time>2012-01-21T13:31:47Z</time>
      </trkpt>
      <trkpt lat="43.76633" lon="7.26213">
        <ele>471.420441</ele>
        <time>2012-01-21T13:31:52Z</time>
      </trkpt>
      <trkpt lat="43.76639" lon="7.26225">
        <ele>471.420471</ele>
        <time>2012-01-21T13:31:57Z</time>
      </trkpt>
      <trkpt lat="43.76642" lon="7.26238">
        <ele>471.420502</ele>
        <time>2012-01-21T13:32:01Z</time>
      </trkpt>
      <trkpt lat="43.76642" lon="7.26242">
        <ele>471.420509</ele>
        <time>2012-01-21T13:32:02Z</time>
      </trkpt>
      <trkpt lat="43.76641" lon="7.26255">
        <ele>471.42054</ele>
        <time>2012-01-21T13:32:06Z</time>
      </trkpt>
      <trkpt lat="43.7664" lon="7.26261">
        <ele>471.420547</ele>
        <time>2012-01-21T13:32:08Z</time>
      </trkpt>
      <trkpt lat="43.76634" lon="7.26273">
        <ele>469.42057</ele>
        <time>2012-01-21T13:32:13Z</time>
      </trkpt>
      <trkpt lat="43.76625" lon="7.2628">
        <ele>467.42057</ele>
        <time>2012-01-21T13:32:17Z</time>
      </trkpt>
      <trkpt lat="43.76616" lon="7.26286">
        <ele>465.42057</ele>
        <time>2012-01-21T13:32:21Z</time>
      </trkpt>
      <trkpt lat="43.76605" lon="7.2629">
        <ele>463.420563</ele>
        <time>2012-01-21T13:32:25Z</time>
      </trkpt>
      <trkpt lat="43.76593" lon="7.26293">
        <ele>462.420555</ele>
        <time>2012-01-21T13:32:29Z</time>
      </trkpt>
      <trkpt lat="43.76584" lon="7.26299">
        <ele>463.420551</ele>
        <time>2012-01-21T13:32:33Z</time>
      </trkpt>
      <trkpt lat="43.76577" lon="7.26307">
        <ele>463.420559</ele>
        <time>2012-01-21T13:32:37Z</time>
      </trkpt>
      <trkpt lat="43.76575" lon="7.26309">
        <ele>463.420563</ele>
        <time>2012-01-21T13:32:38Z</time>
      </trkpt>
      <trkpt lat="43.76569" lon="7.2632">
        <ele>464.420578</ele>
        <time>2012-01-21T13:32:43Z</time>
      </trkpt>
      <trkpt lat="43.76565" lon="7.26331">
        <ele>464.420593</ele>
        <time>2012-01-21T13:32:48Z</time>
      </trkpt>
      <trkpt lat="43.76561" lon="7.26343">
        <ele>465.420616</ele>
        <time>2012-01-21T13:32:53Z</time>
      </trkpt>
      <trkpt lat="43.76557" lon="7.26355">
        <ele>467.420631</ele>
        <time>2012-01-21T13:32:58Z</time>
      </trkpt>
      <trkpt lat="43.76551" lon="7.26367">
        <ele>467.420647</ele>
        <time>2012-01-21T13:33:03Z</time>
      </trkpt>
      <trkpt lat="43.76546" lon="7.2638">
        <ele>469.420673</ele>
        <time>2012-01-21T13:33:08Z</time>
      </trkpt>
      <trkpt lat="43.76541" lon="7.26393">
        <ele>472.420692</ele>
        <time>2012-01-21T13:33:13Z</time>
      </trkpt>
      <trkpt lat="43.76535" lon="7.26405">
        <ele>474.420708</ele>
        <time>2012-01-21T13:33:18Z</time>
      </trkpt>
      <trkpt lat="43.76529" lon="7.26416">
        <ele>477.420723</ele>
        <time>2012-01-21T13:33:23Z</time>
      </trkpt>
      <trkpt lat="43.76523" lon="7.26428">
        <ele>479.420742</ele>
        <time>2012-01-21T13:33:28Z</time>
      </trkpt>
      <trkpt lat="43.76526" lon="7.26443">
        <ele>483.420776</ele>
        <time>2012-01-21T13:33:33Z</time>
      </trkpt>
      <trkpt lat="43.76534" lon="7.26446">
        <ele>487.420795</ele>
        <time>2012-01-21T13:33:39Z</time>
      </trkpt>
      <trkpt lat="43.76537" lon="7.26444">
        <ele>487.420795</ele>
        <time>2012-01-21T13:33:40Z</time>
      </trkpt>
      <trkpt lat="43.76545" lon="7.26436">
        <ele>488.420792</ele>
        <time>2012-01-21T13:33:44Z</time>
      </trkpt>
      <trkpt lat="43.76548" lon="7.26431">
        <ele>489.420784</ele>
        <time>2012-01-21T13:33:45Z</time>
      </trkpt>
      <trkpt lat="43.76555" lon="7.26423">
        <ele>491.420776</ele>
        <time>2012-01-21T13:33:49Z</time>
      </trkpt>
      <trkpt lat="43.76564" lon="7.26416">
        <ele>495.420769</ele>
        <time>2012-01-21T13:33:56Z</time>
      </trkpt>
      <trkpt lat="43.76572" lon="7.26411">
        <ele>497.420773</ele>
        <time>2012-01-21T13:34:02Z</time>
      </trkpt>
      <trkpt lat="43.76579" lon="7.26406">
        <ele>499.420773</ele>
        <time>2012-01-21T13:34:06Z</time>
      </trkpt>
      <trkpt lat="43.76588" lon="7.26399">
        <ele>501.420769</ele>
        <time>2012-01-21T13:34:11Z</time>
      </trkpt>
      <trkpt lat="43.76598" lon="7.26392">
        <ele>503.420773</ele>
        <time>2012-01-21T13:34:16Z</time>
      </trkpt>
      <trkpt lat="43.76607" lon="7.26388">
        <ele>504.420769</ele>
        <time>2012-01-21T13:34:21Z</time>
      </trkpt>
      <trkpt lat="43.76615" lon="7.26382">
        <ele>506.420769</ele>
        <time>2012-01-21T13:34:25Z</time>
      </trkpt>
      <trkpt lat="43.7663" lon="7.26372">
        <ele>510.420773</ele>
        <time>2012-01-21T13:34:34Z</time>
      </trkpt>
      <trkpt lat="43.76641" lon="7.26366">
        <ele>511.420773</ele>
        <time>2012-01-21T13:34:40Z</time>
      </trkpt>
      <trkpt lat="43.7665" lon="7.26358">
        <ele>513.420769</ele>
        <time>2012-01-21T13:34:45Z</time>
      </trkpt>
      <trkpt lat="43.76652" lon="7.26356">
        <ele>514.420765</ele>
        <time>2012-01-21T13:34:46Z</time>
      </trkpt>
      <trkpt lat="43.76661" lon="7.26348">
        <ele>516.420761</ele>
        <time>2012-01-21T13:34:50Z</time>
      </trkpt>
      <trkpt lat="43.76663" lon="7.26346">
        <ele>516.420761</ele>
        <time>2012-01-21T13:34:51Z</time>
      </trkpt>
      <trkpt lat="43.76672" lon="7.26336">
        <ele>519.420753</ele>
        <time>2012-01-21T13:34:55Z</time>
      </trkpt>
      <trkpt lat="43.76677" lon="7.26331">
        <ele>520.420746</ele>
        <time>2012-01-21T13:34:57Z</time>
      </trkpt>
      <trkpt lat="43.76686" lon="7.26323">
        <ele>523.420742</ele>
        <time>2012-01-21T13:35:01Z</time>
      </trkpt>
      <trkpt lat="43.76688" lon="7.2632">
        <ele>523.420738</ele>
        <time>2012-01-21T13:35:02Z</time>
      </trkpt>
      <trkpt lat="43.76697" lon="7.26311">
        <ele>525.420731</ele>
        <time>2012-01-21T13:35:06Z</time>
      </trkpt>
      <trkpt lat="43.76706" lon="7.26301">
        <ele>526.420723</ele>
        <time>2012-01-21T13:35:10Z</time>
      </trkpt>
      <trkpt lat="43.76715" lon="7.2629">
        <ele>529.420715</ele>
        <time>2012-01-21T13:35:14Z</time>
      </trkpt>
      <trkpt lat="43.76723" lon="7.2628">
        <ele>530.420704</ele>
        <time>2012-01-21T13:35:18Z</time>
      </trkpt>
      <trkpt lat="43.76731" lon="7.26271">
        <ele>532.420692</ele>
        <time>2012-01-21T13:35:22Z</time>
      </trkpt>
      <trkpt lat="43.76735" lon="7.26266">
        <ele>533.420692</ele>
        <time>2012-01-21T13:35:24Z</time>
      </trkpt>
      <trkpt lat="43.76741" lon="7.26257">
        <ele>535.420677</ele>
        <time>2012-01-21T13:35:28Z</time>
      </trkpt>
      <trkpt lat="43.76747" lon="7.26245">
        <ele>538.420662</ele>
        <time>2012-01-21T13:35:33Z</time>
      </trkpt>
      <trkpt lat="43.76751" lon="7.2623">
        <ele>539.420639</ele>
        <time>2012-01-21T13:35:38Z</time>
      </trkpt>
      <trkpt lat="43.76753" lon="7.26215">
        <ele>541.420609</ele>
        <time>2012-01-21T13:35:42Z</time>
      </trkpt>
      <trkpt lat="43.7675" lon="7.262">
        <ele>541.42057</ele>
        <time>2012-01-21T13:35:45Z</time>
      </trkpt>
      <trkpt lat="43.76748" lon="7.26187">
        <ele>542.42054</ele>
        <time>2012-01-21T13:35:48Z</time>
      </trkpt>
      <trkpt lat="43.76745" lon="7.26171">
        <ele>542.420502</ele>
        <time>2012-01-21T13:35:52Z</time>
      </trkpt>
      <trkpt lat="43.76743" lon="7.26156">
        <ele>542.420467</ele>
        <time>2012-01-21T13:35:56Z</time>
      </trkpt>
      <trkpt lat="43.76738" lon="7.26146">
        <ele>543.420444</ele>
        <time>2012-01-21T13:36:01Z</time>
      </trkpt>
      <trkpt lat="43.76725" lon="7.26118">
        <ele>543.420364</ele>
        <time>2012-01-21T13:36:15Z</time>
      </trkpt>
      <trkpt lat="43.76721" lon="7.26102">
        <ele>543.420326</ele>
        <time>2012-01-21T13:36:20Z</time>
      </trkpt>
      <trkpt lat="43.7671" lon="7.26082">
        <ele>545.420265</ele>
        <time>2012-01-21T13:36:28Z</time>
      </trkpt>
      <trkpt lat="43.76703" lon="7.26073">
        <ele>547.420235</ele>
        <time>2012-01-21T13:36:33Z</time>
      </trkpt>
      <trkpt lat="43.76697" lon="7.26062">
        <ele>548.420204</ele>
        <time>2012-01-21T13:36:39Z</time>
      </trkpt>
      <trkpt lat="43.76691" lon="7.26051">
        <ele>547.420174</ele>
        <time>2012-01-21T13:36:46Z</time>
      </trkpt>
      <trkpt lat="43.76681" lon="7.26037">
        <ele>546.420128</ele>
        <time>2012-01-21T13:36:56Z</time>
      </trkpt>
      <trkpt lat="43.76687" lon="7.26047">
        <ele>548.420158</ele>
        <time>2012-01-21T13:37:10Z</time>
      </trkpt>
      <trkpt lat="43.76694" lon="7.26056">
        <ele>547.420189</ele>
        <time>2012-01-21T13:37:16Z</time>
      </trkpt>
      <trkpt lat="43.76705" lon="7.26066">
        <ele>545.420227</ele>
        <time>2012-01-21T13:37:24Z</time>
      </trkpt>
      <trkpt lat="43.76714" lon="7.26074">
        <ele>545.420254</ele>
        <time>2012-01-21T13:37:30Z</time>
      </trkpt>
      <trkpt lat="43.76725" lon="7.26083">
        <ele>546.420292</ele>
        <time>2012-01-21T13:37:38Z</time>
      </trkpt>
      <trkpt lat="43.76734" lon="7.2609">
        <ele>546.420315</ele>
        <time>2012-01-21T13:37:44Z</time>
      </trkpt>
      <trkpt lat="43.76743" lon="7.26097">
        <ele>547.420341</ele>
        <time>2012-01-21T13:37:50Z</time>
      </trkpt>
      <trkpt lat="43.7675" lon="7.26105">
        <ele>547.420368</ele>
        <time>2012-01-21T13:37:55Z</time>
      </trkpt>
      <trkpt lat="43.76759" lon="7.26114">
        <ele>546.420403</ele>
        <time>2012-01-21T13:38:00Z</time>
      </trkpt>
      <trkpt lat="43.76766" lon="7.26121">
        <ele>547.420425</ele>
        <time>2012-01-21T13:38:04Z</time>
      </trkpt>
      <trkpt lat="43.76774" lon="7.26129">
        <ele>548.420448</ele>
        <time>2012-01-21T13:38:08Z</time>
      </trkpt>
      <trkpt lat="43.76781" lon="7.26136">
        <ele>549.420479</ele>
        <time>2012-01-21T13:38:12Z</time>
      </trkpt>
      <trkpt lat="43.7679" lon="7.26144">
        <ele>549.420509</ele>
        <time>2012-01-21T13:38:17Z</time>
      </trkpt>
      <trkpt lat="43.76798" lon="7.26151">
        <ele>550.420532</ele>
        <time>2012-01-21T13:38:22Z</time>
      </trkpt>
      <trkpt lat="43.76807" lon="7.26157">
        <ele>550.420555</ele>
        <time>2012-01-21T13:38:27Z</time>
      </trkpt>
      <trkpt lat="43.76815" lon="7.26163">
        <ele>551.420578</ele>
        <time>2012-01-21T13:38:32Z</time>
      </trkpt>
      <trkpt lat="43.76823" lon="7.26169">
        <ele>551.420609</ele>
        <time>2012-01-21T13:38:37Z</time>
      </trkpt>
      <trkpt lat="43.76831" lon="7.26176">
        <ele>552.420631</ele>
        <time>2012-01-21T13:38:42Z</time>
      </trkpt>
      <trkpt lat="43.76838" lon="7.26184">
        <ele>553.420654</ele>
        <time>2012-01-21T13:38:47Z</time>
      </trkpt>
      <trkpt lat="43.76845" lon="7.26193">
        <ele>553.420685</ele>
        <time>2012-01-21T13:38:52Z</time>
      </trkpt>
      <trkpt lat="43.76848" lon="7.26207">
        <ele>555.420719</ele>
        <time>2012-01-21T13:38:57Z</time>
      </trkpt>
      <trkpt lat="43.76845" lon="7.26219">
        <ele>557.420738</ele>
        <time>2012-01-21T13:39:01Z</time>
      </trkpt>
      <trkpt lat="43.76838" lon="7.26232">
        <ele>558.420761</ele>
        <time>2012-01-21T13:39:05Z</time>
      </trkpt>
      <trkpt lat="43.76836" lon="7.26235">
        <ele>558.420765</ele>
        <time>2012-01-21T13:39:06Z</time>
      </trkpt>
      <trkpt lat="43.76829" lon="7.26245">
        <ele>559.420773</ele>
        <time>2012-01-21T13:39:09Z</time>
      </trkpt>
      <trkpt lat="43.76822" lon="7.26254">
        <ele>558.420784</ele>
        <time>2012-01-21T13:39:12Z</time>
      </trkpt>
      <trkpt lat="43.76815" lon="7.26264">
        <ele>559.420799</ele>
        <time>2012-01-21T13:39:15Z</time>
      </trkpt>
      <trkpt lat="43.76808" lon="7.26274">
        <ele>559.420807</ele>
        <time>2012-01-21T13:39:18Z</time>
      </trkpt>
      <trkpt lat="43.76801" lon="7.26285">
        <ele>560.420822</ele>
        <time>2012-01-21T13:39:21Z</time>
      </trkpt>
      <trkpt lat="43.76796" lon="7.26298">
        <ele>561.420837</ele>
        <time>2012-01-21T13:39:24Z</time>
      </trkpt>
      <trkpt lat="43.76792" lon="7.26311">
        <ele>562.42086</ele>
        <time>2012-01-21T13:39:27Z</time>
      </trkpt>
      <trkpt lat="43.76789" lon="7.26324">
        <ele>563.420891</ele>
        <time>2012-01-21T13:39:30Z</time>
      </trkpt>
      <trkpt lat="43.76786" lon="7.26337">
        <ele>564.42091</ele>
        <time>2012-01-21T13:39:33Z</time>
      </trkpt>
      <trkpt lat="43.76785" lon="7.26342">
        <ele>564.420921</ele>
        <time>2012-01-21T13:39:34Z</time>
      </trkpt>
      <trkpt lat="43.76781" lon="7.26355">
        <ele>566.420937</ele>
        <time>2012-01-21T13:39:37Z</time>
      </trkpt>
      <trkpt lat="43.76777" lon="7.26368">
        <ele>566.420959</ele>
        <time>2012-01-21T13:39:40Z</time>
      </trkpt>
      <trkpt lat="43.76772" lon="7.26379">
        <ele>567.420982</ele>
        <time>2012-01-21T13:39:43Z</time>
      </trkpt>
      <trkpt lat="43.76767" lon="7.26391">
        <ele>567.420998</ele>
        <time>2012-01-21T13:39:46Z</time>
      </trkpt>
      <trkpt lat="43.76762" lon="7.26402">
        <ele>567.421013</ele>
        <time>2012-01-21T13:39:49Z</time>
      </trkpt>
      <trkpt lat="43.76756" lon="7.26412">
        <ele>567.421028</ele>
        <time>2012-01-21T13:39:52Z</time>
      </trkpt>
      <trkpt lat="43.7675" lon="7.26422">
        <ele>567.421036</ele>
        <time>2012-01-21T13:39:55Z</time>
      </trkpt>
      <trkpt lat="43.76744" lon="7.26432">
        <ele>568.421059</ele>
        <time>2012-01-21T13:39:58Z</time>
      </trkpt>
      <trkpt lat="43.76737" lon="7.26444">
        <ele>571.42107</ele>
        <time>2012-01-21T13:40:02Z</time>
      </trkpt>
      <trkpt lat="43.7673" lon="7.26455">
        <ele>573.421082</ele>
        <time>2012-01-21T13:40:07Z</time>
      </trkpt>
      <trkpt lat="43.76727" lon="7.26469">
        <ele>577.421112</ele>
        <time>2012-01-21T13:40:13Z</time>
      </trkpt>
      <trkpt lat="43.76736" lon="7.26471">
        <ele>579.421127</ele>
        <time>2012-01-21T13:40:22Z</time>
      </trkpt>
      <trkpt lat="43.76742" lon="7.2646">
        <ele>579.421108</ele>
        <time>2012-01-21T13:40:26Z</time>
      </trkpt>
      <trkpt lat="43.76751" lon="7.26452">
        <ele>580.421104</ele>
        <time>2012-01-21T13:40:31Z</time>
      </trkpt>
      <trkpt lat="43.7676" lon="7.26445">
        <ele>580.421104</ele>
        <time>2012-01-21T13:40:35Z</time>
      </trkpt>
      <trkpt lat="43.76764" lon="7.26442">
        <ele>580.421104</ele>
        <time>2012-01-21T13:40:37Z</time>
      </trkpt>
      <trkpt lat="43.76773" lon="7.26434">
        <ele>582.421097</ele>
        <time>2012-01-21T13:40:43Z</time>
      </trkpt>
      <trkpt lat="43.76782" lon="7.26427">
        <ele>584.421097</ele>
        <time>2012-01-21T13:40:49Z</time>
      </trkpt>
      <trkpt lat="43.76784" lon="7.26425">
        <ele>585.421097</ele>
        <time>2012-01-21T13:40:51Z</time>
      </trkpt>
      <trkpt lat="43.76794" lon="7.26417">
        <ele>587.421089</ele>
        <time>2012-01-21T13:40:57Z</time>
      </trkpt>
      <trkpt lat="43.76802" lon="7.26408">
        <ele>589.421082</ele>
        <time>2012-01-21T13:41:02Z</time>
      </trkpt>
      <trkpt lat="43.76805" lon="7.26404">
        <ele>589.421078</ele>
        <time>2012-01-21T13:41:04Z</time>
      </trkpt>
      <trkpt lat="43.76814" lon="7.26395">
        <ele>591.421074</ele>
        <time>2012-01-21T13:41:09Z</time>
      </trkpt>
      <trkpt lat="43.76821" lon="7.26385">
        <ele>592.421059</ele>
        <time>2012-01-21T13:41:14Z</time>
      </trkpt>
      <trkpt lat="43.76828" lon="7.26374">
        <ele>593.421043</ele>
        <time>2012-01-21T13:41:19Z</time>
      </trkpt>
      <trkpt lat="43.76835" lon="7.26363">
        <ele>594.421028</ele>
        <time>2012-01-21T13:41:24Z</time>
      </trkpt>
      <trkpt lat="43.76838" lon="7.26358">
        <ele>595.421028</ele>
        <time>2012-01-21T13:41:28Z</time>
      </trkpt>
      <trkpt lat="43.76846" lon="7.26349">
        <ele>596.421017</ele>
        <time>2012-01-21T13:41:32Z</time>
      </trkpt>
      <trkpt lat="43.76854" lon="7.2634">
        <ele>597.421013</ele>
        <time>2012-01-21T13:41:38Z</time>
      </trkpt>
      <trkpt lat="43.76863" lon="7.26333">
        <ele>597.421005</ele>
        <time>2012-01-21T13:41:44Z</time>
      </trkpt>
      <trkpt lat="43.76864" lon="7.26332">
        <ele>597.421005</ele>
        <time>2012-01-21T13:41:45Z</time>
      </trkpt>
      <trkpt lat="43.76872" lon="7.26325">
        <ele>597.420998</ele>
        <time>2012-01-21T13:41:51Z</time>
      </trkpt>
      <trkpt lat="43.76878" lon="7.26315">
        <ele>598.42099</ele>
        <time>2012-01-21T13:41:58Z</time>
      </trkpt>
      <trkpt lat="43.76885" lon="7.26305">
        <ele>599.420975</ele>
        <time>2012-01-21T13:42:05Z</time>
      </trkpt>
      <trkpt lat="43.76892" lon="7.26297">
        <ele>600.420971</ele>
        <time>2012-01-21T13:42:11Z</time>
      </trkpt>
      <trkpt lat="43.76899" lon="7.26288">
        <ele>601.420963</ele>
        <time>2012-01-21T13:42:16Z</time>
      </trkpt>
      <trkpt lat="43.769" lon="7.26286">
        <ele>601.420959</ele>
        <time>2012-01-21T13:42:17Z</time>
      </trkpt>
      <trkpt lat="43.76907" lon="7.26276">
        <ele>603.420944</ele>
        <time>2012-01-21T13:42:22Z</time>
      </trkpt>
      <trkpt lat="43.7691" lon="7.26273">
        <ele>603.420944</ele>
        <time>2012-01-21T13:42:24Z</time>
      </trkpt>
      <trkpt lat="43.76919" lon="7.26261">
        <ele>603.420929</ele>
        <time>2012-01-21T13:42:32Z</time>
      </trkpt>
      <trkpt lat="43.76925" lon="7.26251">
        <ele>604.420921</ele>
        <time>2012-01-21T13:42:38Z</time>
      </trkpt>
      <trkpt lat="43.76933" lon="7.26238">
        <ele>605.420902</ele>
        <time>2012-01-21T13:42:46Z</time>
      </trkpt>
      <trkpt lat="43.76939" lon="7.26226">
        <ele>604.420883</ele>
        <time>2012-01-21T13:42:51Z</time>
      </trkpt>
      <trkpt lat="43.76941" lon="7.2622">
        <ele>604.420876</ele>
        <time>2012-01-21T13:42:53Z</time>
      </trkpt>
      <trkpt lat="43.76947" lon="7.26205">
        <ele>605.420853</ele>
        <time>2012-01-21T13:42:59Z</time>
      </trkpt>
      <trkpt lat="43.76952" lon="7.26161">
        <ele>608.420761</ele>
        <time>2012-01-21T13:43:25Z</time>
      </trkpt>
      <trkpt lat="43.76964" lon="7.26165">
        <ele>612.420792</ele>
        <time>2012-01-21T13:43:38Z</time>
      </trkpt>
      <trkpt lat="43.76967" lon="7.26177">
        <ele>613.420818</ele>
        <time>2012-01-21T13:43:43Z</time>
      </trkpt>
      <trkpt lat="43.76965" lon="7.26191">
        <ele>612.420845</ele>
        <time>2012-01-21T13:43:48Z</time>
      </trkpt>
      <trkpt lat="43.7696" lon="7.26201">
        <ele>611.420853</ele>
        <time>2012-01-21T13:43:52Z</time>
      </trkpt>
      <trkpt lat="43.76951" lon="7.26214">
        <ele>610.420876</ele>
        <time>2012-01-21T13:43:58Z</time>
      </trkpt>
      <trkpt lat="43.7695" lon="7.26216">
        <ele>610.420876</ele>
        <time>2012-01-21T13:43:59Z</time>
      </trkpt>
      <trkpt lat="43.76943" lon="7.26226">
        <ele>610.420891</ele>
        <time>2012-01-21T13:44:04Z</time>
      </trkpt>
      <trkpt lat="43.76938" lon="7.26239">
        <ele>611.42091</ele>
        <time>2012-01-21T13:44:10Z</time>
      </trkpt>
      <trkpt lat="43.76933" lon="7.26262">
        <ele>615.420952</ele>
        <time>2012-01-21T13:44:20Z</time>
      </trkpt>
      <trkpt lat="43.7693" lon="7.26275">
        <ele>618.420975</ele>
        <time>2012-01-21T13:44:25Z</time>
      </trkpt>
      <trkpt lat="43.76928" lon="7.26279">
        <ele>617.420982</ele>
        <time>2012-01-21T13:44:27Z</time>
      </trkpt>
      <trkpt lat="43.76923" lon="7.26289">
        <ele>615.420998</ele>
        <time>2012-01-21T13:44:32Z</time>
      </trkpt>
      <trkpt lat="43.76919" lon="7.26301">
        <ele>613.421017</ele>
        <time>2012-01-21T13:44:37Z</time>
      </trkpt>
      <trkpt lat="43.76915" lon="7.2631">
        <ele>612.421028</ele>
        <time>2012-01-21T13:44:41Z</time>
      </trkpt>
      <trkpt lat="43.76911" lon="7.26321">
        <ele>612.421043</ele>
        <time>2012-01-21T13:44:46Z</time>
      </trkpt>
      <trkpt lat="43.76908" lon="7.26334">
        <ele>613.42107</ele>
        <time>2012-01-21T13:44:51Z</time>
      </trkpt>
      <trkpt lat="43.76908" lon="7.26336">
        <ele>613.421074</ele>
        <time>2012-01-21T13:44:52Z</time>
      </trkpt>
      <trkpt lat="43.76903" lon="7.26349">
        <ele>614.421097</ele>
        <time>2012-01-21T13:44:58Z</time>
      </trkpt>
      <trkpt lat="43.769" lon="7.26363">
        <ele>615.42112</ele>
        <time>2012-01-21T13:45:04Z</time>
      </trkpt>
      <trkpt lat="43.76895" lon="7.26379">
        <ele>616.42115</ele>
        <time>2012-01-21T13:45:11Z</time>
      </trkpt>
      <trkpt lat="43.76892" lon="7.26391">
        <ele>617.421169</ele>
        <time>2012-01-21T13:45:16Z</time>
      </trkpt>
      <trkpt lat="43.76889" lon="7.26403">
        <ele>619.421192</ele>
        <time>2012-01-21T13:45:21Z</time>
      </trkpt>
      <trkpt lat="43.76885" lon="7.26417">
        <ele>620.421211</ele>
        <time>2012-01-21T13:45:26Z</time>
      </trkpt>
      <trkpt lat="43.76882" lon="7.2643">
        <ele>621.421234</ele>
        <time>2012-01-21T13:45:31Z</time>
      </trkpt>
      <trkpt lat="43.76879" lon="7.26442">
        <ele>621.421257</ele>
        <time>2012-01-21T13:45:36Z</time>
      </trkpt>
      <trkpt lat="43.76876" lon="7.26454">
        <ele>622.42128</ele>
        <time>2012-01-21T13:45:41Z</time>
      </trkpt>
      <trkpt lat="43.76874" lon="7.26458">
        <ele>624.421288</ele>
        <time>2012-01-21T13:45:43Z</time>
      </trkpt>
      <trkpt lat="43.7687" lon="7.2647">
        <ele>625.42131</ele>
        <time>2012-01-21T13:45:48Z</time>
      </trkpt>
      <trkpt lat="43.76867" lon="7.26482">
        <ele>625.421329</ele>
        <time>2012-01-21T13:45:53Z</time>
      </trkpt>
      <trkpt lat="43.76862" lon="7.26495">
        <ele>627.421349</ele>
        <time>2012-01-21T13:45:59Z</time>
      </trkpt>
      <trkpt lat="43.76859" lon="7.26507">
        <ele>628.421371</ele>
        <time>2012-01-21T13:46:04Z</time>
      </trkpt>
      <trkpt lat="43.76855" lon="7.26518">
        <ele>630.421387</ele>
        <time>2012-01-21T13:46:09Z</time>
      </trkpt>
      <trkpt lat="43.76851" lon="7.26532">
        <ele>630.421413</ele>
        <time>2012-01-21T13:46:15Z</time>
      </trkpt>
      <trkpt lat="43.76848" lon="7.26546">
        <ele>630.421432</ele>
        <time>2012-01-21T13:46:21Z</time>
      </trkpt>
      <trkpt lat="43.76847" lon="7.26559">
        <ele>631.421463</ele>
        <time>2012-01-21T13:46:27Z</time>
      </trkpt>
      <trkpt lat="43.76844" lon="7.26572">
        <ele>631.421486</ele>
        <time>2012-01-21T13:46:33Z</time>
      </trkpt>
      <trkpt lat="43.76845" lon="7.26587">
        <ele>634.42152</ele>
        <time>2012-01-21T13:46:39Z</time>
      </trkpt>
      <trkpt lat="43.76855" lon="7.2658">
        <ele>635.421516</ele>
        <time>2012-01-21T13:46:48Z</time>
      </trkpt>
      <trkpt lat="43.7686" lon="7.26568">
        <ele>636.421501</ele>
        <time>2012-01-21T13:46:52Z</time>
      </trkpt>
      <trkpt lat="43.76862" lon="7.26559">
        <ele>637.421486</ele>
        <time>2012-01-21T13:46:56Z</time>
      </trkpt>
      <trkpt lat="43.76867" lon="7.26548">
        <ele>638.421463</ele>
        <time>2012-01-21T13:47:00Z</time>
      </trkpt>
      <trkpt lat="43.76873" lon="7.26538">
        <ele>638.421455</ele>
        <time>2012-01-21T13:47:02Z</time>
      </trkpt>
      <trkpt lat="43.76881" lon="7.26528">
        <ele>638.421444</ele>
        <time>2012-01-21T13:47:05Z</time>
      </trkpt>
      <trkpt lat="43.76888" lon="7.2652">
        <ele>639.421436</ele>
        <time>2012-01-21T13:47:08Z</time>
      </trkpt>
      <trkpt lat="43.76896" lon="7.26512">
        <ele>640.421432</ele>
        <time>2012-01-21T13:47:13Z</time>
      </trkpt>
      <trkpt lat="43.76903" lon="7.26503">
        <ele>640.421425</ele>
        <time>2012-01-21T13:47:17Z</time>
      </trkpt>
      <trkpt lat="43.76911" lon="7.2649">
        <ele>642.421402</ele>
        <time>2012-01-21T13:47:21Z</time>
      </trkpt>
      <trkpt lat="43.76915" lon="7.26482">
        <ele>643.421394</ele>
        <time>2012-01-21T13:47:24Z</time>
      </trkpt>
      <trkpt lat="43.76921" lon="7.26471">
        <ele>644.421379</ele>
        <time>2012-01-21T13:47:28Z</time>
      </trkpt>
      <trkpt lat="43.76928" lon="7.26459">
        <ele>646.421364</ele>
        <time>2012-01-21T13:47:33Z</time>
      </trkpt>
      <trkpt lat="43.76934" lon="7.26446">
        <ele>647.421341</ele>
        <time>2012-01-21T13:47:38Z</time>
      </trkpt>
      <trkpt lat="43.76939" lon="7.26434">
        <ele>649.421326</ele>
        <time>2012-01-21T13:47:42Z</time>
      </trkpt>
      <trkpt lat="43.76948" lon="7.26422">
        <ele>651.421314</ele>
        <time>2012-01-21T13:47:47Z</time>
      </trkpt>
      <trkpt lat="43.7695" lon="7.26421">
        <ele>652.42131</ele>
        <time>2012-01-21T13:47:48Z</time>
      </trkpt>
      <trkpt lat="43.76958" lon="7.26413">
        <ele>653.42131</ele>
        <time>2012-01-21T13:47:52Z</time>
      </trkpt>
      <trkpt lat="43.76967" lon="7.26404">
        <ele>654.421299</ele>
        <time>2012-01-21T13:47:56Z</time>
      </trkpt>
      <trkpt lat="43.76975" lon="7.26395">
        <ele>655.421288</ele>
        <time>2012-01-21T13:48:00Z</time>
      </trkpt>
      <trkpt lat="43.76982" lon="7.26387">
        <ele>656.421288</ele>
        <time>2012-01-21T13:48:04Z</time>
      </trkpt>
      <trkpt lat="43.76989" lon="7.26377">
        <ele>658.421272</ele>
        <time>2012-01-21T13:48:08Z</time>
      </trkpt>
      <trkpt lat="43.76994" lon="7.26367">
        <ele>661.421257</ele>
        <time>2012-01-21T13:48:17Z</time>
      </trkpt>
      <trkpt lat="43.76999" lon="7.26362">
        <ele>662.421257</ele>
        <time>2012-01-21T13:48:22Z</time>
      </trkpt>
      <trkpt lat="43.77008" lon="7.26352">
        <ele>662.421242</ele>
        <time>2012-01-21T13:48:27Z</time>
      </trkpt>
      <trkpt lat="43.77008" lon="7.26352">
        <ele>662.421242</ele>
        <time>2012-01-21T13:48:30Z</time>
      </trkpt>
      <trkpt lat="43.77014" lon="7.26339">
        <ele>664.421227</ele>
        <time>2012-01-21T13:48:32Z</time>
      </trkpt>
      <trkpt lat="43.77022" lon="7.26328">
        <ele>667.421215</ele>
        <time>2012-01-21T13:48:38Z</time>
      </trkpt>
      <trkpt lat="43.7703" lon="7.26321">
        <ele>669.421207</ele>
        <time>2012-01-21T13:48:43Z</time>
      </trkpt>
      <trkpt lat="43.77038" lon="7.26313">
        <ele>673.421204</ele>
        <time>2012-01-21T13:48:49Z</time>
      </trkpt>
      <trkpt lat="43.7705" lon="7.263">
        <ele>676.421192</ele>
        <time>2012-01-21T13:48:56Z</time>
      </trkpt>
      <trkpt lat="43.77057" lon="7.26292">
        <ele>677.421185</ele>
        <time>2012-01-21T13:49:01Z</time>
      </trkpt>
      <trkpt lat="43.77067" lon="7.26283">
        <ele>679.421181</ele>
        <time>2012-01-21T13:49:06Z</time>
      </trkpt>
      <trkpt lat="43.77075" lon="7.26277">
        <ele>681.421177</ele>
        <time>2012-01-21T13:49:09Z</time>
      </trkpt>
      <trkpt lat="43.77077" lon="7.26275">
        <ele>681.421173</ele>
        <time>2012-01-21T13:49:10Z</time>
      </trkpt>
      <trkpt lat="43.77086" lon="7.26267">
        <ele>683.421173</ele>
        <time>2012-01-21T13:49:16Z</time>
      </trkpt>
      <trkpt lat="43.77094" lon="7.26257">
        <ele>684.421165</ele>
        <time>2012-01-21T13:49:21Z</time>
      </trkpt>
      <trkpt lat="43.77099" lon="7.26246">
        <ele>684.421146</ele>
        <time>2012-01-21T13:49:25Z</time>
      </trkpt>
      <trkpt lat="43.77106" lon="7.26235">
        <ele>684.421131</ele>
        <time>2012-01-21T13:49:30Z</time>
      </trkpt>
      <trkpt lat="43.77113" lon="7.26226">
        <ele>685.421127</ele>
        <time>2012-01-21T13:49:35Z</time>
      </trkpt>
      <trkpt lat="43.7712" lon="7.26217">
        <ele>685.421112</ele>
        <time>2012-01-21T13:49:42Z</time>
      </trkpt>
      <trkpt lat="43.77137" lon="7.26197">
        <ele>687.421097</ele>
        <time>2012-01-21T13:50:03Z</time>
      </trkpt>
      <trkpt lat="43.77146" lon="7.2619">
        <ele>688.421089</ele>
        <time>2012-01-21T13:50:08Z</time>
      </trkpt>
      <trkpt lat="43.77154" lon="7.2618">
        <ele>689.421082</ele>
        <time>2012-01-21T13:50:12Z</time>
      </trkpt>
      <trkpt lat="43.77161" lon="7.26169">
        <ele>690.42107</ele>
        <time>2012-01-21T13:50:16Z</time>
      </trkpt>
      <trkpt lat="43.77161" lon="7.26169">
        <ele>690.42107</ele>
        <time>2012-01-21T13:50:17Z</time>
      </trkpt>
      <trkpt lat="43.77169" lon="7.2616">
        <ele>692.421059</ele>
        <time>2012-01-21T13:50:20Z</time>
      </trkpt>
      <trkpt lat="43.77176" lon="7.26153">
        <ele>693.421055</ele>
        <time>2012-01-21T13:50:25Z</time>
      </trkpt>
      <trkpt lat="43.77184" lon="7.26147">
        <ele>694.421055</ele>
        <time>2012-01-21T13:50:30Z</time>
      </trkpt>
      <trkpt lat="43.77186" lon="7.26145">
        <ele>694.421051</ele>
        <time>2012-01-21T13:50:31Z</time>
      </trkpt>
      <trkpt lat="43.77197" lon="7.2613">
        <ele>696.421036</ele>
        <time>2012-01-21T13:50:40Z</time>
      </trkpt>
      <trkpt lat="43.77202" lon="7.2612">
        <ele>698.421021</ele>
        <time>2012-01-21T13:50:46Z</time>
      </trkpt>
      <trkpt lat="43.77208" lon="7.26109">
        <ele>699.421005</ele>
        <time>2012-01-21T13:50:53Z</time>
      </trkpt>
      <trkpt lat="43.77209" lon="7.26105">
        <ele>700.420998</ele>
        <time>2012-01-21T13:50:55Z</time>
      </trkpt>
      <trkpt lat="43.77213" lon="7.26093">
        <ele>702.420979</ele>
        <time>2012-01-21T13:51:01Z</time>
      </trkpt>
      <trkpt lat="43.77221" lon="7.26074">
        <ele>701.420948</ele>
        <time>2012-01-21T13:51:09Z</time>
      </trkpt>
      <trkpt lat="43.77234" lon="7.26044">
        <ele>705.420902</ele>
        <time>2012-01-21T13:51:24Z</time>
      </trkpt>
      <trkpt lat="43.77241" lon="7.26031">
        <ele>705.420883</ele>
        <time>2012-01-21T13:51:31Z</time>
      </trkpt>
      <trkpt lat="43.77246" lon="7.2602">
        <ele>705.420868</ele>
        <time>2012-01-21T13:51:37Z</time>
      </trkpt>
      <trkpt lat="43.77251" lon="7.26008">
        <ele>705.420849</ele>
        <time>2012-01-21T13:51:42Z</time>
      </trkpt>
      <trkpt lat="43.77256" lon="7.25996">
        <ele>706.420834</ele>
        <time>2012-01-21T13:51:48Z</time>
      </trkpt>
      <trkpt lat="43.77253" lon="7.2597">
        <ele>713.420769</ele>
        <time>2012-01-21T13:51:58Z</time>
      </trkpt>
      <trkpt lat="43.77246" lon="7.25958">
        <ele>716.420738</ele>
        <time>2012-01-21T13:52:02Z</time>
      </trkpt>
      <trkpt lat="43.7724" lon="7.25953">
        <ele>718.420719</ele>
        <time>2012-01-21T13:52:04Z</time>
      </trkpt>
      <trkpt lat="43.77231" lon="7.25945">
        <ele>719.420689</ele>
        <time>2012-01-21T13:52:07Z</time>
      </trkpt>
      <trkpt lat="43.77219" lon="7.25933">
        <ele>719.420647</ele>
        <time>2012-01-21T13:52:13Z</time>
      </trkpt>
      <trkpt lat="43.7722" lon="7.25931">
        <ele>719.420647</ele>
        <time>2012-01-21T13:52:15Z</time>
      </trkpt>
      <trkpt lat="43.77229" lon="7.25935">
        <ele>714.42067</ele>
        <time>2012-01-21T13:52:23Z</time>
      </trkpt>
      <trkpt lat="43.77239" lon="7.25939">
        <ele>709.420689</ele>
        <time>2012-01-21T13:52:28Z</time>
      </trkpt>
      <trkpt lat="43.77249" lon="7.2594">
        <ele>707.420708</ele>
        <time>2012-01-21T13:52:32Z</time>
      </trkpt>
      <trkpt lat="43.77258" lon="7.25939">
        <ele>705.420715</ele>
        <time>2012-01-21T13:52:36Z</time>
      </trkpt>
      <trkpt lat="43.77269" lon="7.25935">
        <ele>703.420719</ele>
        <time>2012-01-21T13:52:41Z</time>
      </trkpt>
      <trkpt lat="43.77279" lon="7.25928">
        <ele>704.420715</ele>
        <time>2012-01-21T13:52:46Z</time>
      </trkpt>
      <trkpt lat="43.77289" lon="7.25921">
        <ele>706.420723</ele>
        <time>2012-01-21T13:52:51Z</time>
      </trkpt>
      <trkpt lat="43.77299" lon="7.25916">
        <ele>709.420723</ele>
        <time>2012-01-21T13:52:56Z</time>
      </trkpt>
      <trkpt lat="43.77309" lon="7.2591">
        <ele>711.420723</ele>
        <time>2012-01-21T13:53:01Z</time>
      </trkpt>
      <trkpt lat="43.77317" lon="7.25904">
        <ele>712.420723</ele>
        <time>2012-01-21T13:53:06Z</time>
      </trkpt>
      <trkpt lat="43.77326" lon="7.259">
        <ele>713.420723</ele>
        <time>2012-01-21T13:53:12Z</time>
      </trkpt>
      <trkpt lat="43.77334" lon="7.25883">
        <ele>717.4207</ele>
        <time>2012-01-21T13:53:25Z</time>
      </trkpt>
      <trkpt lat="43.77339" lon="7.25871">
        <ele>719.420677</ele>
        <time>2012-01-21T13:53:31Z</time>
      </trkpt>
      <trkpt lat="43.7734" lon="7.25868">
        <ele>720.420677</ele>
        <time>2012-01-21T13:53:33Z</time>
      </trkpt>
      <trkpt lat="43.77348" lon="7.25859">
        <ele>721.42067</ele>
        <time>2012-01-21T13:53:40Z</time>
      </trkpt>
      <trkpt lat="43.77349" lon="7.25857">
        <ele>721.420662</ele>
        <time>2012-01-21T13:53:41Z</time>
      </trkpt>
      <trkpt lat="43.77358" lon="7.25852">
        <ele>723.42067</ele>
        <time>2012-01-21T13:53:49Z</time>
      </trkpt>
      <trkpt lat="43.77369" lon="7.25845">
        <ele>724.42067</ele>
        <time>2012-01-21T13:53:55Z</time>
      </trkpt>
      <trkpt lat="43.77378" lon="7.25835">
        <ele>725.420662</ele>
        <time>2012-01-21T13:54:01Z</time>
      </trkpt>
      <trkpt lat="43.77383" lon="7.25824">
        <ele>727.420643</ele>
        <time>2012-01-21T13:54:09Z</time>
      </trkpt>
      <trkpt lat="43.77384" lon="7.25821">
        <ele>727.420639</ele>
        <time>2012-01-21T13:54:10Z</time>
      </trkpt>
      <trkpt lat="43.77387" lon="7.25808">
        <ele>728.420616</ele>
        <time>2012-01-21T13:54:14Z</time>
      </trkpt>
      <trkpt lat="43.77391" lon="7.25793">
        <ele>728.420586</ele>
        <time>2012-01-21T13:54:19Z</time>
      </trkpt>
      <trkpt lat="43.77394" lon="7.25781">
        <ele>728.420567</ele>
        <time>2012-01-21T13:54:23Z</time>
      </trkpt>
      <trkpt lat="43.77396" lon="7.25767">
        <ele>728.42054</ele>
        <time>2012-01-21T13:54:27Z</time>
      </trkpt>
      <trkpt lat="43.77398" lon="7.25752">
        <ele>728.420509</ele>
        <time>2012-01-21T13:54:31Z</time>
      </trkpt>
      <trkpt lat="43.77397" lon="7.25738">
        <ele>729.420479</ele>
        <time>2012-01-21T13:54:35Z</time>
      </trkpt>
      <trkpt lat="43.77394" lon="7.25726">
        <ele>730.420448</ele>
        <time>2012-01-21T13:54:39Z</time>
      </trkpt>
      <trkpt lat="43.77389" lon="7.25714">
        <ele>730.420418</ele>
        <time>2012-01-21T13:54:45Z</time>
      </trkpt>
      <trkpt lat="43.77383" lon="7.25703">
        <ele>737.420387</ele>
        <time>2012-01-21T13:55:05Z</time>
      </trkpt>
      <trkpt lat="43.77375" lon="7.25694">
        <ele>738.420357</ele>
        <time>2012-01-21T13:55:25Z</time>
      </trkpt>
      <trkpt lat="43.77368" lon="7.25684">
        <ele>743.42033</ele>
        <time>2012-01-21T13:55:43Z</time>
      </trkpt>
      <trkpt lat="43.77368" lon="7.25683">
        <ele>743.420326</ele>
        <time>2012-01-21T13:55:44Z</time>
      </trkpt>
      <trkpt lat="43.7736" lon="7.25674">
        <ele>744.420292</ele>
        <time>2012-01-21T13:55:58Z</time>
      </trkpt>
      <trkpt lat="43.77352" lon="7.25666">
        <ele>749.420265</ele>
        <time>2012-01-21T13:56:19Z</time>
      </trkpt>
      <trkpt lat="43.77344" lon="7.2566">
        <ele>751.420242</ele>
        <time>2012-01-21T13:56:37Z</time>
      </trkpt>
      <trkpt lat="43.77342" lon="7.25643">
        <ele>754.420204</ele>
        <time>2012-01-21T13:57:03Z</time>
      </trkpt>
      <trkpt lat="43.77338" lon="7.25631">
        <ele>756.420174</ele>
        <time>2012-01-21T13:57:18Z</time>
      </trkpt>
      <trkpt lat="43.77338" lon="7.2563">
        <ele>756.420174</ele>
        <time>2012-01-21T13:57:19Z</time>
      </trkpt>
      <trkpt lat="43.77332" lon="7.2562">
        <ele>758.420143</ele>
        <time>2012-01-21T13:57:39Z</time>
      </trkpt>
      <trkpt lat="43.77324" lon="7.2561">
        <ele>760.420109</ele>
        <time>2012-01-21T13:57:52Z</time>
      </trkpt>
      <trkpt lat="43.77323" lon="7.25607">
        <ele>760.420101</ele>
        <time>2012-01-21T13:57:55Z</time>
      </trkpt>
      <trkpt lat="43.77316" lon="7.25599">
        <ele>762.420074</ele>
        <time>2012-01-21T13:58:07Z</time>
      </trkpt>
      <trkpt lat="43.77308" lon="7.25594">
        <ele>763.420052</ele>
        <time>2012-01-21T13:58:22Z</time>
      </trkpt>
      <trkpt lat="43.77304" lon="7.25575">
        <ele>774.42001</ele>
        <time>2012-01-21T13:58:52Z</time>
      </trkpt>
      <trkpt lat="43.77301" lon="7.25563">
        <ele>776.419979</ele>
        <time>2012-01-21T13:59:09Z</time>
      </trkpt>
      <trkpt lat="43.77296" lon="7.25553">
        <ele>782.419952</ele>
        <time>2012-01-21T13:59:29Z</time>
      </trkpt>
      <trkpt lat="43.77293" lon="7.25541">
        <ele>784.419922</ele>
        <time>2012-01-21T13:59:51Z</time>
      </trkpt>
      <trkpt lat="43.77292" lon="7.25541">
        <ele>784.419918</ele>
        <time>2012-01-21T13:59:52Z</time>
      </trkpt>
      <trkpt lat="43.77284" lon="7.25536">
        <ele>792.419899</ele>
        <time>2012-01-21T14:00:07Z</time>
      </trkpt>
      <trkpt lat="43.77277" lon="7.25524">
        <ele>793.419868</ele>
        <time>2012-01-21T14:00:26Z</time>
      </trkpt>
      <trkpt lat="43.77272" lon="7.25514">
        <ele>795.419834</ele>
        <time>2012-01-21T14:00:44Z</time>
      </trkpt>
      <trkpt lat="43.77264" lon="7.25509">
        <ele>801.419811</ele>
        <time>2012-01-21T14:01:02Z</time>
      </trkpt>
      <trkpt lat="43.77255" lon="7.25504">
        <ele>804.419792</ele>
        <time>2012-01-21T14:01:24Z</time>
      </trkpt>
      <trkpt lat="43.77248" lon="7.25493">
        <ele>804.419758</ele>
        <time>2012-01-21T14:01:50Z</time>
      </trkpt>
      <trkpt lat="43.77248" lon="7.25492">
        <ele>804.419758</ele>
        <time>2012-01-21T14:01:51Z</time>
      </trkpt>
      <trkpt lat="43.77245" lon="7.2548">
        <ele>808.419731</ele>
        <time>2012-01-21T14:02:06Z</time>
      </trkpt>
      <trkpt lat="43.77245" lon="7.25479">
        <ele>808.419724</ele>
        <time>2012-01-21T14:02:07Z</time>
      </trkpt>
      <trkpt lat="43.77242" lon="7.25467">
        <ele>815.419697</ele>
        <time>2012-01-21T14:02:23Z</time>
      </trkpt>
      <trkpt lat="43.77239" lon="7.25451">
        <ele>820.419655</ele>
        <time>2012-01-21T14:02:43Z</time>
      </trkpt>
      <trkpt lat="43.77239" lon="7.2545">
        <ele>820.419655</ele>
        <time>2012-01-21T14:02:44Z</time>
      </trkpt>
      <trkpt lat="43.77233" lon="7.25441">
        <ele>823.419628</ele>
        <time>2012-01-21T14:03:02Z</time>
      </trkpt>
      <trkpt lat="43.77232" lon="7.25441">
        <ele>823.419628</ele>
        <time>2012-01-21T14:03:03Z</time>
      </trkpt>
      <trkpt lat="43.77224" lon="7.25436">
        <ele>828.419601</ele>
        <time>2012-01-21T14:03:27Z</time>
      </trkpt>
      <trkpt lat="43.77238" lon="7.25428">
        <ele>830.419605</ele>
        <time>2012-01-21T14:10:46Z</time>
      </trkpt>
      <trkpt lat="43.77246" lon="7.25421">
        <ele>831.419601</ele>
        <time>2012-01-21T14:10:51Z</time>
      </trkpt>
      <trkpt lat="43.77259" lon="7.25401">
        <ele>830.419579</ele>
        <time>2012-01-21T14:10:58Z</time>
      </trkpt>
      <trkpt lat="43.7727" lon="7.25391">
        <ele>829.419571</ele>
        <time>2012-01-21T14:11:01Z</time>
      </trkpt>
      <trkpt lat="43.77276" lon="7.25387">
        <ele>829.419571</ele>
        <time>2012-01-21T14:11:04Z</time>
      </trkpt>
      <trkpt lat="43.77288" lon="7.25382">
        <ele>829.419579</ele>
        <time>2012-01-21T14:11:07Z</time>
      </trkpt>
      <trkpt lat="43.77299" lon="7.2538">
        <ele>830.419594</ele>
        <time>2012-01-21T14:11:10Z</time>
      </trkpt>
      <trkpt lat="43.7731" lon="7.25379">
        <ele>830.419601</ele>
        <time>2012-01-21T14:11:13Z</time>
      </trkpt>
      <trkpt lat="43.77319" lon="7.25378">
        <ele>830.419617</ele>
        <time>2012-01-21T14:11:16Z</time>
      </trkpt>
      <trkpt lat="43.77331" lon="7.2538">
        <ele>830.419632</ele>
        <time>2012-01-21T14:11:19Z</time>
      </trkpt>
      <trkpt lat="43.77339" lon="7.25379">
        <ele>830.41964</ele>
        <time>2012-01-21T14:11:21Z</time>
      </trkpt>
      <trkpt lat="43.77349" lon="7.25375">
        <ele>830.419651</ele>
        <time>2012-01-21T14:11:24Z</time>
      </trkpt>
      <trkpt lat="43.77359" lon="7.25372">
        <ele>830.419655</ele>
        <time>2012-01-21T14:11:27Z</time>
      </trkpt>
      <trkpt lat="43.77365" lon="7.25368">
        <ele>830.419655</ele>
        <time>2012-01-21T14:11:29Z</time>
      </trkpt>
      <trkpt lat="43.77374" lon="7.25364">
        <ele>830.419662</ele>
        <time>2012-01-21T14:11:32Z</time>
      </trkpt>
      <trkpt lat="43.77386" lon="7.25359">
        <ele>830.419662</ele>
        <time>2012-01-21T14:11:36Z</time>
      </trkpt>
      <trkpt lat="43.77395" lon="7.25356">
        <ele>830.41967</ele>
        <time>2012-01-21T14:11:39Z</time>
      </trkpt>
      <trkpt lat="43.77404" lon="7.25354">
        <ele>830.419678</ele>
        <time>2012-01-21T14:11:42Z</time>
      </trkpt>
      <trkpt lat="43.77413" lon="7.25355">
        <ele>831.419693</ele>
        <time>2012-01-21T14:11:45Z</time>
      </trkpt>
      <trkpt lat="43.77422" lon="7.25356">
        <ele>831.419708</ele>
        <time>2012-01-21T14:11:48Z</time>
      </trkpt>
      <trkpt lat="43.77432" lon="7.25357">
        <ele>831.419724</ele>
        <time>2012-01-21T14:11:51Z</time>
      </trkpt>
      <trkpt lat="43.77442" lon="7.25357">
        <ele>830.419735</ele>
        <time>2012-01-21T14:11:54Z</time>
      </trkpt>
      <trkpt lat="43.77451" lon="7.25353">
        <ele>830.419739</ele>
        <time>2012-01-21T14:11:57Z</time>
      </trkpt>
      <trkpt lat="43.7746" lon="7.25342">
        <ele>829.419727</ele>
        <time>2012-01-21T14:12:02Z</time>
      </trkpt>
      <trkpt lat="43.77471" lon="7.25335">
        <ele>829.419724</ele>
        <time>2012-01-21T14:12:05Z</time>
      </trkpt>
      <trkpt lat="43.77481" lon="7.25332">
        <ele>828.419739</ele>
        <time>2012-01-21T14:12:08Z</time>
      </trkpt>
      <trkpt lat="43.77491" lon="7.25329">
        <ele>826.419746</ele>
        <time>2012-01-21T14:12:11Z</time>
      </trkpt>
      <trkpt lat="43.77501" lon="7.25326">
        <ele>825.419754</ele>
        <time>2012-01-21T14:12:14Z</time>
      </trkpt>
      <trkpt lat="43.77511" lon="7.25322">
        <ele>824.419762</ele>
        <time>2012-01-21T14:12:17Z</time>
      </trkpt>
      <trkpt lat="43.77522" lon="7.25318">
        <ele>824.419765</ele>
        <time>2012-01-21T14:12:20Z</time>
      </trkpt>
      <trkpt lat="43.77525" lon="7.25316">
        <ele>823.419769</ele>
        <time>2012-01-21T14:12:21Z</time>
      </trkpt>
      <trkpt lat="43.77535" lon="7.25315">
        <ele>823.419777</ele>
        <time>2012-01-21T14:12:24Z</time>
      </trkpt>
      <trkpt lat="43.77546" lon="7.25311">
        <ele>823.419785</ele>
        <time>2012-01-21T14:12:27Z</time>
      </trkpt>
      <trkpt lat="43.77552" lon="7.25309">
        <ele>822.419788</ele>
        <time>2012-01-21T14:12:29Z</time>
      </trkpt>
      <trkpt lat="43.77563" lon="7.25306">
        <ele>821.419792</ele>
        <time>2012-01-21T14:12:32Z</time>
      </trkpt>
      <trkpt lat="43.77573" lon="7.253">
        <ele>820.4198</ele>
        <time>2012-01-21T14:12:36Z</time>
      </trkpt>
      <trkpt lat="43.77582" lon="7.25295">
        <ele>817.419796</ele>
        <time>2012-01-21T14:12:39Z</time>
      </trkpt>
      <trkpt lat="43.77591" lon="7.25288">
        <ele>815.4198</ele>
        <time>2012-01-21T14:12:42Z</time>
      </trkpt>
      <trkpt lat="43.77601" lon="7.25284">
        <ele>814.419796</ele>
        <time>2012-01-21T14:12:45Z</time>
      </trkpt>
      <trkpt lat="43.7761" lon="7.25248">
        <ele>807.419739</ele>
        <time>2012-01-21T14:12:56Z</time>
      </trkpt>
      <trkpt lat="43.77614" lon="7.25234">
        <ele>806.419712</ele>
        <time>2012-01-21T14:12:59Z</time>
      </trkpt>
      <trkpt lat="43.77616" lon="7.25219">
        <ele>805.419685</ele>
        <time>2012-01-21T14:13:02Z</time>
      </trkpt>
      <trkpt lat="43.77618" lon="7.25206">
        <ele>805.419662</ele>
        <time>2012-01-21T14:13:05Z</time>
      </trkpt>
      <trkpt lat="43.77618" lon="7.25187">
        <ele>802.419621</ele>
        <time>2012-01-21T14:13:10Z</time>
      </trkpt>
      <trkpt lat="43.7762" lon="7.25174">
        <ele>801.419594</ele>
        <time>2012-01-21T14:13:13Z</time>
      </trkpt>
      <trkpt lat="43.77632" lon="7.25135">
        <ele>792.419533</ele>
        <time>2012-01-21T14:13:33Z</time>
      </trkpt>
      <trkpt lat="43.77652" lon="7.25107">
        <ele>781.419498</ele>
        <time>2012-01-21T14:13:51Z</time>
      </trkpt>
      <trkpt lat="43.77675" lon="7.25073">
        <ele>776.419456</ele>
        <time>2012-01-21T14:14:06Z</time>
      </trkpt>
      <trkpt lat="43.77697" lon="7.25037">
        <ele>775.419411</ele>
        <time>2012-01-21T14:14:09Z</time>
      </trkpt>
      <trkpt lat="43.77712" lon="7.25017">
        <ele>773.419388</ele>
        <time>2012-01-21T14:14:11Z</time>
      </trkpt>
      <trkpt lat="43.77721" lon="7.25004">
        <ele>773.419373</ele>
        <time>2012-01-21T14:14:13Z</time>
      </trkpt>
      <trkpt lat="43.77738" lon="7.24995">
        <ele>771.419376</ele>
        <time>2012-01-21T14:14:19Z</time>
      </trkpt>
      <trkpt lat="43.77746" lon="7.24986">
        <ele>770.419369</ele>
        <time>2012-01-21T14:14:21Z</time>
      </trkpt>
      <trkpt lat="43.77753" lon="7.24977">
        <ele>768.419361</ele>
        <time>2012-01-21T14:14:23Z</time>
      </trkpt>
      <trkpt lat="43.77764" lon="7.24969">
        <ele>766.419357</ele>
        <time>2012-01-21T14:14:26Z</time>
      </trkpt>
      <trkpt lat="43.77791" lon="7.24944">
        <ele>751.419342</ele>
        <time>2012-01-21T14:14:51Z</time>
      </trkpt>
      <trkpt lat="43.7779" lon="7.24898">
        <ele>740.41925</ele>
        <time>2012-01-21T14:15:15Z</time>
      </trkpt>
      <trkpt lat="43.77769" lon="7.24872">
        <ele>739.419163</ele>
        <time>2012-01-21T14:15:21Z</time>
      </trkpt>
      <trkpt lat="43.77769" lon="7.24872">
        <ele>739.419163</ele>
        <time>2012-01-21T14:15:22Z</time>
      </trkpt>
      <trkpt lat="43.77753" lon="7.24863">
        <ele>734.419121</ele>
        <time>2012-01-21T14:15:26Z</time>
      </trkpt>
      <trkpt lat="43.77743" lon="7.24859">
        <ele>732.419098</ele>
        <time>2012-01-21T14:15:30Z</time>
      </trkpt>
      <trkpt lat="43.77735" lon="7.24859">
        <ele>729.41909</ele>
        <time>2012-01-21T14:15:33Z</time>
      </trkpt>
      <trkpt lat="43.77726" lon="7.24861">
        <ele>726.419083</ele>
        <time>2012-01-21T14:15:37Z</time>
      </trkpt>
      <trkpt lat="43.77714" lon="7.24863">
        <ele>723.419067</ele>
        <time>2012-01-21T14:15:41Z</time>
      </trkpt>
      <trkpt lat="43.77702" lon="7.24867">
        <ele>721.419056</ele>
        <time>2012-01-21T14:15:44Z</time>
      </trkpt>
      <trkpt lat="43.77689" lon="7.24871">
        <ele>718.419052</ele>
        <time>2012-01-21T14:15:47Z</time>
      </trkpt>
      <trkpt lat="43.7768" lon="7.24873">
        <ele>717.419041</ele>
        <time>2012-01-21T14:15:49Z</time>
      </trkpt>
      <trkpt lat="43.77671" lon="7.24873">
        <ele>715.419029</ele>
        <time>2012-01-21T14:15:51Z</time>
      </trkpt>
      <trkpt lat="43.77659" lon="7.24868">
        <ele>714.419006</ele>
        <time>2012-01-21T14:15:54Z</time>
      </trkpt>
      <trkpt lat="43.77649" lon="7.24864">
        <ele>712.418983</ele>
        <time>2012-01-21T14:15:57Z</time>
      </trkpt>
      <trkpt lat="43.77639" lon="7.24864">
        <ele>708.418968</ele>
        <time>2012-01-21T14:16:02Z</time>
      </trkpt>
      <trkpt lat="43.7763" lon="7.24868">
        <ele>707.418964</ele>
        <time>2012-01-21T14:16:07Z</time>
      </trkpt>
      <trkpt lat="43.77617" lon="7.24874">
        <ele>705.418961</ele>
        <time>2012-01-21T14:16:14Z</time>
      </trkpt>
      <trkpt lat="43.77607" lon="7.24876">
        <ele>703.418945</ele>
        <time>2012-01-21T14:16:19Z</time>
      </trkpt>
      <trkpt lat="43.77596" lon="7.24876">
        <ele>703.41893</ele>
        <time>2012-01-21T14:16:23Z</time>
      </trkpt>
      <trkpt lat="43.7759" lon="7.24876">
        <ele>702.418922</ele>
        <time>2012-01-21T14:16:25Z</time>
      </trkpt>
      <trkpt lat="43.7758" lon="7.24879">
        <ele>702.418915</ele>
        <time>2012-01-21T14:16:28Z</time>
      </trkpt>
      <trkpt lat="43.77569" lon="7.24882">
        <ele>701.418907</ele>
        <time>2012-01-21T14:16:31Z</time>
      </trkpt>
      <trkpt lat="43.77562" lon="7.24884">
        <ele>700.418903</ele>
        <time>2012-01-21T14:16:33Z</time>
      </trkpt>
      <trkpt lat="43.77552" lon="7.24887">
        <ele>699.418892</ele>
        <time>2012-01-21T14:16:36Z</time>
      </trkpt>
      <trkpt lat="43.77542" lon="7.2489">
        <ele>698.418892</ele>
        <time>2012-01-21T14:16:39Z</time>
      </trkpt>
      <trkpt lat="43.77536" lon="7.24892">
        <ele>698.418884</ele>
        <time>2012-01-21T14:16:41Z</time>
      </trkpt>
      <trkpt lat="43.77527" lon="7.24894">
        <ele>698.418877</ele>
        <time>2012-01-21T14:16:44Z</time>
      </trkpt>
      <trkpt lat="43.77517" lon="7.24897">
        <ele>698.418869</ele>
        <time>2012-01-21T14:16:47Z</time>
      </trkpt>
      <trkpt lat="43.77506" lon="7.249">
        <ele>698.418858</ele>
        <time>2012-01-21T14:16:50Z</time>
      </trkpt>
      <trkpt lat="43.77497" lon="7.24903">
        <ele>697.418854</ele>
        <time>2012-01-21T14:16:53Z</time>
      </trkpt>
      <trkpt lat="43.77488" lon="7.24905">
        <ele>698.418842</ele>
        <time>2012-01-21T14:16:56Z</time>
      </trkpt>
      <trkpt lat="43.77478" lon="7.24906">
        <ele>698.418839</ele>
        <time>2012-01-21T14:16:59Z</time>
      </trkpt>
      <trkpt lat="43.77468" lon="7.24907">
        <ele>699.418823</ele>
        <time>2012-01-21T14:17:03Z</time>
      </trkpt>
      <trkpt lat="43.77463" lon="7.24907">
        <ele>699.418816</ele>
        <time>2012-01-21T14:17:05Z</time>
      </trkpt>
      <trkpt lat="43.77453" lon="7.24908">
        <ele>699.418804</ele>
        <time>2012-01-21T14:17:09Z</time>
      </trkpt>
      <trkpt lat="43.77443" lon="7.24909">
        <ele>699.418793</ele>
        <time>2012-01-21T14:17:13Z</time>
      </trkpt>
      <trkpt lat="43.77433" lon="7.24908">
        <ele>699.418774</ele>
        <time>2012-01-21T14:17:18Z</time>
      </trkpt>
      <trkpt lat="43.77419" lon="7.2491">
        <ele>699.418762</ele>
        <time>2012-01-21T14:17:27Z</time>
      </trkpt>
      <trkpt lat="43.77411" lon="7.24916">
        <ele>699.418762</ele>
        <time>2012-01-21T14:17:34Z</time>
      </trkpt>
      <trkpt lat="43.77399" lon="7.24927">
        <ele>701.41877</ele>
        <time>2012-01-21T14:17:44Z</time>
      </trkpt>
      <trkpt lat="43.77389" lon="7.2493">
        <ele>703.418762</ele>
        <time>2012-01-21T14:17:49Z</time>
      </trkpt>
      <trkpt lat="43.77378" lon="7.24929">
        <ele>705.418739</ele>
        <time>2012-01-21T14:17:53Z</time>
      </trkpt>
      <trkpt lat="43.77372" lon="7.24929">
        <ele>706.418736</ele>
        <time>2012-01-21T14:17:55Z</time>
      </trkpt>
      <trkpt lat="43.77363" lon="7.2493">
        <ele>706.418724</ele>
        <time>2012-01-21T14:17:59Z</time>
      </trkpt>
      <trkpt lat="43.77352" lon="7.24935">
        <ele>706.418716</ele>
        <time>2012-01-21T14:18:04Z</time>
      </trkpt>
      <trkpt lat="43.77349" lon="7.24937">
        <ele>706.418724</ele>
        <time>2012-01-21T14:18:06Z</time>
      </trkpt>
      <trkpt lat="43.77339" lon="7.24943">
        <ele>706.418724</ele>
        <time>2012-01-21T14:18:12Z</time>
      </trkpt>
      <trkpt lat="43.77329" lon="7.24947">
        <ele>706.418716</ele>
        <time>2012-01-21T14:18:18Z</time>
      </trkpt>
      <trkpt lat="43.77325" lon="7.24946">
        <ele>706.418709</ele>
        <time>2012-01-21T14:18:20Z</time>
      </trkpt>
      <trkpt lat="43.77315" lon="7.24946">
        <ele>707.418697</ele>
        <time>2012-01-21T14:18:26Z</time>
      </trkpt>
      <trkpt lat="43.77305" lon="7.24947">
        <ele>707.418686</ele>
        <time>2012-01-21T14:18:31Z</time>
      </trkpt>
      <trkpt lat="43.77296" lon="7.24947">
        <ele>706.418671</ele>
        <time>2012-01-21T14:18:35Z</time>
      </trkpt>
      <trkpt lat="43.77287" lon="7.24948">
        <ele>705.418663</ele>
        <time>2012-01-21T14:18:39Z</time>
      </trkpt>
      <trkpt lat="43.77277" lon="7.24951">
        <ele>707.418648</ele>
        <time>2012-01-21T14:18:44Z</time>
      </trkpt>
      <trkpt lat="43.77266" lon="7.24954">
        <ele>707.418644</ele>
        <time>2012-01-21T14:18:49Z</time>
      </trkpt>
      <trkpt lat="43.77257" lon="7.24955">
        <ele>707.418633</ele>
        <time>2012-01-21T14:18:53Z</time>
      </trkpt>
      <trkpt lat="43.77246" lon="7.24957">
        <ele>707.418621</ele>
        <time>2012-01-21T14:18:57Z</time>
      </trkpt>
      <trkpt lat="43.77234" lon="7.2496">
        <ele>708.418613</ele>
        <time>2012-01-21T14:19:01Z</time>
      </trkpt>
      <trkpt lat="43.77223" lon="7.24962">
        <ele>708.418602</ele>
        <time>2012-01-21T14:19:05Z</time>
      </trkpt>
      <trkpt lat="43.77212" lon="7.24965">
        <ele>708.418587</ele>
        <time>2012-01-21T14:19:09Z</time>
      </trkpt>
      <trkpt lat="43.77202" lon="7.24967">
        <ele>709.418587</ele>
        <time>2012-01-21T14:19:13Z</time>
      </trkpt>
      <trkpt lat="43.77191" lon="7.24968">
        <ele>710.418571</ele>
        <time>2012-01-21T14:19:17Z</time>
      </trkpt>
      <trkpt lat="43.7718" lon="7.24968">
        <ele>709.418556</ele>
        <time>2012-01-21T14:19:20Z</time>
      </trkpt>
      <trkpt lat="43.77171" lon="7.24967">
        <ele>709.418541</ele>
        <time>2012-01-21T14:19:22Z</time>
      </trkpt>
      <trkpt lat="43.7716" lon="7.24967">
        <ele>709.418526</ele>
        <time>2012-01-21T14:19:24Z</time>
      </trkpt>
      <trkpt lat="43.77151" lon="7.24968">
        <ele>709.418514</ele>
        <time>2012-01-21T14:19:26Z</time>
      </trkpt>
      <trkpt lat="43.77141" lon="7.24969">
        <ele>710.418507</ele>
        <time>2012-01-21T14:19:28Z</time>
      </trkpt>
      <trkpt lat="43.77132" lon="7.2497">
        <ele>711.418488</ele>
        <time>2012-01-21T14:19:30Z</time>
      </trkpt>
      <trkpt lat="43.77122" lon="7.2497">
        <ele>710.41848</ele>
        <time>2012-01-21T14:19:32Z</time>
      </trkpt>
      <trkpt lat="43.77113" lon="7.2497">
        <ele>710.418465</ele>
        <time>2012-01-21T14:19:34Z</time>
      </trkpt>
      <trkpt lat="43.77103" lon="7.2497">
        <ele>709.418453</ele>
        <time>2012-01-21T14:19:36Z</time>
      </trkpt>
      <trkpt lat="43.77094" lon="7.2497">
        <ele>709.418442</ele>
        <time>2012-01-21T14:19:38Z</time>
      </trkpt>
      <trkpt lat="43.77084" lon="7.2497">
        <ele>708.418427</ele>
        <time>2012-01-21T14:19:40Z</time>
      </trkpt>
      <trkpt lat="43.77075" lon="7.24971">
        <ele>708.418411</ele>
        <time>2012-01-21T14:19:42Z</time>
      </trkpt>
      <trkpt lat="43.77062" lon="7.24969">
        <ele>709.418396</ele>
        <time>2012-01-21T14:19:45Z</time>
      </trkpt>
      <trkpt lat="43.7705" lon="7.24964">
        <ele>708.418369</ele>
        <time>2012-01-21T14:19:48Z</time>
      </trkpt>
      <trkpt lat="43.7704" lon="7.24956">
        <ele>708.418339</ele>
        <time>2012-01-21T14:19:51Z</time>
      </trkpt>
      <trkpt lat="43.7703" lon="7.24951">
        <ele>708.418312</ele>
        <time>2012-01-21T14:19:54Z</time>
      </trkpt>
      <trkpt lat="43.77021" lon="7.24947">
        <ele>708.418293</ele>
        <time>2012-01-21T14:19:57Z</time>
      </trkpt>
      <trkpt lat="43.77011" lon="7.24947">
        <ele>708.418282</ele>
        <time>2012-01-21T14:20:00Z</time>
      </trkpt>
      <trkpt lat="43.77001" lon="7.24952">
        <ele>707.418274</ele>
        <time>2012-01-21T14:20:04Z</time>
      </trkpt>
      <trkpt lat="43.76992" lon="7.24957">
        <ele>708.41827</ele>
        <time>2012-01-21T14:20:08Z</time>
      </trkpt>
      <trkpt lat="43.76982" lon="7.24962">
        <ele>709.418266</ele>
        <time>2012-01-21T14:20:12Z</time>
      </trkpt>
      <trkpt lat="43.76973" lon="7.24967">
        <ele>709.418266</ele>
        <time>2012-01-21T14:20:15Z</time>
      </trkpt>
      <trkpt lat="43.76963" lon="7.2497">
        <ele>709.418259</ele>
        <time>2012-01-21T14:20:18Z</time>
      </trkpt>
      <trkpt lat="43.76951" lon="7.24975">
        <ele>708.418259</ele>
        <time>2012-01-21T14:20:21Z</time>
      </trkpt>
      <trkpt lat="43.76948" lon="7.24976">
        <ele>708.418251</ele>
        <time>2012-01-21T14:20:22Z</time>
      </trkpt>
      <trkpt lat="43.76938" lon="7.2498">
        <ele>709.418251</ele>
        <time>2012-01-21T14:20:25Z</time>
      </trkpt>
      <trkpt lat="43.76934" lon="7.24982">
        <ele>709.418243</ele>
        <time>2012-01-21T14:20:26Z</time>
      </trkpt>
      <trkpt lat="43.76924" lon="7.24986">
        <ele>708.41824</ele>
        <time>2012-01-21T14:20:29Z</time>
      </trkpt>
      <trkpt lat="43.76914" lon="7.24992">
        <ele>706.418236</ele>
        <time>2012-01-21T14:20:32Z</time>
      </trkpt>
      <trkpt lat="43.7691" lon="7.24994">
        <ele>706.41824</ele>
        <time>2012-01-21T14:20:33Z</time>
      </trkpt>
      <trkpt lat="43.769" lon="7.25001">
        <ele>705.418236</ele>
        <time>2012-01-21T14:20:36Z</time>
      </trkpt>
      <trkpt lat="43.76892" lon="7.25005">
        <ele>705.418236</ele>
        <time>2012-01-21T14:20:38Z</time>
      </trkpt>
      <trkpt lat="43.7688" lon="7.25009">
        <ele>704.418224</ele>
        <time>2012-01-21T14:20:41Z</time>
      </trkpt>
      <trkpt lat="43.76876" lon="7.2501">
        <ele>703.418228</ele>
        <time>2012-01-21T14:20:42Z</time>
      </trkpt>
      <trkpt lat="43.76863" lon="7.25012">
        <ele>702.418213</ele>
        <time>2012-01-21T14:20:45Z</time>
      </trkpt>
      <trkpt lat="43.76854" lon="7.25012">
        <ele>701.418198</ele>
        <time>2012-01-21T14:20:47Z</time>
      </trkpt>
      <trkpt lat="43.76842" lon="7.25013">
        <ele>700.418182</ele>
        <time>2012-01-21T14:20:50Z</time>
      </trkpt>
      <trkpt lat="43.76832" lon="7.25019">
        <ele>699.418182</ele>
        <time>2012-01-21T14:20:55Z</time>
      </trkpt>
      <trkpt lat="43.76821" lon="7.25021">
        <ele>699.418175</ele>
        <time>2012-01-21T14:20:58Z</time>
      </trkpt>
      <trkpt lat="43.76812" lon="7.25021">
        <ele>700.418163</ele>
        <time>2012-01-21T14:21:00Z</time>
      </trkpt>
      <trkpt lat="43.76801" lon="7.25018">
        <ele>700.418137</ele>
        <time>2012-01-21T14:21:03Z</time>
      </trkpt>
      <trkpt lat="43.76797" lon="7.25017">
        <ele>700.418129</ele>
        <time>2012-01-21T14:21:06Z</time>
      </trkpt>
      <trkpt lat="43.76798" lon="7.25034">
        <ele>685.418167</ele>
        <time>2012-01-21T14:22:19Z</time>
      </trkpt>
      <trkpt lat="43.76806" lon="7.25028">
        <ele>669.418167</ele>
        <time>2012-01-21T14:23:20Z</time>
      </trkpt>
      <trkpt lat="43.76811" lon="7.25039">
        <ele>656.418198</ele>
        <time>2012-01-21T14:24:40Z</time>
      </trkpt>
      <trkpt lat="43.76804" lon="7.25029">
        <ele>670.418167</ele>
        <time>2012-01-21T14:26:06Z</time>
      </trkpt>
      <trkpt lat="43.76804" lon="7.25029">
        <ele>670.418167</ele>
        <time>2012-01-21T14:26:11Z</time>
      </trkpt>
      <trkpt lat="43.76794" lon="7.25021">
        <ele>678.418137</ele>
        <time>2012-01-21T14:26:32Z</time>
      </trkpt>
      <trkpt lat="43.76783" lon="7.2502">
        <ele>678.418118</ele>
        <time>2012-01-21T14:26:35Z</time>
      </trkpt>
      <trkpt lat="43.76773" lon="7.25023">
        <ele>678.418114</ele>
        <time>2012-01-21T14:26:38Z</time>
      </trkpt>
      <trkpt lat="43.76765" lon="7.25033">
        <ele>677.418121</ele>
        <time>2012-01-21T14:26:41Z</time>
      </trkpt>
      <trkpt lat="43.7676" lon="7.2505">
        <ele>676.418152</ele>
        <time>2012-01-21T14:26:44Z</time>
      </trkpt>
      <trkpt lat="43.76754" lon="7.25067">
        <ele>675.418179</ele>
        <time>2012-01-21T14:26:47Z</time>
      </trkpt>
      <trkpt lat="43.76748" lon="7.25076">
        <ele>675.418182</ele>
        <time>2012-01-21T14:26:49Z</time>
      </trkpt>
      <trkpt lat="43.76742" lon="7.25086">
        <ele>675.418205</ele>
        <time>2012-01-21T14:26:51Z</time>
      </trkpt>
      <trkpt lat="43.76736" lon="7.25096">
        <ele>673.418213</ele>
        <time>2012-01-21T14:26:53Z</time>
      </trkpt>
      <trkpt lat="43.76732" lon="7.25112">
        <ele>672.418243</ele>
        <time>2012-01-21T14:26:56Z</time>
      </trkpt>
      <trkpt lat="43.76727" lon="7.25126">
        <ele>670.418266</ele>
        <time>2012-01-21T14:26:59Z</time>
      </trkpt>
      <trkpt lat="43.76721" lon="7.25136">
        <ele>668.418282</ele>
        <time>2012-01-21T14:27:02Z</time>
      </trkpt>
      <trkpt lat="43.76714" lon="7.25146">
        <ele>667.418289</ele>
        <time>2012-01-21T14:27:05Z</time>
      </trkpt>
      <trkpt lat="43.76702" lon="7.25155">
        <ele>666.418293</ele>
        <time>2012-01-21T14:27:08Z</time>
      </trkpt>
      <trkpt lat="43.76693" lon="7.25162">
        <ele>665.418297</ele>
        <time>2012-01-21T14:27:10Z</time>
      </trkpt>
      <trkpt lat="43.76684" lon="7.25169">
        <ele>665.418297</ele>
        <time>2012-01-21T14:27:12Z</time>
      </trkpt>
      <trkpt lat="43.7668" lon="7.25172">
        <ele>664.418297</ele>
        <time>2012-01-21T14:27:13Z</time>
      </trkpt>
      <trkpt lat="43.7667" lon="7.25176">
        <ele>664.418293</ele>
        <time>2012-01-21T14:27:15Z</time>
      </trkpt>
      <trkpt lat="43.7666" lon="7.25181">
        <ele>663.418289</ele>
        <time>2012-01-21T14:27:17Z</time>
      </trkpt>
      <trkpt lat="43.7665" lon="7.25185">
        <ele>663.418289</ele>
        <time>2012-01-21T14:27:19Z</time>
      </trkpt>
      <trkpt lat="43.76641" lon="7.25196">
        <ele>663.418297</ele>
        <time>2012-01-21T14:27:22Z</time>
      </trkpt>
      <trkpt lat="43.76634" lon="7.25209">
        <ele>662.418312</ele>
        <time>2012-01-21T14:27:25Z</time>
      </trkpt>
      <trkpt lat="43.76632" lon="7.25222">
        <ele>661.418339</ele>
        <time>2012-01-21T14:27:28Z</time>
      </trkpt>
      <trkpt lat="43.76626" lon="7.25234">
        <ele>660.418358</ele>
        <time>2012-01-21T14:27:31Z</time>
      </trkpt>
      <trkpt lat="43.76619" lon="7.25247">
        <ele>659.418373</ele>
        <time>2012-01-21T14:27:34Z</time>
      </trkpt>
      <trkpt lat="43.7661" lon="7.25259">
        <ele>656.418385</ele>
        <time>2012-01-21T14:27:37Z</time>
      </trkpt>
      <trkpt lat="43.76602" lon="7.25265">
        <ele>654.418388</ele>
        <time>2012-01-21T14:27:39Z</time>
      </trkpt>
      <trkpt lat="43.76593" lon="7.25273">
        <ele>651.418396</ele>
        <time>2012-01-21T14:27:41Z</time>
      </trkpt>
      <trkpt lat="43.76584" lon="7.25283">
        <ele>650.418404</ele>
        <time>2012-01-21T14:27:43Z</time>
      </trkpt>
      <trkpt lat="43.76577" lon="7.25293">
        <ele>648.418411</ele>
        <time>2012-01-21T14:27:45Z</time>
      </trkpt>
      <trkpt lat="43.76572" lon="7.25308">
        <ele>647.418438</ele>
        <time>2012-01-21T14:27:48Z</time>
      </trkpt>
      <trkpt lat="43.76589" lon="7.25333">
        <ele>642.418514</ele>
        <time>2012-01-21T14:27:58Z</time>
      </trkpt>
      <trkpt lat="43.76604" lon="7.2534">
        <ele>641.418552</ele>
        <time>2012-01-21T14:28:01Z</time>
      </trkpt>
      <trkpt lat="43.76617" lon="7.25346">
        <ele>640.418579</ele>
        <time>2012-01-21T14:28:03Z</time>
      </trkpt>
      <trkpt lat="43.76626" lon="7.25351">
        <ele>638.418602</ele>
        <time>2012-01-21T14:28:05Z</time>
      </trkpt>
      <trkpt lat="43.76635" lon="7.25358">
        <ele>637.418633</ele>
        <time>2012-01-21T14:28:08Z</time>
      </trkpt>
      <trkpt lat="43.76642" lon="7.25368">
        <ele>636.418663</ele>
        <time>2012-01-21T14:28:12Z</time>
      </trkpt>
      <trkpt lat="43.76638" lon="7.25382">
        <ele>635.418686</ele>
        <time>2012-01-21T14:28:16Z</time>
      </trkpt>
      <trkpt lat="43.76629" lon="7.25398">
        <ele>610.418705</ele>
        <time>2012-01-21T14:29:21Z</time>
      </trkpt>
      <trkpt lat="43.76623" lon="7.25408">
        <ele>608.41872</ele>
        <time>2012-01-21T14:29:23Z</time>
      </trkpt>
      <trkpt lat="43.76614" lon="7.25421">
        <ele>605.418732</ele>
        <time>2012-01-21T14:29:26Z</time>
      </trkpt>
      <trkpt lat="43.76607" lon="7.2543">
        <ele>602.418743</ele>
        <time>2012-01-21T14:29:28Z</time>
      </trkpt>
      <trkpt lat="43.766" lon="7.25442">
        <ele>600.418755</ele>
        <time>2012-01-21T14:29:31Z</time>
      </trkpt>
      <trkpt lat="43.76595" lon="7.25455">
        <ele>597.418781</ele>
        <time>2012-01-21T14:29:34Z</time>
      </trkpt>
      <trkpt lat="43.7659" lon="7.25468">
        <ele>593.4188</ele>
        <time>2012-01-21T14:29:37Z</time>
      </trkpt>
      <trkpt lat="43.76587" lon="7.25484">
        <ele>591.418831</ele>
        <time>2012-01-21T14:29:40Z</time>
      </trkpt>
      <trkpt lat="43.76584" lon="7.25494">
        <ele>589.41885</ele>
        <time>2012-01-21T14:29:42Z</time>
      </trkpt>
      <trkpt lat="43.76579" lon="7.25506">
        <ele>588.418869</ele>
        <time>2012-01-21T14:29:45Z</time>
      </trkpt>
      <trkpt lat="43.76577" lon="7.2551">
        <ele>587.418873</ele>
        <time>2012-01-21T14:29:46Z</time>
      </trkpt>
      <trkpt lat="43.7657" lon="7.25523">
        <ele>586.418892</ele>
        <time>2012-01-21T14:29:50Z</time>
      </trkpt>
      <trkpt lat="43.76563" lon="7.25531">
        <ele>584.4189</ele>
        <time>2012-01-21T14:29:53Z</time>
      </trkpt>
      <trkpt lat="43.76555" lon="7.25541">
        <ele>582.418907</ele>
        <time>2012-01-21T14:29:56Z</time>
      </trkpt>
      <trkpt lat="43.76547" lon="7.25553">
        <ele>578.418922</ele>
        <time>2012-01-21T14:29:59Z</time>
      </trkpt>
      <trkpt lat="43.76539" lon="7.25562">
        <ele>575.41893</ele>
        <time>2012-01-21T14:30:02Z</time>
      </trkpt>
      <trkpt lat="43.76528" lon="7.25567">
        <ele>571.41893</ele>
        <time>2012-01-21T14:30:05Z</time>
      </trkpt>
      <trkpt lat="43.7652" lon="7.25576">
        <ele>569.418938</ele>
        <time>2012-01-21T14:30:08Z</time>
      </trkpt>
      <trkpt lat="43.76516" lon="7.25588">
        <ele>568.418953</ele>
        <time>2012-01-21T14:30:11Z</time>
      </trkpt>
      <trkpt lat="43.76509" lon="7.25599">
        <ele>566.418968</ele>
        <time>2012-01-21T14:30:15Z</time>
      </trkpt>
      <trkpt lat="43.76501" lon="7.25607">
        <ele>564.418976</ele>
        <time>2012-01-21T14:30:19Z</time>
      </trkpt>
      <trkpt lat="43.76493" lon="7.25616">
        <ele>561.418983</ele>
        <time>2012-01-21T14:30:23Z</time>
      </trkpt>
      <trkpt lat="43.76485" lon="7.25624">
        <ele>560.418987</ele>
        <time>2012-01-21T14:30:26Z</time>
      </trkpt>
      <trkpt lat="43.76475" lon="7.25637">
        <ele>557.418999</ele>
        <time>2012-01-21T14:30:29Z</time>
      </trkpt>
      <trkpt lat="43.76467" lon="7.25648">
        <ele>556.419014</ele>
        <time>2012-01-21T14:30:32Z</time>
      </trkpt>
      <trkpt lat="43.76461" lon="7.2566">
        <ele>553.419029</ele>
        <time>2012-01-21T14:30:35Z</time>
      </trkpt>
      <trkpt lat="43.7647" lon="7.257">
        <ele>542.419128</ele>
        <time>2012-01-21T14:31:28Z</time>
      </trkpt>
      <trkpt lat="43.76479" lon="7.25713">
        <ele>543.419167</ele>
        <time>2012-01-21T14:31:32Z</time>
      </trkpt>
      <trkpt lat="43.76482" lon="7.25717">
        <ele>543.419182</ele>
        <time>2012-01-21T14:31:33Z</time>
      </trkpt>
      <trkpt lat="43.7649" lon="7.2573">
        <ele>543.41922</ele>
        <time>2012-01-21T14:31:36Z</time>
      </trkpt>
      <trkpt lat="43.76497" lon="7.25742">
        <ele>543.419254</ele>
        <time>2012-01-21T14:31:39Z</time>
      </trkpt>
      <trkpt lat="43.76503" lon="7.25752">
        <ele>542.419281</ele>
        <time>2012-01-21T14:31:42Z</time>
      </trkpt>
      <trkpt lat="43.76507" lon="7.25766">
        <ele>540.419319</ele>
        <time>2012-01-21T14:31:46Z</time>
      </trkpt>
      <trkpt lat="43.76512" lon="7.25778">
        <ele>535.419353</ele>
        <time>2012-01-21T14:31:51Z</time>
      </trkpt>
      <trkpt lat="43.76512" lon="7.25785">
        <ele>532.419365</ele>
        <time>2012-01-21T14:31:56Z</time>
      </trkpt>
      <trkpt lat="43.76513" lon="7.25799">
        <ele>527.419395</ele>
        <time>2012-01-21T14:32:02Z</time>
      </trkpt>
      <trkpt lat="43.76518" lon="7.25811">
        <ele>523.419426</ele>
        <time>2012-01-21T14:32:07Z</time>
      </trkpt>
      <trkpt lat="43.76523" lon="7.25822">
        <ele>522.41946</ele>
        <time>2012-01-21T14:32:11Z</time>
      </trkpt>
      <trkpt lat="43.7653" lon="7.25835">
        <ele>521.419495</ele>
        <time>2012-01-21T14:32:15Z</time>
      </trkpt>
      <trkpt lat="43.76537" lon="7.25845">
        <ele>521.419529</ele>
        <time>2012-01-21T14:32:18Z</time>
      </trkpt>
      <trkpt lat="43.76544" lon="7.25854">
        <ele>521.419556</ele>
        <time>2012-01-21T14:32:21Z</time>
      </trkpt>
      <trkpt lat="43.7655" lon="7.25866">
        <ele>522.41959</ele>
        <time>2012-01-21T14:32:25Z</time>
      </trkpt>
      <trkpt lat="43.76557" lon="7.25879">
        <ele>523.419628</ele>
        <time>2012-01-21T14:32:29Z</time>
      </trkpt>
      <trkpt lat="43.76563" lon="7.25891">
        <ele>522.419659</ele>
        <time>2012-01-21T14:32:33Z</time>
      </trkpt>
      <trkpt lat="43.76572" lon="7.25903">
        <ele>521.419701</ele>
        <time>2012-01-21T14:32:37Z</time>
      </trkpt>
      <trkpt lat="43.76579" lon="7.25915">
        <ele>521.419731</ele>
        <time>2012-01-21T14:32:40Z</time>
      </trkpt>
      <trkpt lat="43.76586" lon="7.25925">
        <ele>521.419762</ele>
        <time>2012-01-21T14:32:43Z</time>
      </trkpt>
      <trkpt lat="43.76593" lon="7.25938">
        <ele>520.4198</ele>
        <time>2012-01-21T14:32:47Z</time>
      </trkpt>
      <trkpt lat="43.76601" lon="7.25957">
        <ele>519.419853</ele>
        <time>2012-01-21T14:32:56Z</time>
      </trkpt>
      <trkpt lat="43.76602" lon="7.25971">
        <ele>521.419884</ele>
        <time>2012-01-21T14:33:02Z</time>
      </trkpt>
      <trkpt lat="43.76604" lon="7.25984">
        <ele>522.419914</ele>
        <time>2012-01-21T14:33:08Z</time>
      </trkpt>
      <trkpt lat="43.76607" lon="7.25998">
        <ele>522.419945</ele>
        <time>2012-01-21T14:33:14Z</time>
      </trkpt>
      <trkpt lat="43.76611" lon="7.26009">
        <ele>522.419975</ele>
        <time>2012-01-21T14:33:20Z</time>
      </trkpt>
      <trkpt lat="43.7662" lon="7.26019">
        <ele>522.42001</ele>
        <time>2012-01-21T14:33:28Z</time>
      </trkpt>
      <trkpt lat="43.76623" lon="7.26021">
        <ele>522.420017</ele>
        <time>2012-01-21T14:33:30Z</time>
      </trkpt>
      <trkpt lat="43.76634" lon="7.26022">
        <ele>523.420036</ele>
        <time>2012-01-21T14:33:37Z</time>
      </trkpt>
      <trkpt lat="43.76636" lon="7.26022">
        <ele>524.420036</ele>
        <time>2012-01-21T14:33:40Z</time>
      </trkpt>
      <trkpt lat="43.76645" lon="7.26022">
        <ele>526.420052</ele>
        <time>2012-01-21T14:33:44Z</time>
      </trkpt>
      <trkpt lat="43.76655" lon="7.26023">
        <ele>528.420067</ele>
        <time>2012-01-21T14:33:51Z</time>
      </trkpt>
      <trkpt lat="43.76665" lon="7.26018">
        <ele>532.420067</ele>
        <time>2012-01-21T14:34:42Z</time>
      </trkpt>
      <trkpt lat="43.76671" lon="7.26029">
        <ele>533.420097</ele>
        <time>2012-01-21T14:34:46Z</time>
      </trkpt>
      <trkpt lat="43.76676" lon="7.26039">
        <ele>533.420128</ele>
        <time>2012-01-21T14:34:50Z</time>
      </trkpt>
      <trkpt lat="43.76683" lon="7.2605">
        <ele>532.420158</ele>
        <time>2012-01-21T14:34:55Z</time>
      </trkpt>
      <trkpt lat="43.76689" lon="7.26058">
        <ele>531.420189</ele>
        <time>2012-01-21T14:35:00Z</time>
      </trkpt>
      <trkpt lat="43.76697" lon="7.26066">
        <ele>531.420216</ele>
        <time>2012-01-21T14:35:05Z</time>
      </trkpt>
      <trkpt lat="43.76705" lon="7.26073">
        <ele>532.420242</ele>
        <time>2012-01-21T14:35:10Z</time>
      </trkpt>
      <trkpt lat="43.7671" lon="7.26077">
        <ele>533.420258</ele>
        <time>2012-01-21T14:35:13Z</time>
      </trkpt>
      <trkpt lat="43.76719" lon="7.26082">
        <ele>535.420277</ele>
        <time>2012-01-21T14:35:18Z</time>
      </trkpt>
      <trkpt lat="43.76728" lon="7.26088">
        <ele>536.420303</ele>
        <time>2012-01-21T14:35:23Z</time>
      </trkpt>
      <trkpt lat="43.76738" lon="7.26093">
        <ele>539.420326</ele>
        <time>2012-01-21T14:35:28Z</time>
      </trkpt>
      <trkpt lat="43.76746" lon="7.261">
        <ele>541.420357</ele>
        <time>2012-01-21T14:35:33Z</time>
      </trkpt>
      <trkpt lat="43.76753" lon="7.26109">
        <ele>543.42038</ele>
        <time>2012-01-21T14:35:38Z</time>
      </trkpt>
      <trkpt lat="43.76761" lon="7.26117">
        <ele>545.42041</ele>
        <time>2012-01-21T14:35:43Z</time>
      </trkpt>
      <trkpt lat="43.76768" lon="7.26126">
        <ele>546.420441</ele>
        <time>2012-01-21T14:35:48Z</time>
      </trkpt>
      <trkpt lat="43.76776" lon="7.26135">
        <ele>546.420471</ele>
        <time>2012-01-21T14:35:53Z</time>
      </trkpt>
      <trkpt lat="43.76784" lon="7.26142">
        <ele>547.420498</ele>
        <time>2012-01-21T14:35:58Z</time>
      </trkpt>
      <trkpt lat="43.76792" lon="7.26149">
        <ele>548.420517</ele>
        <time>2012-01-21T14:36:03Z</time>
      </trkpt>
      <trkpt lat="43.768" lon="7.26156">
        <ele>549.420547</ele>
        <time>2012-01-21T14:36:08Z</time>
      </trkpt>
      <trkpt lat="43.76809" lon="7.26163">
        <ele>551.420574</ele>
        <time>2012-01-21T14:36:13Z</time>
      </trkpt>
      <trkpt lat="43.76817" lon="7.2617">
        <ele>553.420601</ele>
        <time>2012-01-21T14:36:18Z</time>
      </trkpt>
      <trkpt lat="43.76825" lon="7.26177">
        <ele>554.420628</ele>
        <time>2012-01-21T14:36:23Z</time>
      </trkpt>
      <trkpt lat="43.76834" lon="7.26186">
        <ele>556.420654</ele>
        <time>2012-01-21T14:36:28Z</time>
      </trkpt>
      <trkpt lat="43.76841" lon="7.26195">
        <ele>557.420685</ele>
        <time>2012-01-21T14:36:33Z</time>
      </trkpt>
      <trkpt lat="43.76847" lon="7.26206">
        <ele>559.420715</ele>
        <time>2012-01-21T14:36:38Z</time>
      </trkpt>
      <trkpt lat="43.7685" lon="7.2622">
        <ele>560.420753</ele>
        <time>2012-01-21T14:36:43Z</time>
      </trkpt>
      <trkpt lat="43.76847" lon="7.26235">
        <ele>560.420776</ele>
        <time>2012-01-21T14:36:48Z</time>
      </trkpt>
      <trkpt lat="43.76841" lon="7.26246">
        <ele>557.420792</ele>
        <time>2012-01-21T14:36:53Z</time>
      </trkpt>
      <trkpt lat="43.76838" lon="7.2625">
        <ele>556.420795</ele>
        <time>2012-01-21T14:36:55Z</time>
      </trkpt>
      <trkpt lat="43.7683" lon="7.26259">
        <ele>553.420807</ele>
        <time>2012-01-21T14:37:00Z</time>
      </trkpt>
      <trkpt lat="43.76823" lon="7.26266">
        <ele>551.420815</ele>
        <time>2012-01-21T14:37:05Z</time>
      </trkpt>
      <trkpt lat="43.76817" lon="7.26275">
        <ele>552.420818</ele>
        <time>2012-01-21T14:37:10Z</time>
      </trkpt>
      <trkpt lat="43.7681" lon="7.26287">
        <ele>553.420837</ele>
        <time>2012-01-21T14:37:16Z</time>
      </trkpt>
      <trkpt lat="43.76806" lon="7.26298">
        <ele>554.420853</ele>
        <time>2012-01-21T14:37:21Z</time>
      </trkpt>
      <trkpt lat="43.76801" lon="7.2631">
        <ele>555.420868</ele>
        <time>2012-01-21T14:37:26Z</time>
      </trkpt>
      <trkpt lat="43.76798" lon="7.26321">
        <ele>557.420895</ele>
        <time>2012-01-21T14:37:31Z</time>
      </trkpt>
      <trkpt lat="43.76794" lon="7.26334">
        <ele>559.420914</ele>
        <time>2012-01-21T14:37:36Z</time>
      </trkpt>
      <trkpt lat="43.7679" lon="7.26348">
        <ele>559.420937</ele>
        <time>2012-01-21T14:37:41Z</time>
      </trkpt>
      <trkpt lat="43.76787" lon="7.26362">
        <ele>560.420963</ele>
        <time>2012-01-21T14:37:46Z</time>
      </trkpt>
      <trkpt lat="43.76781" lon="7.26374">
        <ele>561.420982</ele>
        <time>2012-01-21T14:37:51Z</time>
      </trkpt>
      <trkpt lat="43.76775" lon="7.26386">
        <ele>562.420998</ele>
        <time>2012-01-21T14:37:56Z</time>
      </trkpt>
      <trkpt lat="43.76767" lon="7.26397">
        <ele>564.421009</ele>
        <time>2012-01-21T14:38:01Z</time>
      </trkpt>
      <trkpt lat="43.7676" lon="7.26408">
        <ele>564.421024</ele>
        <time>2012-01-21T14:38:06Z</time>
      </trkpt>
      <trkpt lat="43.76753" lon="7.26419">
        <ele>565.42104</ele>
        <time>2012-01-21T14:38:11Z</time>
      </trkpt>
      <trkpt lat="43.76746" lon="7.26429">
        <ele>567.421047</ele>
        <time>2012-01-21T14:38:16Z</time>
      </trkpt>
      <trkpt lat="43.76739" lon="7.26439">
        <ele>568.421062</ele>
        <time>2012-01-21T14:38:21Z</time>
      </trkpt>
      <trkpt lat="43.76733" lon="7.26448">
        <ele>569.421074</ele>
        <time>2012-01-21T14:38:26Z</time>
      </trkpt>
      <trkpt lat="43.7673" lon="7.2647">
        <ele>572.421112</ele>
        <time>2012-01-21T14:38:36Z</time>
      </trkpt>
      <trkpt lat="43.7674" lon="7.26473">
        <ele>573.421135</ele>
        <time>2012-01-21T14:38:41Z</time>
      </trkpt>
      <trkpt lat="43.7675" lon="7.26471">
        <ele>574.421143</ele>
        <time>2012-01-21T14:38:45Z</time>
      </trkpt>
      <trkpt lat="43.76758" lon="7.26467">
        <ele>575.421146</ele>
        <time>2012-01-21T14:38:49Z</time>
      </trkpt>
      <trkpt lat="43.76766" lon="7.26459">
        <ele>576.421143</ele>
        <time>2012-01-21T14:38:53Z</time>
      </trkpt>
      <trkpt lat="43.76774" lon="7.26448">
        <ele>577.421127</ele>
        <time>2012-01-21T14:38:58Z</time>
      </trkpt>
      <trkpt lat="43.76781" lon="7.2644">
        <ele>578.42112</ele>
        <time>2012-01-21T14:39:02Z</time>
      </trkpt>
      <trkpt lat="43.76791" lon="7.26432">
        <ele>579.42112</ele>
        <time>2012-01-21T14:39:07Z</time>
      </trkpt>
      <trkpt lat="43.76801" lon="7.26429">
        <ele>580.421124</ele>
        <time>2012-01-21T14:39:12Z</time>
      </trkpt>
      <trkpt lat="43.76811" lon="7.26425">
        <ele>581.421127</ele>
        <time>2012-01-21T14:39:17Z</time>
      </trkpt>
      <trkpt lat="43.76818" lon="7.26417">
        <ele>581.42112</ele>
        <time>2012-01-21T14:39:21Z</time>
      </trkpt>
      <trkpt lat="43.76818" lon="7.26405">
        <ele>582.421101</ele>
        <time>2012-01-21T14:39:22Z</time>
      </trkpt>
      <trkpt lat="43.76822" lon="7.2638">
        <ele>585.421051</ele>
        <time>2012-01-21T14:39:30Z</time>
      </trkpt>
      <trkpt lat="43.76828" lon="7.26368">
        <ele>587.421036</ele>
        <time>2012-01-21T14:39:34Z</time>
      </trkpt>
      <trkpt lat="43.76833" lon="7.26358">
        <ele>589.421021</ele>
        <time>2012-01-21T14:39:39Z</time>
      </trkpt>
      <trkpt lat="43.76835" lon="7.26355">
        <ele>590.421013</ele>
        <time>2012-01-21T14:39:40Z</time>
      </trkpt>
      <trkpt lat="43.76842" lon="7.26346">
        <ele>591.421009</ele>
        <time>2012-01-21T14:39:44Z</time>
      </trkpt>
      <trkpt lat="43.76851" lon="7.26335">
        <ele>593.420998</ele>
        <time>2012-01-21T14:39:49Z</time>
      </trkpt>
      <trkpt lat="43.76859" lon="7.26327">
        <ele>593.42099</ele>
        <time>2012-01-21T14:39:53Z</time>
      </trkpt>
      <trkpt lat="43.7687" lon="7.26314">
        <ele>595.420975</ele>
        <time>2012-01-21T14:40:00Z</time>
      </trkpt>
      <trkpt lat="43.76878" lon="7.26306">
        <ele>596.420967</ele>
        <time>2012-01-21T14:40:08Z</time>
      </trkpt>
      <trkpt lat="43.76887" lon="7.26295">
        <ele>597.420959</ele>
        <time>2012-01-21T14:40:21Z</time>
      </trkpt>
      <trkpt lat="43.76894" lon="7.26283">
        <ele>599.420944</ele>
        <time>2012-01-21T14:40:27Z</time>
      </trkpt>
      <trkpt lat="43.76901" lon="7.26271">
        <ele>600.420929</ele>
        <time>2012-01-21T14:40:32Z</time>
      </trkpt>
      <trkpt lat="43.76908" lon="7.26261">
        <ele>600.420918</ele>
        <time>2012-01-21T14:40:37Z</time>
      </trkpt>
      <trkpt lat="43.76914" lon="7.26251">
        <ele>601.420898</ele>
        <time>2012-01-21T14:40:42Z</time>
      </trkpt>
      <trkpt lat="43.76921" lon="7.26241">
        <ele>602.420891</ele>
        <time>2012-01-21T14:40:47Z</time>
      </trkpt>
      <trkpt lat="43.76929" lon="7.26225">
        <ele>604.420868</ele>
        <time>2012-01-21T14:40:55Z</time>
      </trkpt>
      <trkpt lat="43.76931" lon="7.26219">
        <ele>604.420856</ele>
        <time>2012-01-21T14:40:58Z</time>
      </trkpt>
      <trkpt lat="43.76937" lon="7.26207">
        <ele>607.420845</ele>
        <time>2012-01-21T14:41:03Z</time>
      </trkpt>
      <trkpt lat="43.76937" lon="7.26207">
        <ele>607.420845</ele>
        <time>2012-01-21T14:41:05Z</time>
      </trkpt>
      <trkpt lat="43.76949" lon="7.26169">
        <ele>608.420776</ele>
        <time>2012-01-21T14:41:39Z</time>
      </trkpt>
      <trkpt lat="43.76954" lon="7.26207">
        <ele>610.420868</ele>
        <time>2012-01-21T14:42:05Z</time>
      </trkpt>
      <trkpt lat="43.7695" lon="7.26232">
        <ele>610.420914</ele>
        <time>2012-01-21T14:42:13Z</time>
      </trkpt>
      <trkpt lat="43.7694" lon="7.26273">
        <ele>610.420986</ele>
        <time>2012-01-21T14:42:24Z</time>
      </trkpt>
      <trkpt lat="43.76936" lon="7.2629">
        <ele>610.421017</ele>
        <time>2012-01-21T14:42:29Z</time>
      </trkpt>
      <trkpt lat="43.76934" lon="7.26302">
        <ele>610.421036</ele>
        <time>2012-01-21T14:42:33Z</time>
      </trkpt>
      <trkpt lat="43.7693" lon="7.26317">
        <ele>610.421066</ele>
        <time>2012-01-21T14:42:38Z</time>
      </trkpt>
      <trkpt lat="43.76925" lon="7.26331">
        <ele>611.421085</ele>
        <time>2012-01-21T14:42:44Z</time>
      </trkpt>
      <trkpt lat="43.76921" lon="7.26342">
        <ele>610.421104</ele>
        <time>2012-01-21T14:42:49Z</time>
      </trkpt>
      <trkpt lat="43.76915" lon="7.26355">
        <ele>610.421124</ele>
        <time>2012-01-21T14:42:54Z</time>
      </trkpt>
      <trkpt lat="43.76911" lon="7.26366">
        <ele>611.421143</ele>
        <time>2012-01-21T14:42:58Z</time>
      </trkpt>
      <trkpt lat="43.76905" lon="7.2638">
        <ele>612.421165</ele>
        <time>2012-01-21T14:43:03Z</time>
      </trkpt>
      <trkpt lat="43.769" lon="7.26391">
        <ele>614.421181</ele>
        <time>2012-01-21T14:43:07Z</time>
      </trkpt>
      <trkpt lat="43.76896" lon="7.26403">
        <ele>616.4212</ele>
        <time>2012-01-21T14:43:11Z</time>
      </trkpt>
      <trkpt lat="43.76892" lon="7.26414">
        <ele>618.421219</ele>
        <time>2012-01-21T14:43:15Z</time>
      </trkpt>
      <trkpt lat="43.76888" lon="7.26426">
        <ele>619.421238</ele>
        <time>2012-01-21T14:43:19Z</time>
      </trkpt>
      <trkpt lat="43.76884" lon="7.26438">
        <ele>620.421257</ele>
        <time>2012-01-21T14:43:23Z</time>
      </trkpt>
      <trkpt lat="43.76881" lon="7.26449">
        <ele>621.421272</ele>
        <time>2012-01-21T14:43:27Z</time>
      </trkpt>
      <trkpt lat="43.76876" lon="7.26463">
        <ele>621.421299</ele>
        <time>2012-01-21T14:43:32Z</time>
      </trkpt>
      <trkpt lat="43.76872" lon="7.26477">
        <ele>620.421322</ele>
        <time>2012-01-21T14:43:37Z</time>
      </trkpt>
      <trkpt lat="43.76861" lon="7.26514">
        <ele>622.421387</ele>
        <time>2012-01-21T14:43:54Z</time>
      </trkpt>
      <trkpt lat="43.76858" lon="7.26526">
        <ele>622.42141</ele>
        <time>2012-01-21T14:43:58Z</time>
      </trkpt>
      <trkpt lat="43.76855" lon="7.2654">
        <ele>624.421432</ele>
        <time>2012-01-21T14:44:02Z</time>
      </trkpt>
      <trkpt lat="43.76854" lon="7.26552">
        <ele>625.421455</ele>
        <time>2012-01-21T14:44:06Z</time>
      </trkpt>
      <trkpt lat="43.76853" lon="7.26565">
        <ele>626.421482</ele>
        <time>2012-01-21T14:44:10Z</time>
      </trkpt>
      <trkpt lat="43.76854" lon="7.2658">
        <ele>626.421516</ele>
        <time>2012-01-21T14:44:14Z</time>
      </trkpt>
      <trkpt lat="43.76854" lon="7.26594">
        <ele>627.421551</ele>
        <time>2012-01-21T14:44:18Z</time>
      </trkpt>
      <trkpt lat="43.76853" lon="7.26607">
        <ele>627.421574</ele>
        <time>2012-01-21T14:44:23Z</time>
      </trkpt>
      <trkpt lat="43.7685" lon="7.26595">
        <ele>633.421543</ele>
        <time>2012-01-21T14:45:43Z</time>
      </trkpt>
      <trkpt lat="43.76839" lon="7.26597">
        <ele>637.421532</ele>
        <time>2012-01-21T14:45:50Z</time>
      </trkpt>
      <trkpt lat="43.76828" lon="7.266">
        <ele>638.421524</ele>
        <time>2012-01-21T14:45:54Z</time>
      </trkpt>
      <trkpt lat="43.76817" lon="7.26603">
        <ele>638.421516</ele>
        <time>2012-01-21T14:45:58Z</time>
      </trkpt>
      <trkpt lat="43.76808" lon="7.26608">
        <ele>638.421516</ele>
        <time>2012-01-21T14:46:03Z</time>
      </trkpt>
      <trkpt lat="43.76797" lon="7.26615">
        <ele>635.421516</ele>
        <time>2012-01-21T14:46:11Z</time>
      </trkpt>
      <trkpt lat="43.7679" lon="7.26626">
        <ele>633.421524</ele>
        <time>2012-01-21T14:46:16Z</time>
      </trkpt>
      <trkpt lat="43.76787" lon="7.26632">
        <ele>633.421532</ele>
        <time>2012-01-21T14:46:18Z</time>
      </trkpt>
      <trkpt lat="43.76777" lon="7.26644">
        <ele>633.421543</ele>
        <time>2012-01-21T14:46:25Z</time>
      </trkpt>
      <trkpt lat="43.76762" lon="7.26647">
        <ele>628.421532</ele>
        <time>2012-01-21T14:46:39Z</time>
      </trkpt>
      <trkpt lat="43.76757" lon="7.26653">
        <ele>628.421535</ele>
        <time>2012-01-21T14:46:44Z</time>
      </trkpt>
      <trkpt lat="43.76749" lon="7.26659">
        <ele>626.421543</ele>
        <time>2012-01-21T14:46:46Z</time>
      </trkpt>
      <trkpt lat="43.7674" lon="7.26662">
        <ele>625.421532</ele>
        <time>2012-01-21T14:46:50Z</time>
      </trkpt>
      <trkpt lat="43.76731" lon="7.26671">
        <ele>624.421539</ele>
        <time>2012-01-21T14:46:54Z</time>
      </trkpt>
      <trkpt lat="43.76721" lon="7.26674">
        <ele>623.421535</ele>
        <time>2012-01-21T14:46:58Z</time>
      </trkpt>
      <trkpt lat="43.76711" lon="7.26675">
        <ele>620.421524</ele>
        <time>2012-01-21T14:47:03Z</time>
      </trkpt>
      <trkpt lat="43.76703" lon="7.26683">
        <ele>615.421532</ele>
        <time>2012-01-21T14:47:08Z</time>
      </trkpt>
      <trkpt lat="43.76697" lon="7.26682">
        <ele>608.42152</ele>
        <time>2012-01-21T14:47:14Z</time>
      </trkpt>
      <trkpt lat="43.76684" lon="7.26686">
        <ele>597.421509</ele>
        <time>2012-01-21T14:48:00Z</time>
      </trkpt>
      <trkpt lat="43.76681" lon="7.26702">
        <ele>596.421539</ele>
        <time>2012-01-21T14:48:04Z</time>
      </trkpt>
      <trkpt lat="43.76677" lon="7.26717">
        <ele>595.421566</ele>
        <time>2012-01-21T14:48:08Z</time>
      </trkpt>
      <trkpt lat="43.76675" lon="7.26729">
        <ele>594.421585</ele>
        <time>2012-01-21T14:48:14Z</time>
      </trkpt>
      <trkpt lat="43.76675" lon="7.26729">
        <ele>594.421585</ele>
        <time>2012-01-21T14:48:15Z</time>
      </trkpt>
      <trkpt lat="43.76665" lon="7.26724">
        <ele>592.421566</ele>
        <time>2012-01-21T14:48:24Z</time>
      </trkpt>
      <trkpt lat="43.76657" lon="7.26711">
        <ele>590.421524</ele>
        <time>2012-01-21T14:48:29Z</time>
      </trkpt>
      <trkpt lat="43.76647" lon="7.26704">
        <ele>588.421494</ele>
        <time>2012-01-21T14:48:33Z</time>
      </trkpt>
      <trkpt lat="43.76637" lon="7.26703">
        <ele>585.421478</ele>
        <time>2012-01-21T14:48:37Z</time>
      </trkpt>
      <trkpt lat="43.76629" lon="7.26699">
        <ele>584.421455</ele>
        <time>2012-01-21T14:48:41Z</time>
      </trkpt>
      <trkpt lat="43.76622" lon="7.26686">
        <ele>580.421425</ele>
        <time>2012-01-21T14:48:50Z</time>
      </trkpt>
      <trkpt lat="43.76615" lon="7.26646">
        <ele>575.421333</ele>
        <time>2012-01-21T14:49:03Z</time>
      </trkpt>
      <trkpt lat="43.76612" lon="7.26631">
        <ele>574.421295</ele>
        <time>2012-01-21T14:49:06Z</time>
      </trkpt>
      <trkpt lat="43.76609" lon="7.26617">
        <ele>571.421257</ele>
        <time>2012-01-21T14:49:09Z</time>
      </trkpt>
      <trkpt lat="43.76607" lon="7.26609">
        <ele>570.421238</ele>
        <time>2012-01-21T14:49:11Z</time>
      </trkpt>
      <trkpt lat="43.76595" lon="7.26595">
        <ele>565.421196</ele>
        <time>2012-01-21T14:49:17Z</time>
      </trkpt>
      <trkpt lat="43.76584" lon="7.26595">
        <ele>562.421181</ele>
        <time>2012-01-21T14:49:21Z</time>
      </trkpt>
      <trkpt lat="43.76578" lon="7.26595">
        <ele>559.421173</ele>
        <time>2012-01-21T14:49:24Z</time>
      </trkpt>
      <trkpt lat="43.76567" lon="7.26596">
        <ele>555.421158</ele>
        <time>2012-01-21T14:49:29Z</time>
      </trkpt>
      <trkpt lat="43.76563" lon="7.26596">
        <ele>554.421154</ele>
        <time>2012-01-21T14:49:31Z</time>
      </trkpt>
      <trkpt lat="43.76553" lon="7.26599">
        <ele>550.421146</ele>
        <time>2012-01-21T14:49:36Z</time>
      </trkpt>
      <trkpt lat="43.76545" lon="7.26605">
        <ele>544.421146</ele>
        <time>2012-01-21T14:49:40Z</time>
      </trkpt>
      <trkpt lat="43.76542" lon="7.26609">
        <ele>541.421158</ele>
        <time>2012-01-21T14:49:42Z</time>
      </trkpt>
      <trkpt lat="43.7655" lon="7.2662">
        <ele>526.421185</ele>
        <time>2012-01-21T14:50:26Z</time>
      </trkpt>
      <trkpt lat="43.76553" lon="7.26643">
        <ele>515.421242</ele>
        <time>2012-01-21T14:52:31Z</time>
      </trkpt>
      <trkpt lat="43.76553" lon="7.26656">
        <ele>515.421265</ele>
        <time>2012-01-21T14:52:34Z</time>
      </trkpt>
      <trkpt lat="43.76552" lon="7.26669">
        <ele>514.421295</ele>
        <time>2012-01-21T14:52:37Z</time>
      </trkpt>
      <trkpt lat="43.76552" lon="7.26682">
        <ele>513.421318</ele>
        <time>2012-01-21T14:52:40Z</time>
      </trkpt>
      <trkpt lat="43.76551" lon="7.26694">
        <ele>513.421341</ele>
        <time>2012-01-21T14:52:43Z</time>
      </trkpt>
      <trkpt lat="43.76551" lon="7.26707">
        <ele>513.421375</ele>
        <time>2012-01-21T14:52:46Z</time>
      </trkpt>
      <trkpt lat="43.76551" lon="7.26723">
        <ele>512.421406</ele>
        <time>2012-01-21T14:52:50Z</time>
      </trkpt>
      <trkpt lat="43.76551" lon="7.26738">
        <ele>512.42144</ele>
        <time>2012-01-21T14:52:54Z</time>
      </trkpt>
      <trkpt lat="43.76553" lon="7.26753">
        <ele>513.421471</ele>
        <time>2012-01-21T14:52:58Z</time>
      </trkpt>
      <trkpt lat="43.76557" lon="7.26767">
        <ele>513.421509</ele>
        <time>2012-01-21T14:53:02Z</time>
      </trkpt>
      <trkpt lat="43.76558" lon="7.2677">
        <ele>513.421516</ele>
        <time>2012-01-21T14:53:03Z</time>
      </trkpt>
      <trkpt lat="43.76566" lon="7.26782">
        <ele>512.421547</ele>
        <time>2012-01-21T14:53:07Z</time>
      </trkpt>
      <trkpt lat="43.76573" lon="7.26794">
        <ele>511.421593</ele>
        <time>2012-01-21T14:53:11Z</time>
      </trkpt>
      <trkpt lat="43.76578" lon="7.26809">
        <ele>510.421623</ele>
        <time>2012-01-21T14:53:15Z</time>
      </trkpt>
      <trkpt lat="43.76579" lon="7.26822">
        <ele>510.421654</ele>
        <time>2012-01-21T14:53:18Z</time>
      </trkpt>
      <trkpt lat="43.7658" lon="7.26827">
        <ele>510.421665</ele>
        <time>2012-01-21T14:53:19Z</time>
      </trkpt>
      <trkpt lat="43.7658" lon="7.2684">
        <ele>509.421692</ele>
        <time>2012-01-21T14:53:22Z</time>
      </trkpt>
      <trkpt lat="43.76579" lon="7.26845">
        <ele>509.421703</ele>
        <time>2012-01-21T14:53:23Z</time>
      </trkpt>
      <trkpt lat="43.76578" lon="7.26858">
        <ele>509.42173</ele>
        <time>2012-01-21T14:53:26Z</time>
      </trkpt>
      <trkpt lat="43.76577" lon="7.26871">
        <ele>509.421753</ele>
        <time>2012-01-21T14:53:29Z</time>
      </trkpt>
      <trkpt lat="43.76574" lon="7.26886">
        <ele>509.421783</ele>
        <time>2012-01-21T14:53:32Z</time>
      </trkpt>
      <trkpt lat="43.76572" lon="7.26902">
        <ele>510.421814</ele>
        <time>2012-01-21T14:53:35Z</time>
      </trkpt>
      <trkpt lat="43.76572" lon="7.26915">
        <ele>510.421844</ele>
        <time>2012-01-21T14:53:37Z</time>
      </trkpt>
      <trkpt lat="43.76574" lon="7.2693">
        <ele>511.421875</ele>
        <time>2012-01-21T14:53:39Z</time>
      </trkpt>
      <trkpt lat="43.76578" lon="7.26946">
        <ele>512.421913</ele>
        <time>2012-01-21T14:53:41Z</time>
      </trkpt>
      <trkpt lat="43.76585" lon="7.26961">
        <ele>513.421955</ele>
        <time>2012-01-21T14:53:43Z</time>
      </trkpt>
      <trkpt lat="43.76593" lon="7.26974">
        <ele>513.421997</ele>
        <time>2012-01-21T14:53:45Z</time>
      </trkpt>
      <trkpt lat="43.76597" lon="7.26981">
        <ele>513.422012</ele>
        <time>2012-01-21T14:53:46Z</time>
      </trkpt>
      <trkpt lat="43.76605" lon="7.26993">
        <ele>513.42205</ele>
        <time>2012-01-21T14:53:48Z</time>
      </trkpt>
      <trkpt lat="43.76614" lon="7.27004">
        <ele>513.422089</ele>
        <time>2012-01-21T14:53:50Z</time>
      </trkpt>
      <trkpt lat="43.76622" lon="7.27015">
        <ele>512.422119</ele>
        <time>2012-01-21T14:53:52Z</time>
      </trkpt>
      <trkpt lat="43.76629" lon="7.27026">
        <ele>512.422153</ele>
        <time>2012-01-21T14:53:54Z</time>
      </trkpt>
      <trkpt lat="43.76632" lon="7.2704">
        <ele>512.422188</ele>
        <time>2012-01-21T14:53:56Z</time>
      </trkpt>
      <trkpt lat="43.76631" lon="7.27048">
        <ele>512.422203</ele>
        <time>2012-01-21T14:53:57Z</time>
      </trkpt>
      <trkpt lat="43.76627" lon="7.27063">
        <ele>512.42223</ele>
        <time>2012-01-21T14:53:59Z</time>
      </trkpt>
      <trkpt lat="43.76624" lon="7.2707">
        <ele>512.422241</ele>
        <time>2012-01-21T14:54:00Z</time>
      </trkpt>
      <trkpt lat="43.76617" lon="7.27084">
        <ele>512.422256</ele>
        <time>2012-01-21T14:54:02Z</time>
      </trkpt>
      <trkpt lat="43.76608" lon="7.27094">
        <ele>511.422272</ele>
        <time>2012-01-21T14:54:04Z</time>
      </trkpt>
      <trkpt lat="43.76601" lon="7.27105">
        <ele>511.422279</ele>
        <time>2012-01-21T14:54:06Z</time>
      </trkpt>
      <trkpt lat="43.76594" lon="7.27114">
        <ele>510.422291</ele>
        <time>2012-01-21T14:54:08Z</time>
      </trkpt>
      <trkpt lat="43.76583" lon="7.27124">
        <ele>509.422295</ele>
        <time>2012-01-21T14:54:11Z</time>
      </trkpt>
      <trkpt lat="43.76573" lon="7.27132">
        <ele>509.422302</ele>
        <time>2012-01-21T14:54:14Z</time>
      </trkpt>
      <trkpt lat="43.76564" lon="7.2714">
        <ele>509.422306</ele>
        <time>2012-01-21T14:54:17Z</time>
      </trkpt>
      <trkpt lat="43.76554" lon="7.27149">
        <ele>509.422318</ele>
        <time>2012-01-21T14:54:20Z</time>
      </trkpt>
      <trkpt lat="43.76544" lon="7.27157">
        <ele>509.422318</ele>
        <time>2012-01-21T14:54:23Z</time>
      </trkpt>
      <trkpt lat="43.76539" lon="7.27171">
        <ele>510.42234</ele>
        <time>2012-01-21T14:54:26Z</time>
      </trkpt>
      <trkpt lat="43.76539" lon="7.27188">
        <ele>511.422375</ele>
        <time>2012-01-21T14:54:29Z</time>
      </trkpt>
      <trkpt lat="43.76543" lon="7.27203">
        <ele>511.422413</ele>
        <time>2012-01-21T14:54:32Z</time>
      </trkpt>
      <trkpt lat="43.76544" lon="7.27208">
        <ele>511.422421</ele>
        <time>2012-01-21T14:54:33Z</time>
      </trkpt>
      <trkpt lat="43.7655" lon="7.27221">
        <ele>512.422459</ele>
        <time>2012-01-21T14:54:37Z</time>
      </trkpt>
      <trkpt lat="43.76552" lon="7.27225">
        <ele>512.42247</ele>
        <time>2012-01-21T14:54:38Z</time>
      </trkpt>
      <trkpt lat="43.76557" lon="7.27239">
        <ele>513.422508</ele>
        <time>2012-01-21T14:54:42Z</time>
      </trkpt>
      <trkpt lat="43.76565" lon="7.27249">
        <ele>513.422539</ele>
        <time>2012-01-21T14:54:45Z</time>
      </trkpt>
      <trkpt lat="43.76579" lon="7.27251">
        <ele>513.422562</ele>
        <time>2012-01-21T14:54:51Z</time>
      </trkpt>
      <trkpt lat="43.76591" lon="7.2724">
        <ele>515.422554</ele>
        <time>2012-01-21T14:55:12Z</time>
      </trkpt>
      <trkpt lat="43.76604" lon="7.27221">
        <ele>518.422531</ele>
        <time>2012-01-21T14:55:25Z</time>
      </trkpt>
      <trkpt lat="43.76615" lon="7.27216">
        <ele>519.422535</ele>
        <time>2012-01-21T14:55:37Z</time>
      </trkpt>
      <trkpt lat="43.76625" lon="7.27215">
        <ele>519.422546</ele>
        <time>2012-01-21T14:55:41Z</time>
      </trkpt>
      <trkpt lat="43.76635" lon="7.27214">
        <ele>519.422554</ele>
        <time>2012-01-21T14:55:46Z</time>
      </trkpt>
      <trkpt lat="43.76645" lon="7.27212">
        <ele>520.422569</ele>
        <time>2012-01-21T14:55:51Z</time>
      </trkpt>
      <trkpt lat="43.76654" lon="7.27211">
        <ele>519.422577</ele>
        <time>2012-01-21T14:56:00Z</time>
      </trkpt>
      <trkpt lat="43.76663" lon="7.27215">
        <ele>526.4226</ele>
        <time>2012-01-21T14:58:24Z</time>
      </trkpt>
      <trkpt lat="43.76673" lon="7.27227">
        <ele>528.422638</ele>
        <time>2012-01-21T14:58:32Z</time>
      </trkpt>
      <trkpt lat="43.76681" lon="7.27235">
        <ele>528.422668</ele>
        <time>2012-01-21T14:58:35Z</time>
      </trkpt>
      <trkpt lat="43.7669" lon="7.27243">
        <ele>528.422699</ele>
        <time>2012-01-21T14:58:42Z</time>
      </trkpt>
      <trkpt lat="43.76703" lon="7.27257">
        <ele>529.422741</ele>
        <time>2012-01-21T14:58:49Z</time>
      </trkpt>
      <trkpt lat="43.76711" lon="7.27264">
        <ele>529.422768</ele>
        <time>2012-01-21T14:58:52Z</time>
      </trkpt>
      <trkpt lat="43.76719" lon="7.27271">
        <ele>528.422791</ele>
        <time>2012-01-21T14:58:55Z</time>
      </trkpt>
      <trkpt lat="43.76728" lon="7.27278">
        <ele>528.422821</ele>
        <time>2012-01-21T14:58:58Z</time>
      </trkpt>
      <trkpt lat="43.76738" lon="7.27284">
        <ele>527.422844</ele>
        <time>2012-01-21T14:59:01Z</time>
      </trkpt>
      <trkpt lat="43.76747" lon="7.2729">
        <ele>527.422874</ele>
        <time>2012-01-21T14:59:04Z</time>
      </trkpt>
      <trkpt lat="43.76757" lon="7.27293">
        <ele>526.422897</ele>
        <time>2012-01-21T14:59:12Z</time>
      </trkpt>
      <trkpt lat="43.76753" lon="7.27274">
        <ele>516.422848</ele>
        <time>2012-01-21T15:00:11Z</time>
      </trkpt>
      <trkpt lat="43.76752" lon="7.27274">
        <ele>515.422844</ele>
        <time>2012-01-21T15:00:13Z</time>
      </trkpt>
      <trkpt lat="43.76749" lon="7.27261">
        <ele>511.422813</ele>
        <time>2012-01-21T15:00:39Z</time>
      </trkpt>
      <trkpt lat="43.76747" lon="7.27256">
        <ele>511.422798</ele>
        <time>2012-01-21T15:00:49Z</time>
      </trkpt>
      <trkpt lat="43.76749" lon="7.27243">
        <ele>511.422775</ele>
        <time>2012-01-21T15:01:16Z</time>
      </trkpt>
      <trkpt lat="43.76751" lon="7.27229">
        <ele>513.422752</ele>
        <time>2012-01-21T15:01:48Z</time>
      </trkpt>
      <trkpt lat="43.76759" lon="7.27213">
        <ele>514.422726</ele>
        <time>2012-01-21T15:02:26Z</time>
      </trkpt>
      <trkpt lat="43.76775" lon="7.27205">
        <ele>520.422729</ele>
        <time>2012-01-21T15:03:01Z</time>
      </trkpt>
      <trkpt lat="43.76793" lon="7.27189">
        <ele>523.422722</ele>
        <time>2012-01-21T15:03:42Z</time>
      </trkpt>
      <trkpt lat="43.76798" lon="7.27184">
        <ele>523.422718</ele>
        <time>2012-01-21T15:03:48Z</time>
      </trkpt>
      <trkpt lat="43.76805" lon="7.2717">
        <ele>527.422699</ele>
        <time>2012-01-21T15:04:02Z</time>
      </trkpt>
      <trkpt lat="43.76805" lon="7.27169">
        <ele>527.422695</ele>
        <time>2012-01-21T15:04:03Z</time>
      </trkpt>
      <trkpt lat="43.76815" lon="7.27157">
        <ele>536.422684</ele>
        <time>2012-01-21T15:04:36Z</time>
      </trkpt>
      <trkpt lat="43.76829" lon="7.27148">
        <ele>540.422684</ele>
        <time>2012-01-21T15:05:01Z</time>
      </trkpt>
      <trkpt lat="43.76829" lon="7.27148">
        <ele>540.422684</ele>
        <time>2012-01-21T15:05:02Z</time>
      </trkpt>
      <trkpt lat="43.76839" lon="7.27148">
        <ele>541.422699</ele>
        <time>2012-01-21T15:05:25Z</time>
      </trkpt>
      <trkpt lat="43.76844" lon="7.2715">
        <ele>542.422707</ele>
        <time>2012-01-21T15:05:33Z</time>
      </trkpt>
      <trkpt lat="43.76853" lon="7.27146">
        <ele>546.422714</ele>
        <time>2012-01-21T15:05:48Z</time>
      </trkpt>
      <trkpt lat="43.76862" lon="7.27144">
        <ele>550.422722</ele>
        <time>2012-01-21T15:06:02Z</time>
      </trkpt>
      <trkpt lat="43.76872" lon="7.27141">
        <ele>552.422726</ele>
        <time>2012-01-21T15:06:11Z</time>
      </trkpt>
      <trkpt lat="43.76884" lon="7.27134">
        <ele>554.422733</ele>
        <time>2012-01-21T15:06:34Z</time>
      </trkpt>
      <trkpt lat="43.7689" lon="7.2713">
        <ele>554.422729</ele>
        <time>2012-01-21T15:07:00Z</time>
      </trkpt>
      <trkpt lat="43.76896" lon="7.2712">
        <ele>556.422714</ele>
        <time>2012-01-21T15:07:03Z</time>
      </trkpt>
      <trkpt lat="43.76905" lon="7.27111">
        <ele>559.422707</ele>
        <time>2012-01-21T15:07:26Z</time>
      </trkpt>
      <trkpt lat="43.76911" lon="7.27101">
        <ele>561.422699</ele>
        <time>2012-01-21T15:07:43Z</time>
      </trkpt>
      <trkpt lat="43.76912" lon="7.27101">
        <ele>562.422699</ele>
        <time>2012-01-21T15:07:44Z</time>
      </trkpt>
      <trkpt lat="43.7692" lon="7.27093">
        <ele>570.422691</ele>
        <time>2012-01-21T15:08:00Z</time>
      </trkpt>
      <trkpt lat="43.7693" lon="7.27092">
        <ele>578.422699</ele>
        <time>2012-01-21T15:08:29Z</time>
      </trkpt>
      <trkpt lat="43.76936" lon="7.2709">
        <ele>578.42271</ele>
        <time>2012-01-21T15:08:43Z</time>
      </trkpt>
      <trkpt lat="43.76944" lon="7.27081">
        <ele>579.422699</ele>
        <time>2012-01-21T15:08:51Z</time>
      </trkpt>
      <trkpt lat="43.76952" lon="7.2707">
        <ele>585.422688</ele>
        <time>2012-01-21T15:09:15Z</time>
      </trkpt>
      <trkpt lat="43.76953" lon="7.2707">
        <ele>585.422688</ele>
        <time>2012-01-21T15:09:16Z</time>
      </trkpt>
      <trkpt lat="43.76964" lon="7.27066">
        <ele>589.422695</ele>
        <time>2012-01-21T15:09:30Z</time>
      </trkpt>
      <trkpt lat="43.76975" lon="7.27062">
        <ele>591.422699</ele>
        <time>2012-01-21T15:09:46Z</time>
      </trkpt>
      <trkpt lat="43.76978" lon="7.2706">
        <ele>593.422703</ele>
        <time>2012-01-21T15:09:53Z</time>
      </trkpt>
      <trkpt lat="43.76989" lon="7.27055">
        <ele>596.422707</ele>
        <time>2012-01-21T15:10:21Z</time>
      </trkpt>
      <trkpt lat="43.77" lon="7.27052">
        <ele>600.422714</ele>
        <time>2012-01-21T15:10:56Z</time>
      </trkpt>
      <trkpt lat="43.77006" lon="7.27043">
        <ele>600.422707</ele>
        <time>2012-01-21T15:11:15Z</time>
      </trkpt>
      <trkpt lat="43.77018" lon="7.27037">
        <ele>601.422707</ele>
        <time>2012-01-21T15:11:34Z</time>
      </trkpt>
      <trkpt lat="43.77023" lon="7.27033">
        <ele>602.422707</ele>
        <time>2012-01-21T15:11:49Z</time>
      </trkpt>
      <trkpt lat="43.77032" lon="7.27017">
        <ele>609.422684</ele>
        <time>2012-01-21T15:12:07Z</time>
      </trkpt>
      <trkpt lat="43.77032" lon="7.27017">
        <ele>609.422684</ele>
        <time>2012-01-21T15:12:08Z</time>
      </trkpt>
      <trkpt lat="43.77032" lon="7.27001">
        <ele>612.422653</ele>
        <time>2012-01-21T15:12:38Z</time>
      </trkpt>
      <trkpt lat="43.77036" lon="7.26989">
        <ele>618.422634</ele>
        <time>2012-01-21T15:12:50Z</time>
      </trkpt>
      <trkpt lat="43.77045" lon="7.26979">
        <ele>620.422623</ele>
        <time>2012-01-21T15:13:00Z</time>
      </trkpt>
      <trkpt lat="43.77051" lon="7.2697">
        <ele>620.422615</ele>
        <time>2012-01-21T15:13:08Z</time>
      </trkpt>
      <trkpt lat="43.77065" lon="7.26961">
        <ele>624.422615</ele>
        <time>2012-01-21T15:13:21Z</time>
      </trkpt>
      <trkpt lat="43.77094" lon="7.2696">
        <ele>625.422653</ele>
        <time>2012-01-21T15:13:35Z</time>
      </trkpt>
      <trkpt lat="43.77099" lon="7.26961">
        <ele>626.422661</ele>
        <time>2012-01-21T15:13:41Z</time>
      </trkpt>
      <trkpt lat="43.77108" lon="7.26965">
        <ele>630.422676</ele>
        <time>2012-01-21T15:13:51Z</time>
      </trkpt>
      <trkpt lat="43.77118" lon="7.26966">
        <ele>629.422691</ele>
        <time>2012-01-21T15:14:05Z</time>
      </trkpt>
      <trkpt lat="43.77129" lon="7.26968">
        <ele>629.422714</ele>
        <time>2012-01-21T15:14:20Z</time>
      </trkpt>
      <trkpt lat="43.77137" lon="7.26973">
        <ele>631.422733</ele>
        <time>2012-01-21T15:14:25Z</time>
      </trkpt>
      <trkpt lat="43.77146" lon="7.26976">
        <ele>631.422752</ele>
        <time>2012-01-21T15:14:31Z</time>
      </trkpt>
      <trkpt lat="43.77154" lon="7.26968">
        <ele>627.422749</ele>
        <time>2012-01-21T15:14:37Z</time>
      </trkpt>
      <trkpt lat="43.77161" lon="7.26959">
        <ele>620.422737</ele>
        <time>2012-01-21T15:14:46Z</time>
      </trkpt>
      <trkpt lat="43.77162" lon="7.26958">
        <ele>618.422737</ele>
        <time>2012-01-21T15:14:50Z</time>
      </trkpt>
      <trkpt lat="43.77166" lon="7.26947">
        <ele>615.422718</ele>
        <time>2012-01-21T15:15:00Z</time>
      </trkpt>
      <trkpt lat="43.77166" lon="7.26928">
        <ele>612.422684</ele>
        <time>2012-01-21T15:15:09Z</time>
      </trkpt>
      <trkpt lat="43.77169" lon="7.26917">
        <ele>610.422661</ele>
        <time>2012-01-21T15:15:23Z</time>
      </trkpt>
      <trkpt lat="43.77178" lon="7.26917">
        <ele>608.422676</ele>
        <time>2012-01-21T15:15:29Z</time>
      </trkpt>
      <trkpt lat="43.77187" lon="7.26927">
        <ele>605.422707</ele>
        <time>2012-01-21T15:15:34Z</time>
      </trkpt>
      <trkpt lat="43.77194" lon="7.26936">
        <ele>604.422733</ele>
        <time>2012-01-21T15:15:39Z</time>
      </trkpt>
      <trkpt lat="43.77202" lon="7.26927">
        <ele>603.422726</ele>
        <time>2012-01-21T15:15:45Z</time>
      </trkpt>
      <trkpt lat="43.77206" lon="7.26914">
        <ele>601.422707</ele>
        <time>2012-01-21T15:15:49Z</time>
      </trkpt>
      <trkpt lat="43.77213" lon="7.26923">
        <ele>596.422733</ele>
        <time>2012-01-21T15:16:06Z</time>
      </trkpt>
      <trkpt lat="43.77216" lon="7.26933">
        <ele>594.42276</ele>
        <time>2012-01-21T15:16:11Z</time>
      </trkpt>
      <trkpt lat="43.77223" lon="7.26943">
        <ele>590.422787</ele>
        <time>2012-01-21T15:16:17Z</time>
      </trkpt>
      <trkpt lat="43.77233" lon="7.26949">
        <ele>588.422813</ele>
        <time>2012-01-21T15:16:24Z</time>
      </trkpt>
      <trkpt lat="43.77237" lon="7.2696">
        <ele>583.422844</ele>
        <time>2012-01-21T15:16:34Z</time>
      </trkpt>
      <trkpt lat="43.77237" lon="7.26961">
        <ele>583.422844</ele>
        <time>2012-01-21T15:16:37Z</time>
      </trkpt>
      <trkpt lat="43.77247" lon="7.2697">
        <ele>576.422878</ele>
        <time>2012-01-21T15:17:03Z</time>
      </trkpt>
      <trkpt lat="43.77258" lon="7.26984">
        <ele>573.42292</ele>
        <time>2012-01-21T15:17:10Z</time>
      </trkpt>
      <trkpt lat="43.77266" lon="7.26992">
        <ele>570.422951</ele>
        <time>2012-01-21T15:17:14Z</time>
      </trkpt>
      <trkpt lat="43.7727" lon="7.26997">
        <ele>569.42297</ele>
        <time>2012-01-21T15:17:16Z</time>
      </trkpt>
      <trkpt lat="43.7728" lon="7.27006">
        <ele>568.423004</ele>
        <time>2012-01-21T15:17:20Z</time>
      </trkpt>
      <trkpt lat="43.77291" lon="7.27014">
        <ele>567.423035</ele>
        <time>2012-01-21T15:17:23Z</time>
      </trkpt>
      <trkpt lat="43.77301" lon="7.27018">
        <ele>565.423054</ele>
        <time>2012-01-21T15:17:26Z</time>
      </trkpt>
      <trkpt lat="43.77311" lon="7.27019">
        <ele>562.423069</ele>
        <time>2012-01-21T15:17:29Z</time>
      </trkpt>
      <trkpt lat="43.77317" lon="7.27031">
        <ele>560.423103</ele>
        <time>2012-01-21T15:17:36Z</time>
      </trkpt>
      <trkpt lat="43.77322" lon="7.27042">
        <ele>557.42313</ele>
        <time>2012-01-21T15:17:42Z</time>
      </trkpt>
      <trkpt lat="43.77322" lon="7.27043">
        <ele>556.423134</ele>
        <time>2012-01-21T15:17:43Z</time>
      </trkpt>
      <trkpt lat="43.77315" lon="7.2705">
        <ele>555.423141</ele>
        <time>2012-01-21T15:17:49Z</time>
      </trkpt>
      <trkpt lat="43.77306" lon="7.27044">
        <ele>554.423115</ele>
        <time>2012-01-21T15:17:53Z</time>
      </trkpt>
      <trkpt lat="43.77303" lon="7.27042">
        <ele>553.423107</ele>
        <time>2012-01-21T15:17:59Z</time>
      </trkpt>
      <trkpt lat="43.77295" lon="7.27051">
        <ele>551.423115</ele>
        <time>2012-01-21T15:18:03Z</time>
      </trkpt>
      <trkpt lat="43.77294" lon="7.2707">
        <ele>550.423157</ele>
        <time>2012-01-21T15:18:07Z</time>
      </trkpt>
      <trkpt lat="43.77292" lon="7.27083">
        <ele>550.42318</ele>
        <time>2012-01-21T15:18:09Z</time>
      </trkpt>
      <trkpt lat="43.77288" lon="7.27098">
        <ele>549.423203</ele>
        <time>2012-01-21T15:18:12Z</time>
      </trkpt>
      <trkpt lat="43.77284" lon="7.27112">
        <ele>548.423229</ele>
        <time>2012-01-21T15:18:15Z</time>
      </trkpt>
      <trkpt lat="43.77281" lon="7.27125">
        <ele>546.423256</ele>
        <time>2012-01-21T15:18:18Z</time>
      </trkpt>
      <trkpt lat="43.77277" lon="7.27137">
        <ele>543.423271</ele>
        <time>2012-01-21T15:18:21Z</time>
      </trkpt>
      <trkpt lat="43.77273" lon="7.27152">
        <ele>535.423302</ele>
        <time>2012-01-21T15:18:26Z</time>
      </trkpt>
      <trkpt lat="43.7728" lon="7.27163">
        <ele>531.423332</ele>
        <time>2012-01-21T15:18:30Z</time>
      </trkpt>
      <trkpt lat="43.7729" lon="7.2717">
        <ele>528.423355</ele>
        <time>2012-01-21T15:18:34Z</time>
      </trkpt>
      <trkpt lat="43.77298" lon="7.27176">
        <ele>525.423386</ele>
        <time>2012-01-21T15:18:40Z</time>
      </trkpt>
      <trkpt lat="43.77299" lon="7.2719">
        <ele>524.423416</ele>
        <time>2012-01-21T15:18:47Z</time>
      </trkpt>
      <trkpt lat="43.7729" lon="7.27197">
        <ele>523.42342</ele>
        <time>2012-01-21T15:18:53Z</time>
      </trkpt>
      <trkpt lat="43.77282" lon="7.27206">
        <ele>522.423424</ele>
        <time>2012-01-21T15:18:58Z</time>
      </trkpt>
      <trkpt lat="43.77273" lon="7.27221">
        <ele>520.423447</ele>
        <time>2012-01-21T15:19:06Z</time>
      </trkpt>
      <trkpt lat="43.77246" lon="7.27245">
        <ele>509.423462</ele>
        <time>2012-01-21T15:19:25Z</time>
      </trkpt>
      <trkpt lat="43.7722" lon="7.2725">
        <ele>502.423431</ele>
        <time>2012-01-21T15:19:36Z</time>
      </trkpt>
      <trkpt lat="43.77203" lon="7.27266">
        <ele>498.423447</ele>
        <time>2012-01-21T15:19:49Z</time>
      </trkpt>
      <trkpt lat="43.77197" lon="7.27279">
        <ele>495.423462</ele>
        <time>2012-01-21T15:19:55Z</time>
      </trkpt>
      <trkpt lat="43.77198" lon="7.27293">
        <ele>489.423492</ele>
        <time>2012-01-21T15:20:00Z</time>
      </trkpt>
      <trkpt lat="43.77204" lon="7.27302">
        <ele>485.423523</ele>
        <time>2012-01-21T15:20:05Z</time>
      </trkpt>
      <trkpt lat="43.77214" lon="7.27311">
        <ele>483.423553</ele>
        <time>2012-01-21T15:20:10Z</time>
      </trkpt>
      <trkpt lat="43.77222" lon="7.27325">
        <ele>481.423595</ele>
        <time>2012-01-21T15:20:14Z</time>
      </trkpt>
      <trkpt lat="43.77228" lon="7.27335">
        <ele>480.423622</ele>
        <time>2012-01-21T15:20:17Z</time>
      </trkpt>
      <trkpt lat="43.77234" lon="7.27345">
        <ele>479.423653</ele>
        <time>2012-01-21T15:20:20Z</time>
      </trkpt>
      <trkpt lat="43.77248" lon="7.27358">
        <ele>471.423698</ele>
        <time>2012-01-21T15:20:29Z</time>
      </trkpt>
      <trkpt lat="43.77259" lon="7.27358">
        <ele>467.423714</ele>
        <time>2012-01-21T15:20:38Z</time>
      </trkpt>
      <trkpt lat="43.7726" lon="7.27357">
        <ele>466.423717</ele>
        <time>2012-01-21T15:20:40Z</time>
      </trkpt>
      <trkpt lat="43.77266" lon="7.27343">
        <ele>450.423691</ele>
        <time>2012-01-21T15:21:16Z</time>
      </trkpt>
      <trkpt lat="43.77269" lon="7.27327">
        <ele>449.423664</ele>
        <time>2012-01-21T15:21:19Z</time>
      </trkpt>
      <trkpt lat="43.77274" lon="7.27312">
        <ele>450.423637</ele>
        <time>2012-01-21T15:21:21Z</time>
      </trkpt>
      <trkpt lat="43.77281" lon="7.27298">
        <ele>451.423615</ele>
        <time>2012-01-21T15:21:23Z</time>
      </trkpt>
      <trkpt lat="43.77289" lon="7.27285">
        <ele>451.423599</ele>
        <time>2012-01-21T15:21:25Z</time>
      </trkpt>
      <trkpt lat="43.77295" lon="7.27273">
        <ele>450.423584</ele>
        <time>2012-01-21T15:21:27Z</time>
      </trkpt>
      <trkpt lat="43.77306" lon="7.27268">
        <ele>450.423592</ele>
        <time>2012-01-21T15:21:31Z</time>
      </trkpt>
      <trkpt lat="43.77318" lon="7.27265">
        <ele>450.423599</ele>
        <time>2012-01-21T15:21:34Z</time>
      </trkpt>
      <trkpt lat="43.77329" lon="7.27266">
        <ele>450.423615</ele>
        <time>2012-01-21T15:21:36Z</time>
      </trkpt>
      <trkpt lat="43.77338" lon="7.27266">
        <ele>451.42363</ele>
        <time>2012-01-21T15:21:38Z</time>
      </trkpt>
      <trkpt lat="43.77349" lon="7.27265">
        <ele>451.423641</ele>
        <time>2012-01-21T15:21:40Z</time>
      </trkpt>
      <trkpt lat="43.77362" lon="7.27263">
        <ele>453.423653</ele>
        <time>2012-01-21T15:21:42Z</time>
      </trkpt>
      <trkpt lat="43.77374" lon="7.27262">
        <ele>453.423668</ele>
        <time>2012-01-21T15:21:44Z</time>
      </trkpt>
      <trkpt lat="43.77387" lon="7.27262">
        <ele>453.423687</ele>
        <time>2012-01-21T15:21:46Z</time>
      </trkpt>
      <trkpt lat="43.77399" lon="7.27264">
        <ele>453.423706</ele>
        <time>2012-01-21T15:21:48Z</time>
      </trkpt>
      <trkpt lat="43.77413" lon="7.27267">
        <ele>454.423729</ele>
        <time>2012-01-21T15:21:50Z</time>
      </trkpt>
      <trkpt lat="43.77427" lon="7.27272">
        <ele>454.423763</ele>
        <time>2012-01-21T15:21:52Z</time>
      </trkpt>
      <trkpt lat="43.77443" lon="7.27279">
        <ele>454.423798</ele>
        <time>2012-01-21T15:21:54Z</time>
      </trkpt>
      <trkpt lat="43.77452" lon="7.27283">
        <ele>454.42382</ele>
        <time>2012-01-21T15:21:55Z</time>
      </trkpt>
      <trkpt lat="43.77461" lon="7.27287">
        <ele>453.423843</ele>
        <time>2012-01-21T15:21:56Z</time>
      </trkpt>
      <trkpt lat="43.7747" lon="7.27291">
        <ele>453.423862</ele>
        <time>2012-01-21T15:21:57Z</time>
      </trkpt>
      <trkpt lat="43.7748" lon="7.27295">
        <ele>452.423882</ele>
        <time>2012-01-21T15:21:58Z</time>
      </trkpt>
      <trkpt lat="43.77489" lon="7.27298">
        <ele>452.423904</ele>
        <time>2012-01-21T15:21:59Z</time>
      </trkpt>
      <trkpt lat="43.77499" lon="7.27302">
        <ele>452.423927</ele>
        <time>2012-01-21T15:22:00Z</time>
      </trkpt>
      <trkpt lat="43.77508" lon="7.27305">
        <ele>451.423943</ele>
        <time>2012-01-21T15:22:01Z</time>
      </trkpt>
      <trkpt lat="43.77517" lon="7.27307">
        <ele>451.423958</ele>
        <time>2012-01-21T15:22:02Z</time>
      </trkpt>
      <trkpt lat="43.77527" lon="7.27309">
        <ele>450.423977</ele>
        <time>2012-01-21T15:22:03Z</time>
      </trkpt>
      <trkpt lat="43.77537" lon="7.27311">
        <ele>450.423992</ele>
        <time>2012-01-21T15:22:04Z</time>
      </trkpt>
      <trkpt lat="43.77547" lon="7.27313">
        <ele>449.424011</ele>
        <time>2012-01-21T15:22:05Z</time>
      </trkpt>
      <trkpt lat="43.77557" lon="7.27316">
        <ele>449.424034</ele>
        <time>2012-01-21T15:22:06Z</time>
      </trkpt>
      <trkpt lat="43.77568" lon="7.2732">
        <ele>449.424057</ele>
        <time>2012-01-21T15:22:07Z</time>
      </trkpt>
      <trkpt lat="43.77578" lon="7.27324">
        <ele>448.42408</ele>
        <time>2012-01-21T15:22:08Z</time>
      </trkpt>
      <trkpt lat="43.77588" lon="7.27326">
        <ele>448.424095</ele>
        <time>2012-01-21T15:22:09Z</time>
      </trkpt>
      <trkpt lat="43.77598" lon="7.27329">
        <ele>448.424118</ele>
        <time>2012-01-21T15:22:10Z</time>
      </trkpt>
      <trkpt lat="43.77607" lon="7.27331">
        <ele>448.424133</ele>
        <time>2012-01-21T15:22:11Z</time>
      </trkpt>
      <trkpt lat="43.77624" lon="7.27334">
        <ele>448.424164</ele>
        <time>2012-01-21T15:22:13Z</time>
      </trkpt>
      <trkpt lat="43.77632" lon="7.27335">
        <ele>448.424175</ele>
        <time>2012-01-21T15:22:14Z</time>
      </trkpt>
      <trkpt lat="43.77647" lon="7.27338">
        <ele>447.424202</ele>
        <time>2012-01-21T15:22:16Z</time>
      </trkpt>
      <trkpt lat="43.77662" lon="7.27342">
        <ele>447.424232</ele>
        <time>2012-01-21T15:22:18Z</time>
      </trkpt>
      <trkpt lat="43.77678" lon="7.27342">
        <ele>447.424255</ele>
        <time>2012-01-21T15:22:20Z</time>
      </trkpt>
      <trkpt lat="43.77693" lon="7.27341">
        <ele>447.424271</ele>
        <time>2012-01-21T15:22:22Z</time>
      </trkpt>
      <trkpt lat="43.77708" lon="7.27338">
        <ele>446.424286</ele>
        <time>2012-01-21T15:22:24Z</time>
      </trkpt>
      <trkpt lat="43.77721" lon="7.27335">
        <ele>445.424297</ele>
        <time>2012-01-21T15:22:26Z</time>
      </trkpt>
      <trkpt lat="43.77732" lon="7.2733">
        <ele>445.424301</ele>
        <time>2012-01-21T15:22:28Z</time>
      </trkpt>
      <trkpt lat="43.77742" lon="7.27326">
        <ele>445.424301</ele>
        <time>2012-01-21T15:22:30Z</time>
      </trkpt>
      <trkpt lat="43.7775" lon="7.27319">
        <ele>445.424301</ele>
        <time>2012-01-21T15:22:32Z</time>
      </trkpt>
      <trkpt lat="43.77758" lon="7.27309">
        <ele>445.424294</ele>
        <time>2012-01-21T15:22:34Z</time>
      </trkpt>
      <trkpt lat="43.77766" lon="7.27301">
        <ele>445.424286</ele>
        <time>2012-01-21T15:22:36Z</time>
      </trkpt>
      <trkpt lat="43.77775" lon="7.27295">
        <ele>445.424286</ele>
        <time>2012-01-21T15:22:38Z</time>
      </trkpt>
      <trkpt lat="43.77785" lon="7.27288">
        <ele>445.424286</ele>
        <time>2012-01-21T15:22:40Z</time>
      </trkpt>
      <trkpt lat="43.77797" lon="7.27283">
        <ele>445.424294</ele>
        <time>2012-01-21T15:22:42Z</time>
      </trkpt>
      <trkpt lat="43.7781" lon="7.27276">
        <ele>444.424294</ele>
        <time>2012-01-21T15:22:44Z</time>
      </trkpt>
      <trkpt lat="43.77823" lon="7.27268">
        <ele>444.424294</ele>
        <time>2012-01-21T15:22:46Z</time>
      </trkpt>
      <trkpt lat="43.77835" lon="7.27261">
        <ele>443.424294</ele>
        <time>2012-01-21T15:22:48Z</time>
      </trkpt>
      <trkpt lat="43.77847" lon="7.27257">
        <ele>442.424301</ele>
        <time>2012-01-21T15:22:50Z</time>
      </trkpt>
      <trkpt lat="43.77857" lon="7.27253">
        <ele>441.424309</ele>
        <time>2012-01-21T15:22:52Z</time>
      </trkpt>
      <trkpt lat="43.77867" lon="7.27247">
        <ele>439.424309</ele>
        <time>2012-01-21T15:22:55Z</time>
      </trkpt>
      <trkpt lat="43.77876" lon="7.27246">
        <ele>437.424316</ele>
        <time>2012-01-21T15:23:00Z</time>
      </trkpt>
      <trkpt lat="43.77887" lon="7.27248">
        <ele>435.424339</ele>
        <time>2012-01-21T15:23:04Z</time>
      </trkpt>
      <trkpt lat="43.77896" lon="7.27251">
        <ele>435.424358</ele>
        <time>2012-01-21T15:23:08Z</time>
      </trkpt>
      <trkpt lat="43.77901" lon="7.27253">
        <ele>435.42437</ele>
        <time>2012-01-21T15:23:10Z</time>
      </trkpt>
      <trkpt lat="43.77909" lon="7.27258">
        <ele>435.424389</ele>
        <time>2012-01-21T15:23:14Z</time>
      </trkpt>
      <trkpt lat="43.77918" lon="7.27262">
        <ele>436.424412</ele>
        <time>2012-01-21T15:23:18Z</time>
      </trkpt>
      <trkpt lat="43.77935" lon="7.27272">
        <ele>439.424454</ele>
        <time>2012-01-21T15:23:28Z</time>
      </trkpt>
      <trkpt lat="43.77944" lon="7.27277">
        <ele>438.424477</ele>
        <time>2012-01-21T15:23:34Z</time>
      </trkpt>
      <trkpt lat="43.77956" lon="7.27283">
        <ele>438.424507</ele>
        <time>2012-01-21T15:23:43Z</time>
      </trkpt>
      <trkpt lat="43.77965" lon="7.27286">
        <ele>437.424522</ele>
        <time>2012-01-21T15:23:53Z</time>
      </trkpt>
      <trkpt lat="43.77981" lon="7.27289">
        <ele>439.424553</ele>
        <time>2012-01-21T15:24:04Z</time>
      </trkpt>
      <trkpt lat="43.77991" lon="7.27288">
        <ele>440.424564</ele>
        <time>2012-01-21T15:24:12Z</time>
      </trkpt>
      <trkpt lat="43.78" lon="7.27285">
        <ele>440.424572</ele>
        <time>2012-01-21T15:24:19Z</time>
      </trkpt>
      <trkpt lat="43.78008" lon="7.2728">
        <ele>441.424568</ele>
        <time>2012-01-21T15:24:25Z</time>
      </trkpt>
      <trkpt lat="43.78022" lon="7.2727">
        <ele>441.424568</ele>
        <time>2012-01-21T15:24:35Z</time>
      </trkpt>
      <trkpt lat="43.78044" lon="7.27245">
        <ele>443.424545</ele>
        <time>2012-01-21T15:24:53Z</time>
      </trkpt>
      <trkpt lat="43.78065" lon="7.27225">
        <ele>449.42453</ele>
        <time>2012-01-21T15:25:07Z</time>
      </trkpt>
      <trkpt lat="43.7807" lon="7.27213">
        <ele>451.424515</ele>
        <time>2012-01-21T15:25:18Z</time>
      </trkpt>
      <trkpt lat="43.78073" lon="7.27199">
        <ele>450.424492</ele>
        <time>2012-01-21T15:25:27Z</time>
      </trkpt>
      <trkpt lat="43.78076" lon="7.27184">
        <ele>448.424461</ele>
        <time>2012-01-21T15:25:31Z</time>
      </trkpt>
      <trkpt lat="43.78077" lon="7.27179">
        <ele>448.424454</ele>
        <time>2012-01-21T15:25:37Z</time>
      </trkpt>
      <trkpt lat="43.78079" lon="7.2716">
        <ele>447.424416</ele>
        <time>2012-01-21T15:25:42Z</time>
      </trkpt>
      <trkpt lat="43.78078" lon="7.27146">
        <ele>448.424385</ele>
        <time>2012-01-21T15:25:48Z</time>
      </trkpt>
      <trkpt lat="43.78065" lon="7.2713">
        <ele>448.424332</ele>
        <time>2012-01-21T15:26:02Z</time>
      </trkpt>
      <trkpt lat="43.7806" lon="7.27127">
        <ele>447.42432</ele>
        <time>2012-01-21T15:26:06Z</time>
      </trkpt>
      <trkpt lat="43.7805" lon="7.27122">
        <ele>445.424294</ele>
        <time>2012-01-21T15:26:13Z</time>
      </trkpt>
      <trkpt lat="43.78034" lon="7.2711">
        <ele>448.424248</ele>
        <time>2012-01-21T15:26:25Z</time>
      </trkpt>
      <trkpt lat="43.78025" lon="7.27096">
        <ele>449.42421</ele>
        <time>2012-01-21T15:26:35Z</time>
      </trkpt>
      <trkpt lat="43.7802" lon="7.27085">
        <ele>449.424175</ele>
        <time>2012-01-21T15:26:39Z</time>
      </trkpt>
      <trkpt lat="43.78017" lon="7.27072">
        <ele>450.424141</ele>
        <time>2012-01-21T15:26:42Z</time>
      </trkpt>
      <trkpt lat="43.78013" lon="7.2706">
        <ele>451.424114</ele>
        <time>2012-01-21T15:26:45Z</time>
      </trkpt>
      <trkpt lat="43.78004" lon="7.27038">
        <ele>452.424053</ele>
        <time>2012-01-21T15:26:51Z</time>
      </trkpt>
      <trkpt lat="43.78003" lon="7.27035">
        <ele>452.424049</ele>
        <time>2012-01-21T15:26:52Z</time>
      </trkpt>
      <trkpt lat="43.78" lon="7.27021">
        <ele>453.424011</ele>
        <time>2012-01-21T15:26:56Z</time>
      </trkpt>
      <trkpt lat="43.77999" lon="7.27008">
        <ele>454.423988</ele>
        <time>2012-01-21T15:26:59Z</time>
      </trkpt>
      <trkpt lat="43.77998" lon="7.26999">
        <ele>454.423965</ele>
        <time>2012-01-21T15:27:01Z</time>
      </trkpt>
      <trkpt lat="43.77999" lon="7.26983">
        <ele>454.423931</ele>
        <time>2012-01-21T15:27:04Z</time>
      </trkpt>
      <trkpt lat="43.78002" lon="7.26967">
        <ele>454.423904</ele>
        <time>2012-01-21T15:27:07Z</time>
      </trkpt>
      <trkpt lat="43.78006" lon="7.26952">
        <ele>453.423874</ele>
        <time>2012-01-21T15:27:10Z</time>
      </trkpt>
      <trkpt lat="43.78013" lon="7.26939">
        <ele>453.423859</ele>
        <time>2012-01-21T15:27:13Z</time>
      </trkpt>
      <trkpt lat="43.78022" lon="7.26929">
        <ele>453.423851</ele>
        <time>2012-01-21T15:27:16Z</time>
      </trkpt>
      <trkpt lat="43.78033" lon="7.26932">
        <ele>454.423874</ele>
        <time>2012-01-21T15:27:23Z</time>
      </trkpt>
      <trkpt lat="43.78046" lon="7.26933">
        <ele>455.423889</ele>
        <time>2012-01-21T15:27:26Z</time>
      </trkpt>
      <trkpt lat="43.78058" lon="7.26936">
        <ele>456.423912</ele>
        <time>2012-01-21T15:27:29Z</time>
      </trkpt>
      <trkpt lat="43.7807" lon="7.2694">
        <ele>457.423939</ele>
        <time>2012-01-21T15:27:32Z</time>
      </trkpt>
      <trkpt lat="43.78081" lon="7.26942">
        <ele>459.423958</ele>
        <time>2012-01-21T15:27:35Z</time>
      </trkpt>
      <trkpt lat="43.78091" lon="7.26941">
        <ele>461.423965</ele>
        <time>2012-01-21T15:27:38Z</time>
      </trkpt>
      <trkpt lat="43.78113" lon="7.26921">
        <ele>466.423958</ele>
        <time>2012-01-21T15:27:47Z</time>
      </trkpt>
      <trkpt lat="43.78131" lon="7.26899">
        <ele>468.423935</ele>
        <time>2012-01-21T15:27:52Z</time>
      </trkpt>
      <trkpt lat="43.78138" lon="7.26894">
        <ele>468.423935</ele>
        <time>2012-01-21T15:27:55Z</time>
      </trkpt>
      <trkpt lat="43.78157" lon="7.26881">
        <ele>473.423935</ele>
        <time>2012-01-21T15:28:10Z</time>
      </trkpt>
      <trkpt lat="43.78171" lon="7.2687">
        <ele>474.423927</ele>
        <time>2012-01-21T15:28:22Z</time>
      </trkpt>
      <trkpt lat="43.78179" lon="7.2686">
        <ele>475.42392</ele>
        <time>2012-01-21T15:28:28Z</time>
      </trkpt>
      <trkpt lat="43.78185" lon="7.2685">
        <ele>476.423904</ele>
        <time>2012-01-21T15:28:33Z</time>
      </trkpt>
      <trkpt lat="43.78192" lon="7.26837">
        <ele>476.423889</ele>
        <time>2012-01-21T15:28:38Z</time>
      </trkpt>
      <trkpt lat="43.78198" lon="7.26822">
        <ele>476.423866</ele>
        <time>2012-01-21T15:28:42Z</time>
      </trkpt>
      <trkpt lat="43.78201" lon="7.2681">
        <ele>476.423843</ele>
        <time>2012-01-21T15:28:46Z</time>
      </trkpt>
      <trkpt lat="43.78203" lon="7.26805">
        <ele>476.423836</ele>
        <time>2012-01-21T15:28:47Z</time>
      </trkpt>
      <trkpt lat="43.78214" lon="7.26769">
        <ele>476.423775</ele>
        <time>2012-01-21T15:28:57Z</time>
      </trkpt>
      <trkpt lat="43.78218" lon="7.26756">
        <ele>477.423752</ele>
        <time>2012-01-21T15:29:01Z</time>
      </trkpt>
      <trkpt lat="43.78221" lon="7.26739">
        <ele>479.423721</ele>
        <time>2012-01-21T15:29:07Z</time>
      </trkpt>
      <trkpt lat="43.78222" lon="7.26726">
        <ele>479.423695</ele>
        <time>2012-01-21T15:29:11Z</time>
      </trkpt>
      <trkpt lat="43.78223" lon="7.26711">
        <ele>479.423668</ele>
        <time>2012-01-21T15:29:14Z</time>
      </trkpt>
      <trkpt lat="43.78225" lon="7.26699">
        <ele>479.423637</ele>
        <time>2012-01-21T15:29:17Z</time>
      </trkpt>
      <trkpt lat="43.78226" lon="7.26677">
        <ele>480.423599</ele>
        <time>2012-01-21T15:29:26Z</time>
      </trkpt>
      <trkpt lat="43.78227" lon="7.26669">
        <ele>480.423584</ele>
        <time>2012-01-21T15:29:29Z</time>
      </trkpt>
      <trkpt lat="43.78229" lon="7.26656">
        <ele>481.423553</ele>
        <time>2012-01-21T15:29:36Z</time>
      </trkpt>
      <trkpt lat="43.7823" lon="7.26642">
        <ele>481.423531</ele>
        <time>2012-01-21T15:29:40Z</time>
      </trkpt>
      <trkpt lat="43.7823" lon="7.26624">
        <ele>482.423492</ele>
        <time>2012-01-21T15:29:43Z</time>
      </trkpt>
      <trkpt lat="43.78229" lon="7.26606">
        <ele>483.42345</ele>
        <time>2012-01-21T15:29:46Z</time>
      </trkpt>
      <trkpt lat="43.78228" lon="7.26592">
        <ele>483.423424</ele>
        <time>2012-01-21T15:29:48Z</time>
      </trkpt>
      <trkpt lat="43.78227" lon="7.26578">
        <ele>483.423393</ele>
        <time>2012-01-21T15:29:50Z</time>
      </trkpt>
      <trkpt lat="43.78227" lon="7.26568">
        <ele>484.42337</ele>
        <time>2012-01-21T15:29:52Z</time>
      </trkpt>
      <trkpt lat="43.78227" lon="7.26552">
        <ele>484.423336</ele>
        <time>2012-01-21T15:29:55Z</time>
      </trkpt>
      <trkpt lat="43.78226" lon="7.26538">
        <ele>484.423302</ele>
        <time>2012-01-21T15:29:58Z</time>
      </trkpt>
      <trkpt lat="43.78227" lon="7.26524">
        <ele>484.423279</ele>
        <time>2012-01-21T15:30:01Z</time>
      </trkpt>
      <trkpt lat="43.78228" lon="7.26511">
        <ele>483.423248</ele>
        <time>2012-01-21T15:30:04Z</time>
      </trkpt>
      <trkpt lat="43.7823" lon="7.26497">
        <ele>484.423218</ele>
        <time>2012-01-21T15:30:07Z</time>
      </trkpt>
      <trkpt lat="43.78233" lon="7.26481">
        <ele>484.423191</ele>
        <time>2012-01-21T15:30:10Z</time>
      </trkpt>
      <trkpt lat="43.78236" lon="7.26464">
        <ele>483.423164</ele>
        <time>2012-01-21T15:30:13Z</time>
      </trkpt>
      <trkpt lat="43.7824" lon="7.26448">
        <ele>481.423134</ele>
        <time>2012-01-21T15:30:16Z</time>
      </trkpt>
      <trkpt lat="43.78241" lon="7.26442">
        <ele>481.423122</ele>
        <time>2012-01-21T15:30:17Z</time>
      </trkpt>
      <trkpt lat="43.78243" lon="7.26427">
        <ele>480.423096</ele>
        <time>2012-01-21T15:30:20Z</time>
      </trkpt>
      <trkpt lat="43.78245" lon="7.26412">
        <ele>480.423065</ele>
        <time>2012-01-21T15:30:23Z</time>
      </trkpt>
      <trkpt lat="43.78248" lon="7.26397">
        <ele>480.423035</ele>
        <time>2012-01-21T15:30:26Z</time>
      </trkpt>
      <trkpt lat="43.7825" lon="7.2638">
        <ele>480.423004</ele>
        <time>2012-01-21T15:30:29Z</time>
      </trkpt>
      <trkpt lat="43.78252" lon="7.26368">
        <ele>480.422981</ele>
        <time>2012-01-21T15:30:31Z</time>
      </trkpt>
      <trkpt lat="43.78255" lon="7.2635">
        <ele>480.422951</ele>
        <time>2012-01-21T15:30:34Z</time>
      </trkpt>
      <trkpt lat="43.78259" lon="7.26333">
        <ele>480.42292</ele>
        <time>2012-01-21T15:30:37Z</time>
      </trkpt>
      <trkpt lat="43.78264" lon="7.26316">
        <ele>481.42289</ele>
        <time>2012-01-21T15:30:40Z</time>
      </trkpt>
      <trkpt lat="43.78268" lon="7.26298">
        <ele>481.422855</ele>
        <time>2012-01-21T15:30:43Z</time>
      </trkpt>
      <trkpt lat="43.78271" lon="7.26286">
        <ele>482.422836</ele>
        <time>2012-01-21T15:30:45Z</time>
      </trkpt>
      <trkpt lat="43.78275" lon="7.26275">
        <ele>482.422813</ele>
        <time>2012-01-21T15:30:47Z</time>
      </trkpt>
      <trkpt lat="43.78277" lon="7.26269">
        <ele>483.422806</ele>
        <time>2012-01-21T15:30:48Z</time>
      </trkpt>
      <trkpt lat="43.78281" lon="7.26254">
        <ele>484.422779</ele>
        <time>2012-01-21T15:30:51Z</time>
      </trkpt>
      <trkpt lat="43.78283" lon="7.26242">
        <ele>484.42276</ele>
        <time>2012-01-21T15:30:55Z</time>
      </trkpt>
      <trkpt lat="43.78284" lon="7.2624">
        <ele>484.422756</ele>
        <time>2012-01-21T15:30:59Z</time>
      </trkpt>
      <trkpt lat="43.78282" lon="7.26227">
        <ele>483.422722</ele>
        <time>2012-01-21T15:31:03Z</time>
      </trkpt>
      <trkpt lat="43.78284" lon="7.26209">
        <ele>484.422691</ele>
        <time>2012-01-21T15:31:11Z</time>
      </trkpt>
      <trkpt lat="43.78288" lon="7.26198">
        <ele>484.422672</ele>
        <time>2012-01-21T15:31:16Z</time>
      </trkpt>
      <trkpt lat="43.78292" lon="7.26186">
        <ele>485.422653</ele>
        <time>2012-01-21T15:31:21Z</time>
      </trkpt>
      <trkpt lat="43.78294" lon="7.26152">
        <ele>487.422585</ele>
        <time>2012-01-21T15:31:33Z</time>
      </trkpt>
      <trkpt lat="43.78294" lon="7.26135">
        <ele>490.422546</ele>
        <time>2012-01-21T15:31:38Z</time>
      </trkpt>
      <trkpt lat="43.78295" lon="7.26111">
        <ele>492.422497</ele>
        <time>2012-01-21T15:31:47Z</time>
      </trkpt>
      <trkpt lat="43.78296" lon="7.26096">
        <ele>493.42247</ele>
        <time>2012-01-21T15:31:52Z</time>
      </trkpt>
      <trkpt lat="43.78295" lon="7.26069">
        <ele>493.422409</ele>
        <time>2012-01-21T15:32:02Z</time>
      </trkpt>
      <trkpt lat="43.78292" lon="7.26055">
        <ele>494.422379</ele>
        <time>2012-01-21T15:32:08Z</time>
      </trkpt>
      <trkpt lat="43.78283" lon="7.26041">
        <ele>497.422337</ele>
        <time>2012-01-21T15:32:17Z</time>
      </trkpt>
      <trkpt lat="43.78275" lon="7.26027">
        <ele>498.422295</ele>
        <time>2012-01-21T15:32:24Z</time>
      </trkpt>
      <trkpt lat="43.78269" lon="7.26016">
        <ele>500.422264</ele>
        <time>2012-01-21T15:32:29Z</time>
      </trkpt>
      <trkpt lat="43.78262" lon="7.26005">
        <ele>499.42223</ele>
        <time>2012-01-21T15:32:34Z</time>
      </trkpt>
      <trkpt lat="43.78256" lon="7.25995">
        <ele>499.422199</ele>
        <time>2012-01-21T15:32:39Z</time>
      </trkpt>
      <trkpt lat="43.7825" lon="7.25984">
        <ele>498.422173</ele>
        <time>2012-01-21T15:32:44Z</time>
      </trkpt>
      <trkpt lat="43.7825" lon="7.25984">
        <ele>498.422173</ele>
        <time>2012-01-21T15:32:47Z</time>
      </trkpt>
      <trkpt lat="43.78246" lon="7.25973">
        <ele>500.422142</ele>
        <time>2012-01-21T15:32:49Z</time>
      </trkpt>
      <trkpt lat="43.78242" lon="7.25961">
        <ele>501.422108</ele>
        <time>2012-01-21T15:32:54Z</time>
      </trkpt>
      <trkpt lat="43.78241" lon="7.25946">
        <ele>503.422077</ele>
        <time>2012-01-21T15:33:00Z</time>
      </trkpt>
      <trkpt lat="43.78244" lon="7.25929">
        <ele>503.422043</ele>
        <time>2012-01-21T15:33:09Z</time>
      </trkpt>
      <trkpt lat="43.78248" lon="7.25913">
        <ele>501.422012</ele>
        <time>2012-01-21T15:33:17Z</time>
      </trkpt>
      <trkpt lat="43.78251" lon="7.25898">
        <ele>501.421989</ele>
        <time>2012-01-21T15:33:22Z</time>
      </trkpt>
      <trkpt lat="43.78253" lon="7.25882">
        <ele>502.421959</ele>
        <time>2012-01-21T15:33:26Z</time>
      </trkpt>
      <trkpt lat="43.78253" lon="7.25869">
        <ele>503.421936</ele>
        <time>2012-01-21T15:33:29Z</time>
      </trkpt>
      <trkpt lat="43.78253" lon="7.25854">
        <ele>503.421902</ele>
        <time>2012-01-21T15:33:33Z</time>
      </trkpt>
      <trkpt lat="43.78252" lon="7.25845">
        <ele>502.421879</ele>
        <time>2012-01-21T15:33:36Z</time>
      </trkpt>
      <trkpt lat="43.78249" lon="7.2583">
        <ele>502.421844</ele>
        <time>2012-01-21T15:33:41Z</time>
      </trkpt>
      <trkpt lat="43.78249" lon="7.25827">
        <ele>502.421837</ele>
        <time>2012-01-21T15:33:42Z</time>
      </trkpt>
      <trkpt lat="43.78245" lon="7.25814">
        <ele>501.421803</ele>
        <time>2012-01-21T15:33:47Z</time>
      </trkpt>
      <trkpt lat="43.78245" lon="7.2581">
        <ele>501.421799</ele>
        <time>2012-01-21T15:33:48Z</time>
      </trkpt>
      <trkpt lat="43.78243" lon="7.25792">
        <ele>503.421753</ele>
        <time>2012-01-21T15:33:56Z</time>
      </trkpt>
      <trkpt lat="43.78239" lon="7.25779">
        <ele>504.421722</ele>
        <time>2012-01-21T15:34:01Z</time>
      </trkpt>
      <trkpt lat="43.78235" lon="7.25765">
        <ele>503.421684</ele>
        <time>2012-01-21T15:34:07Z</time>
      </trkpt>
      <trkpt lat="43.78228" lon="7.25744">
        <ele>504.421631</ele>
        <time>2012-01-21T15:34:14Z</time>
      </trkpt>
      <trkpt lat="43.78227" lon="7.2574">
        <ele>505.421623</ele>
        <time>2012-01-21T15:34:15Z</time>
      </trkpt>
      <trkpt lat="43.78222" lon="7.25727">
        <ele>505.421593</ele>
        <time>2012-01-21T15:34:18Z</time>
      </trkpt>
      <trkpt lat="43.78219" lon="7.25719">
        <ele>505.421566</ele>
        <time>2012-01-21T15:34:20Z</time>
      </trkpt>
      <trkpt lat="43.78212" lon="7.25703">
        <ele>505.421524</ele>
        <time>2012-01-21T15:34:23Z</time>
      </trkpt>
      <trkpt lat="43.78211" lon="7.25699">
        <ele>505.421513</ele>
        <time>2012-01-21T15:34:24Z</time>
      </trkpt>
      <trkpt lat="43.78208" lon="7.25686">
        <ele>505.421482</ele>
        <time>2012-01-21T15:34:27Z</time>
      </trkpt>
      <trkpt lat="43.78206" lon="7.2567">
        <ele>505.421448</ele>
        <time>2012-01-21T15:34:31Z</time>
      </trkpt>
      <trkpt lat="43.78204" lon="7.25656">
        <ele>507.42141</ele>
        <time>2012-01-21T15:34:35Z</time>
      </trkpt>
      <trkpt lat="43.78202" lon="7.25642">
        <ele>508.421379</ele>
        <time>2012-01-21T15:34:39Z</time>
      </trkpt>
      <trkpt lat="43.782" lon="7.25626">
        <ele>509.421345</ele>
        <time>2012-01-21T15:34:44Z</time>
      </trkpt>
      <trkpt lat="43.78198" lon="7.25613">
        <ele>510.421314</ele>
        <time>2012-01-21T15:34:48Z</time>
      </trkpt>
      <trkpt lat="43.78194" lon="7.256">
        <ele>510.42128</ele>
        <time>2012-01-21T15:34:52Z</time>
      </trkpt>
      <trkpt lat="43.7819" lon="7.25586">
        <ele>511.421249</ele>
        <time>2012-01-21T15:34:56Z</time>
      </trkpt>
      <trkpt lat="43.78187" lon="7.25572">
        <ele>513.421215</ele>
        <time>2012-01-21T15:35:00Z</time>
      </trkpt>
      <trkpt lat="43.78186" lon="7.2556">
        <ele>515.421188</ele>
        <time>2012-01-21T15:35:04Z</time>
      </trkpt>
      <trkpt lat="43.78185" lon="7.25546">
        <ele>516.421158</ele>
        <time>2012-01-21T15:35:09Z</time>
      </trkpt>
      <trkpt lat="43.78187" lon="7.25533">
        <ele>516.421127</ele>
        <time>2012-01-21T15:35:16Z</time>
      </trkpt>
      <trkpt lat="43.7819" lon="7.2552">
        <ele>516.421104</ele>
        <time>2012-01-21T15:35:22Z</time>
      </trkpt>
      <trkpt lat="43.78192" lon="7.25512">
        <ele>515.421093</ele>
        <time>2012-01-21T15:35:29Z</time>
      </trkpt>
      <trkpt lat="43.78196" lon="7.25501">
        <ele>515.421074</ele>
        <time>2012-01-21T15:35:32Z</time>
      </trkpt>
      <trkpt lat="43.78198" lon="7.25492">
        <ele>516.421062</ele>
        <time>2012-01-21T15:35:36Z</time>
      </trkpt>
      <trkpt lat="43.78203" lon="7.2548">
        <ele>516.421043</ele>
        <time>2012-01-21T15:35:42Z</time>
      </trkpt>
      <trkpt lat="43.78209" lon="7.25473">
        <ele>516.421036</ele>
        <time>2012-01-21T15:35:53Z</time>
      </trkpt>
      <trkpt lat="43.78217" lon="7.25467">
        <ele>515.421036</ele>
        <time>2012-01-21T15:36:02Z</time>
      </trkpt>
      <trkpt lat="43.78218" lon="7.25465">
        <ele>515.421036</ele>
        <time>2012-01-21T15:36:08Z</time>
      </trkpt>
      <trkpt lat="43.78214" lon="7.25454">
        <ele>516.421005</ele>
        <time>2012-01-21T15:36:28Z</time>
      </trkpt>
      <trkpt lat="43.7822" lon="7.2545">
        <ele>511.421005</ele>
        <time>2012-01-21T15:36:55Z</time>
      </trkpt>
      <trkpt lat="43.78226" lon="7.25441">
        <ele>516.42099</ele>
        <time>2012-01-21T15:37:09Z</time>
      </trkpt>
      <trkpt lat="43.78226" lon="7.2544">
        <ele>516.420986</ele>
        <time>2012-01-21T15:37:10Z</time>
      </trkpt>
      <trkpt lat="43.78226" lon="7.25426">
        <ele>523.420959</ele>
        <time>2012-01-21T15:37:26Z</time>
      </trkpt>
      <trkpt lat="43.78227" lon="7.25412">
        <ele>527.420929</ele>
        <time>2012-01-21T15:37:44Z</time>
      </trkpt>
      <trkpt lat="43.78223" lon="7.25395">
        <ele>530.420891</ele>
        <time>2012-01-21T15:38:09Z</time>
      </trkpt>
      <trkpt lat="43.78215" lon="7.25386">
        <ele>532.42086</ele>
        <time>2012-01-21T15:38:20Z</time>
      </trkpt>
      <trkpt lat="43.78212" lon="7.25374">
        <ele>534.42083</ele>
        <time>2012-01-21T15:38:31Z</time>
      </trkpt>
      <trkpt lat="43.78209" lon="7.2535">
        <ele>533.420776</ele>
        <time>2012-01-21T15:38:52Z</time>
      </trkpt>
      <trkpt lat="43.78208" lon="7.25325">
        <ele>534.420723</ele>
        <time>2012-01-21T15:39:02Z</time>
      </trkpt>
      <trkpt lat="43.78209" lon="7.25309">
        <ele>534.420689</ele>
        <time>2012-01-21T15:39:11Z</time>
      </trkpt>
      <trkpt lat="43.78209" lon="7.25297">
        <ele>534.420662</ele>
        <time>2012-01-21T15:39:22Z</time>
      </trkpt>
      <trkpt lat="43.782" lon="7.2528">
        <ele>534.420616</ele>
        <time>2012-01-21T15:40:47Z</time>
      </trkpt>
      <trkpt lat="43.78186" lon="7.25269">
        <ele>534.42057</ele>
        <time>2012-01-21T15:40:56Z</time>
      </trkpt>
      <trkpt lat="43.78177" lon="7.25262">
        <ele>534.420547</ele>
        <time>2012-01-21T15:41:00Z</time>
      </trkpt>
      <trkpt lat="43.78174" lon="7.25258">
        <ele>534.420532</ele>
        <time>2012-01-21T15:41:02Z</time>
      </trkpt>
      <trkpt lat="43.78164" lon="7.25238">
        <ele>534.420479</ele>
        <time>2012-01-21T15:41:12Z</time>
      </trkpt>
      <trkpt lat="43.7816" lon="7.25225">
        <ele>534.420448</ele>
        <time>2012-01-21T15:41:20Z</time>
      </trkpt>
      <trkpt lat="43.78168" lon="7.25209">
        <ele>535.420418</ele>
        <time>2012-01-21T15:41:28Z</time>
      </trkpt>
      <trkpt lat="43.78177" lon="7.25196">
        <ele>536.42041</ele>
        <time>2012-01-21T15:41:34Z</time>
      </trkpt>
      <trkpt lat="43.78184" lon="7.25185">
        <ele>536.420395</ele>
        <time>2012-01-21T15:41:37Z</time>
      </trkpt>
      <trkpt lat="43.78198" lon="7.25165">
        <ele>538.420368</ele>
        <time>2012-01-21T15:41:45Z</time>
      </trkpt>
      <trkpt lat="43.78203" lon="7.2514">
        <ele>543.420326</ele>
        <time>2012-01-21T15:41:50Z</time>
      </trkpt>
      <trkpt lat="43.78205" lon="7.25124">
        <ele>543.420296</ele>
        <time>2012-01-21T15:41:52Z</time>
      </trkpt>
      <trkpt lat="43.78209" lon="7.25112">
        <ele>544.420273</ele>
        <time>2012-01-21T15:41:54Z</time>
      </trkpt>
      <trkpt lat="43.78215" lon="7.25096">
        <ele>544.42025</ele>
        <time>2012-01-21T15:41:57Z</time>
      </trkpt>
      <trkpt lat="43.78221" lon="7.25086">
        <ele>542.420235</ele>
        <time>2012-01-21T15:42:00Z</time>
      </trkpt>
      <trkpt lat="43.77635" lon="7.21568">
        <ele>68</ele>
        <time>2012-01-21T16:04:14Z</time>
      </trkpt>
      <trkpt lat="43.77635" lon="7.21568">
        <ele>68</ele>
        <time>2012-01-21T16:04:14Z</time>
      </trkpt>
      <trkpt lat="43.7465" lon="7.28528">
        <ele>123.3</ele>
        <time>2012-01-21T16:10:03Z</time>
      </trkpt>
      <trkpt lat="43.73733" lon="7.2879">
        <ele>51.7</ele>
        <time>2012-01-21T16:10:39Z</time>
      </trkpt>
      <trkpt lat="43.7465" lon="7.28528">
        <ele>123.3</ele>
        <time>2012-01-21T16:11:00Z</time>
      </trkpt>
      <trkpt lat="43.73687" lon="7.2874">
        <ele>51.6</ele>
        <time>2012-01-21T16:12:29Z</time>
      </trkpt>
      <trkpt lat="43.5843" lon="7.09501">
        <ele>41.3</ele>
        <time>2012-01-21T16:13:41Z</time>
      </trkpt>
      <trkpt lat="43.77955" lon="7.24079">
        <ele>403.6</ele>
        <time>2012-01-21T16:15:31Z</time>
      </trkpt>
      <trkpt lat="43.79927" lon="7.22257">
        <ele>280.5</ele>
        <time>2012-01-21T16:17:01Z</time>
      </trkpt>
      <trkpt lat="43.76192" lon="7.2238">
        <ele>285.2</ele>
        <time>2012-01-21T16:17:09Z</time>
      </trkpt>
      <trkpt lat="43.7908" lon="7.20961">
        <ele>79</ele>
        <time>2012-01-21T16:17:51Z</time>
      </trkpt>
      <trkpt lat="43.76192" lon="7.2238">
        <ele>285.2</ele>
        <time>2012-01-21T16:18:08Z</time>
      </trkpt>
      <trkpt lat="43.79927" lon="7.22257">
        <ele>280.5</ele>
        <time>2012-01-21T16:18:48Z</time>
      </trkpt>
      <trkpt lat="43.74473" lon="7.24073">
        <ele>297.1</ele>
        <time>2012-01-21T16:19:59Z</time>
      </trkpt>
      <trkpt lat="43.79927" lon="7.22257">
        <ele>280.5</ele>
        <time>2012-01-21T16:20:11Z</time>
      </trkpt>
      <trkpt lat="43.74473" lon="7.24073">
        <ele>297.1</ele>
        <time>2012-01-21T16:20:51Z</time>
      </trkpt>
      <trkpt lat="43.79927" lon="7.22257">
        <ele>280.5</ele>
        <time>2012-01-21T16:21:04Z</time>
      </trkpt>
      <trkpt lat="43.74473" lon="7.24073">
        <ele>297.1</ele>
        <time>2012-01-21T16:22:00Z</time>
      </trkpt>
      <trkpt lat="43.76153" lon="7.2487">
        <ele>474.416931</ele>
        <time>2012-01-21T16:22:11Z</time>
      </trkpt>
      <trkpt lat="43.76153" lon="7.2487">
        <ele>474.416931</ele>
        <time>2012-01-21T16:22:20Z</time>
      </trkpt>
      <trkpt lat="43.76117" lon="7.24875">
        <ele>467.416893</ele>
        <time>2012-01-21T16:22:22Z</time>
      </trkpt>
      <trkpt lat="43.7609" lon="7.24882">
        <ele>465.416878</ele>
        <time>2012-01-21T16:22:30Z</time>
      </trkpt>
      <trkpt lat="43.76065" lon="7.24894">
        <ele>462.416862</ele>
        <time>2012-01-21T16:22:36Z</time>
      </trkpt>
      <trkpt lat="43.7606" lon="7.24896">
        <ele>461.416859</ele>
        <time>2012-01-21T16:22:37Z</time>
      </trkpt>
      <trkpt lat="43.76051" lon="7.24898">
        <ele>461.416855</ele>
        <time>2012-01-21T16:22:39Z</time>
      </trkpt>
      <trkpt lat="43.76041" lon="7.24899">
        <ele>460.416843</ele>
        <time>2012-01-21T16:22:41Z</time>
      </trkpt>
      <trkpt lat="43.76029" lon="7.24897">
        <ele>460.416824</ele>
        <time>2012-01-21T16:22:44Z</time>
      </trkpt>
      <trkpt lat="43.76019" lon="7.24894">
        <ele>459.416801</ele>
        <time>2012-01-21T16:22:47Z</time>
      </trkpt>
      <trkpt lat="43.7601" lon="7.24886">
        <ele>459.416771</ele>
        <time>2012-01-21T16:22:52Z</time>
      </trkpt>
      <trkpt lat="43.76002" lon="7.24875">
        <ele>459.416737</ele>
        <time>2012-01-21T16:22:56Z</time>
      </trkpt>
      <trkpt lat="43.75998" lon="7.24851">
        <ele>459.416679</ele>
        <time>2012-01-21T16:22:59Z</time>
      </trkpt>
      <trkpt lat="43.75996" lon="7.24834">
        <ele>458.416641</ele>
        <time>2012-01-21T16:23:01Z</time>
      </trkpt>
      <trkpt lat="43.75995" lon="7.24815">
        <ele>459.416603</ele>
        <time>2012-01-21T16:23:07Z</time>
      </trkpt>
      <trkpt lat="43.75994" lon="7.24792">
        <ele>458.416553</ele>
        <time>2012-01-21T16:23:15Z</time>
      </trkpt>
      <trkpt lat="43.75995" lon="7.24787">
        <ele>457.416542</ele>
        <time>2012-01-21T16:23:17Z</time>
      </trkpt>
      <trkpt lat="43.75998" lon="7.24775">
        <ele>456.416523</ele>
        <time>2012-01-21T16:23:20Z</time>
      </trkpt>
      <trkpt lat="43.75995" lon="7.24761">
        <ele>455.416485</ele>
        <time>2012-01-21T16:23:25Z</time>
      </trkpt>
      <trkpt lat="43.75985" lon="7.24756">
        <ele>456.416466</ele>
        <time>2012-01-21T16:23:31Z</time>
      </trkpt>
      <trkpt lat="43.75975" lon="7.24756">
        <ele>454.416451</ele>
        <time>2012-01-21T16:23:35Z</time>
      </trkpt>
      <trkpt lat="43.75966" lon="7.24758">
        <ele>454.416439</ele>
        <time>2012-01-21T16:23:38Z</time>
      </trkpt>
      <trkpt lat="43.75954" lon="7.24764">
        <ele>454.416435</ele>
        <time>2012-01-21T16:23:41Z</time>
      </trkpt>
      <trkpt lat="43.75946" lon="7.24773">
        <ele>454.416443</ele>
        <time>2012-01-21T16:23:44Z</time>
      </trkpt>
      <trkpt lat="43.75943" lon="7.24778">
        <ele>454.416451</ele>
        <time>2012-01-21T16:23:45Z</time>
      </trkpt>
      <trkpt lat="43.75936" lon="7.2479">
        <ele>453.416466</ele>
        <time>2012-01-21T16:23:48Z</time>
      </trkpt>
      <trkpt lat="43.75931" lon="7.24805">
        <ele>453.416496</ele>
        <time>2012-01-21T16:23:51Z</time>
      </trkpt>
      <trkpt lat="43.75927" lon="7.2482">
        <ele>453.416515</ele>
        <time>2012-01-21T16:23:54Z</time>
      </trkpt>
      <trkpt lat="43.75922" lon="7.24833">
        <ele>453.416538</ele>
        <time>2012-01-21T16:23:57Z</time>
      </trkpt>
      <trkpt lat="43.75918" lon="7.24849">
        <ele>453.416565</ele>
        <time>2012-01-21T16:24:00Z</time>
      </trkpt>
      <trkpt lat="43.75917" lon="7.24853">
        <ele>452.416573</ele>
        <time>2012-01-21T16:24:01Z</time>
      </trkpt>
      <trkpt lat="43.75912" lon="7.24866">
        <ele>452.416595</ele>
        <time>2012-01-21T16:24:04Z</time>
      </trkpt>
      <trkpt lat="43.75908" lon="7.24878">
        <ele>452.416611</ele>
        <time>2012-01-21T16:24:07Z</time>
      </trkpt>
      <trkpt lat="43.75903" lon="7.24892">
        <ele>453.416637</ele>
        <time>2012-01-21T16:24:10Z</time>
      </trkpt>
      <trkpt lat="43.75896" lon="7.24907">
        <ele>454.41666</ele>
        <time>2012-01-21T16:24:13Z</time>
      </trkpt>
      <trkpt lat="43.75892" lon="7.24912">
        <ele>454.416664</ele>
        <time>2012-01-21T16:24:14Z</time>
      </trkpt>
      <trkpt lat="43.75883" lon="7.24925">
        <ele>454.416679</ele>
        <time>2012-01-21T16:24:17Z</time>
      </trkpt>
      <trkpt lat="43.75881" lon="7.24928">
        <ele>454.416679</ele>
        <time>2012-01-21T16:24:18Z</time>
      </trkpt>
      <trkpt lat="43.75873" lon="7.24937">
        <ele>453.416691</ele>
        <time>2012-01-21T16:24:21Z</time>
      </trkpt>
      <trkpt lat="43.75865" lon="7.24945">
        <ele>452.416702</ele>
        <time>2012-01-21T16:24:25Z</time>
      </trkpt>
      <trkpt lat="43.75856" lon="7.24952">
        <ele>452.416695</ele>
        <time>2012-01-21T16:24:30Z</time>
      </trkpt>
      <trkpt lat="43.7585" lon="7.24967">
        <ele>453.416725</ele>
        <time>2012-01-21T16:24:45Z</time>
      </trkpt>
      <trkpt lat="43.75845" lon="7.24978">
        <ele>452.41674</ele>
        <time>2012-01-21T16:24:56Z</time>
      </trkpt>
      <trkpt lat="43.75835" lon="7.24984">
        <ele>453.416737</ele>
        <time>2012-01-21T16:25:01Z</time>
      </trkpt>
      <trkpt lat="43.75824" lon="7.24988">
        <ele>452.416729</ele>
        <time>2012-01-21T16:25:04Z</time>
      </trkpt>
      <trkpt lat="43.75812" lon="7.24992">
        <ele>453.416725</ele>
        <time>2012-01-21T16:25:07Z</time>
      </trkpt>
      <trkpt lat="43.75802" lon="7.24997">
        <ele>455.416718</ele>
        <time>2012-01-21T16:25:10Z</time>
      </trkpt>
      <trkpt lat="43.75793" lon="7.25002">
        <ele>455.416718</ele>
        <time>2012-01-21T16:25:13Z</time>
      </trkpt>
      <trkpt lat="43.75785" lon="7.25009">
        <ele>454.416725</ele>
        <time>2012-01-21T16:25:16Z</time>
      </trkpt>
      <trkpt lat="43.75783" lon="7.25011">
        <ele>454.416729</ele>
        <time>2012-01-21T16:25:17Z</time>
      </trkpt>
      <trkpt lat="43.75774" lon="7.2502">
        <ele>453.416729</ele>
        <time>2012-01-21T16:25:21Z</time>
      </trkpt>
      <trkpt lat="43.75766" lon="7.25028">
        <ele>452.41674</ele>
        <time>2012-01-21T16:25:25Z</time>
      </trkpt>
      <trkpt lat="43.75755" lon="7.25039">
        <ele>447.416744</ele>
        <time>2012-01-21T16:25:44Z</time>
      </trkpt>
      <trkpt lat="43.75746" lon="7.25044">
        <ele>446.416744</ele>
        <time>2012-01-21T16:25:47Z</time>
      </trkpt>
      <trkpt lat="43.75736" lon="7.25051">
        <ele>446.416748</ele>
        <time>2012-01-21T16:25:50Z</time>
      </trkpt>
      <trkpt lat="43.75733" lon="7.25054">
        <ele>446.416748</ele>
        <time>2012-01-21T16:25:51Z</time>
      </trkpt>
      <trkpt lat="43.75723" lon="7.25061">
        <ele>445.416748</ele>
        <time>2012-01-21T16:25:54Z</time>
      </trkpt>
      <trkpt lat="43.75713" lon="7.25068">
        <ele>445.416752</ele>
        <time>2012-01-21T16:25:57Z</time>
      </trkpt>
      <trkpt lat="43.75704" lon="7.25075">
        <ele>444.416752</ele>
        <time>2012-01-21T16:26:00Z</time>
      </trkpt>
      <trkpt lat="43.75697" lon="7.2508">
        <ele>444.416756</ele>
        <time>2012-01-21T16:26:06Z</time>
      </trkpt>
      <trkpt lat="43.75688" lon="7.25089">
        <ele>445.416759</ele>
        <time>2012-01-21T16:26:09Z</time>
      </trkpt>
      <trkpt lat="43.75683" lon="7.25102">
        <ele>445.416779</ele>
        <time>2012-01-21T16:26:19Z</time>
      </trkpt>
      <trkpt lat="43.75675" lon="7.25111">
        <ele>442.416786</ele>
        <time>2012-01-21T16:26:36Z</time>
      </trkpt>
      <trkpt lat="43.75666" lon="7.2512">
        <ele>443.416798</ele>
        <time>2012-01-21T16:26:41Z</time>
      </trkpt>
      <trkpt lat="43.75655" lon="7.25131">
        <ele>442.416801</ele>
        <time>2012-01-21T16:26:46Z</time>
      </trkpt>
      <trkpt lat="43.75647" lon="7.25138">
        <ele>441.416805</ele>
        <time>2012-01-21T16:26:50Z</time>
      </trkpt>
      <trkpt lat="43.75638" lon="7.25141">
        <ele>440.416801</ele>
        <time>2012-01-21T16:26:53Z</time>
      </trkpt>
      <trkpt lat="43.75627" lon="7.25144">
        <ele>440.416794</ele>
        <time>2012-01-21T16:26:56Z</time>
      </trkpt>
      <trkpt lat="43.75617" lon="7.25148">
        <ele>440.416786</ele>
        <time>2012-01-21T16:26:59Z</time>
      </trkpt>
      <trkpt lat="43.75608" lon="7.25153">
        <ele>440.416786</ele>
        <time>2012-01-21T16:27:02Z</time>
      </trkpt>
      <trkpt lat="43.75599" lon="7.25161">
        <ele>442.41679</ele>
        <time>2012-01-21T16:27:05Z</time>
      </trkpt>
      <trkpt lat="43.75592" lon="7.25168">
        <ele>442.416794</ele>
        <time>2012-01-21T16:27:08Z</time>
      </trkpt>
      <trkpt lat="43.75582" lon="7.25175">
        <ele>442.416794</ele>
        <time>2012-01-21T16:27:12Z</time>
      </trkpt>
      <trkpt lat="43.75572" lon="7.25181">
        <ele>443.416798</ele>
        <time>2012-01-21T16:27:16Z</time>
      </trkpt>
      <trkpt lat="43.75563" lon="7.25183">
        <ele>443.416786</ele>
        <time>2012-01-21T16:27:19Z</time>
      </trkpt>
      <trkpt lat="43.75553" lon="7.2518">
        <ele>444.416771</ele>
        <time>2012-01-21T16:27:24Z</time>
      </trkpt>
      <trkpt lat="43.75544" lon="7.2518">
        <ele>444.416752</ele>
        <time>2012-01-21T16:27:28Z</time>
      </trkpt>
      <trkpt lat="43.75534" lon="7.25183">
        <ele>444.416748</ele>
        <time>2012-01-21T16:27:32Z</time>
      </trkpt>
      <trkpt lat="43.75532" lon="7.25184">
        <ele>444.416748</ele>
        <time>2012-01-21T16:27:33Z</time>
      </trkpt>
      <trkpt lat="43.75522" lon="7.25197">
        <ele>444.416763</ele>
        <time>2012-01-21T16:27:41Z</time>
      </trkpt>
      <trkpt lat="43.75516" lon="7.25207">
        <ele>444.416771</ele>
        <time>2012-01-21T16:27:46Z</time>
      </trkpt>
      <trkpt lat="43.75506" lon="7.25221">
        <ele>446.41679</ele>
        <time>2012-01-21T16:27:56Z</time>
      </trkpt>
      <trkpt lat="43.75497" lon="7.25228">
        <ele>446.41679</ele>
        <time>2012-01-21T16:28:02Z</time>
      </trkpt>
      <trkpt lat="43.7549" lon="7.25228">
        <ele>447.416786</ele>
        <time>2012-01-21T16:28:05Z</time>
      </trkpt>
      <trkpt lat="43.75479" lon="7.25229">
        <ele>448.416771</ele>
        <time>2012-01-21T16:28:08Z</time>
      </trkpt>
      <trkpt lat="43.75475" lon="7.25231">
        <ele>449.416767</ele>
        <time>2012-01-21T16:28:09Z</time>
      </trkpt>
      <trkpt lat="43.75462" lon="7.25232">
        <ele>449.416748</ele>
        <time>2012-01-21T16:28:12Z</time>
      </trkpt>
      <trkpt lat="43.75451" lon="7.25231">
        <ele>449.416733</ele>
        <time>2012-01-21T16:28:15Z</time>
      </trkpt>
      <trkpt lat="43.7544" lon="7.2523">
        <ele>449.416718</ele>
        <time>2012-01-21T16:28:18Z</time>
      </trkpt>
      <trkpt lat="43.75436" lon="7.2523">
        <ele>448.41671</ele>
        <time>2012-01-21T16:28:19Z</time>
      </trkpt>
      <trkpt lat="43.75426" lon="7.25228">
        <ele>448.416695</ele>
        <time>2012-01-21T16:28:22Z</time>
      </trkpt>
      <trkpt lat="43.75415" lon="7.25227">
        <ele>447.416679</ele>
        <time>2012-01-21T16:28:25Z</time>
      </trkpt>
      <trkpt lat="43.75413" lon="7.25227">
        <ele>447.416676</ele>
        <time>2012-01-21T16:28:26Z</time>
      </trkpt>
      <trkpt lat="43.75403" lon="7.25229">
        <ele>446.416664</ele>
        <time>2012-01-21T16:28:30Z</time>
      </trkpt>
      <trkpt lat="43.75392" lon="7.25235">
        <ele>445.416664</ele>
        <time>2012-01-21T16:28:35Z</time>
      </trkpt>
      <trkpt lat="43.75385" lon="7.25243">
        <ele>444.416672</ele>
        <time>2012-01-21T16:28:39Z</time>
      </trkpt>
      <trkpt lat="43.75379" lon="7.25252">
        <ele>443.416679</ele>
        <time>2012-01-21T16:28:43Z</time>
      </trkpt>
      <trkpt lat="43.75373" lon="7.25262">
        <ele>442.416695</ele>
        <time>2012-01-21T16:28:49Z</time>
      </trkpt>
      <trkpt lat="43.75356" lon="7.25278">
        <ele>444.41671</ele>
        <time>2012-01-21T16:29:00Z</time>
      </trkpt>
      <trkpt lat="43.75346" lon="7.25285">
        <ele>444.416706</ele>
        <time>2012-01-21T16:29:03Z</time>
      </trkpt>
      <trkpt lat="43.75335" lon="7.25293">
        <ele>444.41671</ele>
        <time>2012-01-21T16:29:06Z</time>
      </trkpt>
      <trkpt lat="43.75325" lon="7.25298">
        <ele>444.416702</ele>
        <time>2012-01-21T16:29:08Z</time>
      </trkpt>
      <trkpt lat="43.7532" lon="7.253">
        <ele>444.416702</ele>
        <time>2012-01-21T16:29:09Z</time>
      </trkpt>
      <trkpt lat="43.75308" lon="7.25303">
        <ele>443.416695</ele>
        <time>2012-01-21T16:29:12Z</time>
      </trkpt>
      <trkpt lat="43.75293" lon="7.25302">
        <ele>443.416668</ele>
        <time>2012-01-21T16:29:14Z</time>
      </trkpt>
      <trkpt lat="43.75279" lon="7.25297">
        <ele>443.416641</ele>
        <time>2012-01-21T16:29:16Z</time>
      </trkpt>
      <trkpt lat="43.75269" lon="7.25294">
        <ele>444.416618</ele>
        <time>2012-01-21T16:29:18Z</time>
      </trkpt>
      <trkpt lat="43.75259" lon="7.25291">
        <ele>444.416595</ele>
        <time>2012-01-21T16:29:20Z</time>
      </trkpt>
      <trkpt lat="43.75249" lon="7.25287">
        <ele>444.416576</ele>
        <time>2012-01-21T16:29:22Z</time>
      </trkpt>
      <trkpt lat="43.75238" lon="7.25285">
        <ele>444.416557</ele>
        <time>2012-01-21T16:29:25Z</time>
      </trkpt>
      <trkpt lat="43.7523" lon="7.25278">
        <ele>442.416527</ele>
        <time>2012-01-21T16:29:54Z</time>
      </trkpt>
      <trkpt lat="43.7522" lon="7.2528">
        <ele>441.416523</ele>
        <time>2012-01-21T16:29:58Z</time>
      </trkpt>
      <trkpt lat="43.7521" lon="7.2528">
        <ele>442.416512</ele>
        <time>2012-01-21T16:30:02Z</time>
      </trkpt>
      <trkpt lat="43.75199" lon="7.25286">
        <ele>442.416504</ele>
        <time>2012-01-21T16:30:05Z</time>
      </trkpt>
      <trkpt lat="43.75189" lon="7.25295">
        <ele>443.416512</ele>
        <time>2012-01-21T16:30:08Z</time>
      </trkpt>
      <trkpt lat="43.75185" lon="7.253">
        <ele>444.416519</ele>
        <time>2012-01-21T16:30:12Z</time>
      </trkpt>
      <trkpt lat="43.75177" lon="7.25304">
        <ele>444.416512</ele>
        <time>2012-01-21T16:30:26Z</time>
      </trkpt>
      <trkpt lat="43.75166" lon="7.25305">
        <ele>445.416504</ele>
        <time>2012-01-21T16:30:37Z</time>
      </trkpt>
      <trkpt lat="43.75139" lon="7.25312">
        <ele>444.416477</ele>
        <time>2012-01-21T16:30:55Z</time>
      </trkpt>
      <trkpt lat="43.75139" lon="7.25312">
        <ele>444.416477</ele>
        <time>2012-01-21T16:30:58Z</time>
      </trkpt>
      <trkpt lat="43.7513" lon="7.25317">
        <ele>441.416477</ele>
        <time>2012-01-21T16:31:17Z</time>
      </trkpt>
      <trkpt lat="43.75104" lon="7.25337">
        <ele>439.416481</ele>
        <time>2012-01-21T16:31:29Z</time>
      </trkpt>
      <trkpt lat="43.75085" lon="7.25356">
        <ele>440.4165</ele>
        <time>2012-01-21T16:31:34Z</time>
      </trkpt>
      <trkpt lat="43.75075" lon="7.25367">
        <ele>440.416508</ele>
        <time>2012-01-21T16:31:36Z</time>
      </trkpt>
      <trkpt lat="43.75068" lon="7.25377">
        <ele>441.416519</ele>
        <time>2012-01-21T16:31:39Z</time>
      </trkpt>
      <trkpt lat="43.75068" lon="7.25377">
        <ele>441.416519</ele>
        <time>2012-01-21T16:31:41Z</time>
      </trkpt>
      <trkpt lat="43.75057" lon="7.25391">
        <ele>442.416534</ele>
        <time>2012-01-21T16:31:44Z</time>
      </trkpt>
      <trkpt lat="43.75049" lon="7.25399">
        <ele>443.416542</ele>
        <time>2012-01-21T16:31:47Z</time>
      </trkpt>
      <trkpt lat="43.7504" lon="7.25406">
        <ele>443.416542</ele>
        <time>2012-01-21T16:31:55Z</time>
      </trkpt>
      <trkpt lat="43.7503" lon="7.25413">
        <ele>444.416542</ele>
        <time>2012-01-21T16:32:01Z</time>
      </trkpt>
      <trkpt lat="43.74998" lon="7.25416">
        <ele>442.416504</ele>
        <time>2012-01-21T16:32:17Z</time>
      </trkpt>
      <trkpt lat="43.74984" lon="7.25416">
        <ele>442.416489</ele>
        <time>2012-01-21T16:32:19Z</time>
      </trkpt>
      <trkpt lat="43.7497" lon="7.25416">
        <ele>441.41647</ele>
        <time>2012-01-21T16:32:21Z</time>
      </trkpt>
      <trkpt lat="43.74961" lon="7.25415">
        <ele>440.416451</ele>
        <time>2012-01-21T16:32:23Z</time>
      </trkpt>
      <trkpt lat="43.74951" lon="7.25409">
        <ele>439.416428</ele>
        <time>2012-01-21T16:32:25Z</time>
      </trkpt>
      <trkpt lat="43.74942" lon="7.25403">
        <ele>438.416401</ele>
        <time>2012-01-21T16:32:27Z</time>
      </trkpt>
      <trkpt lat="43.74933" lon="7.25398">
        <ele>437.416374</ele>
        <time>2012-01-21T16:32:29Z</time>
      </trkpt>
      <trkpt lat="43.74923" lon="7.25395">
        <ele>435.416359</ele>
        <time>2012-01-21T16:32:31Z</time>
      </trkpt>
      <trkpt lat="43.7491" lon="7.25396">
        <ele>434.416344</ele>
        <time>2012-01-21T16:32:34Z</time>
      </trkpt>
      <trkpt lat="43.74901" lon="7.25397">
        <ele>432.416336</ele>
        <time>2012-01-21T16:32:36Z</time>
      </trkpt>
      <trkpt lat="43.74891" lon="7.25397">
        <ele>431.416321</ele>
        <time>2012-01-21T16:32:38Z</time>
      </trkpt>
      <trkpt lat="43.74882" lon="7.25394">
        <ele>430.416302</ele>
        <time>2012-01-21T16:32:40Z</time>
      </trkpt>
      <trkpt lat="43.74871" lon="7.25388">
        <ele>429.416267</ele>
        <time>2012-01-21T16:32:43Z</time>
      </trkpt>
      <trkpt lat="43.74864" lon="7.25385">
        <ele>429.41626</ele>
        <time>2012-01-21T16:32:45Z</time>
      </trkpt>
      <trkpt lat="43.74855" lon="7.25381">
        <ele>428.416233</ele>
        <time>2012-01-21T16:32:48Z</time>
      </trkpt>
      <trkpt lat="43.7485" lon="7.25371">
        <ele>428.416206</ele>
        <time>2012-01-21T16:32:51Z</time>
      </trkpt>
      <trkpt lat="43.74838" lon="7.25362">
        <ele>427.416176</ele>
        <time>2012-01-21T16:32:55Z</time>
      </trkpt>
      <trkpt lat="43.74829" lon="7.25357">
        <ele>427.416145</ele>
        <time>2012-01-21T16:32:58Z</time>
      </trkpt>
      <trkpt lat="43.74793" lon="7.25338">
        <ele>425.416061</ele>
        <time>2012-01-21T16:33:08Z</time>
      </trkpt>
      <trkpt lat="43.74777" lon="7.25337">
        <ele>425.416031</ele>
        <time>2012-01-21T16:33:10Z</time>
      </trkpt>
      <trkpt lat="43.74764" lon="7.25336">
        <ele>424.416016</ele>
        <time>2012-01-21T16:33:12Z</time>
      </trkpt>
      <trkpt lat="43.74751" lon="7.25334">
        <ele>423.415993</ele>
        <time>2012-01-21T16:33:14Z</time>
      </trkpt>
      <trkpt lat="43.74737" lon="7.25337">
        <ele>423.415977</ele>
        <time>2012-01-21T16:33:16Z</time>
      </trkpt>
      <trkpt lat="43.74725" lon="7.2534">
        <ele>422.41597</ele>
        <time>2012-01-21T16:33:18Z</time>
      </trkpt>
      <trkpt lat="43.74713" lon="7.25343">
        <ele>422.415962</ele>
        <time>2012-01-21T16:33:20Z</time>
      </trkpt>
      <trkpt lat="43.74701" lon="7.25342">
        <ele>422.415939</ele>
        <time>2012-01-21T16:33:22Z</time>
      </trkpt>
      <trkpt lat="43.74689" lon="7.25341">
        <ele>421.415924</ele>
        <time>2012-01-21T16:33:24Z</time>
      </trkpt>
      <trkpt lat="43.74683" lon="7.25336">
        <ele>421.415909</ele>
        <time>2012-01-21T16:33:25Z</time>
      </trkpt>
      <trkpt lat="43.74673" lon="7.25325">
        <ele>421.415867</ele>
        <time>2012-01-21T16:33:27Z</time>
      </trkpt>
      <trkpt lat="43.74668" lon="7.25314">
        <ele>420.415836</ele>
        <time>2012-01-21T16:33:28Z</time>
      </trkpt>
      <trkpt lat="43.74667" lon="7.25293">
        <ele>420.415794</ele>
        <time>2012-01-21T16:33:30Z</time>
      </trkpt>
      <trkpt lat="43.74669" lon="7.25278">
        <ele>419.415764</ele>
        <time>2012-01-21T16:33:32Z</time>
      </trkpt>
      <trkpt lat="43.7467" lon="7.25262">
        <ele>418.415726</ele>
        <time>2012-01-21T16:33:34Z</time>
      </trkpt>
      <trkpt lat="43.7466" lon="7.25257">
        <ele>417.415703</ele>
        <time>2012-01-21T16:33:36Z</time>
      </trkpt>
      <trkpt lat="43.74656" lon="7.25244">
        <ele>415.415672</ele>
        <time>2012-01-21T16:33:40Z</time>
      </trkpt>
      <trkpt lat="43.74655" lon="7.25239">
        <ele>414.415657</ele>
        <time>2012-01-21T16:33:44Z</time>
      </trkpt>
      <trkpt lat="43.74642" lon="7.25205">
        <ele>407.415565</ele>
        <time>2012-01-21T16:33:54Z</time>
      </trkpt>
      <trkpt lat="43.7463" lon="7.25201">
        <ele>404.415543</ele>
        <time>2012-01-21T16:33:59Z</time>
      </trkpt>
      <trkpt lat="43.74621" lon="7.25165">
        <ele>399.415451</ele>
        <time>2012-01-21T16:34:18Z</time>
      </trkpt>
      <trkpt lat="43.7462" lon="7.25146">
        <ele>397.415421</ele>
        <time>2012-01-21T16:34:21Z</time>
      </trkpt>
      <trkpt lat="43.74607" lon="7.25099">
        <ele>395.415298</ele>
        <time>2012-01-21T16:34:38Z</time>
      </trkpt>
      <trkpt lat="43.746" lon="7.25091">
        <ele>395.415268</ele>
        <time>2012-01-21T16:34:40Z</time>
      </trkpt>
      <trkpt lat="43.74589" lon="7.25081">
        <ele>394.41523</ele>
        <time>2012-01-21T16:34:42Z</time>
      </trkpt>
      <trkpt lat="43.74584" lon="7.25077">
        <ele>394.415215</ele>
        <time>2012-01-21T16:34:43Z</time>
      </trkpt>
      <trkpt lat="43.74573" lon="7.25066">
        <ele>391.415176</ele>
        <time>2012-01-21T16:34:45Z</time>
      </trkpt>
      <trkpt lat="43.74566" lon="7.25052">
        <ele>387.415138</ele>
        <time>2012-01-21T16:34:48Z</time>
      </trkpt>
      <trkpt lat="43.74564" lon="7.25042">
        <ele>385.415115</ele>
        <time>2012-01-21T16:34:50Z</time>
      </trkpt>
      <trkpt lat="43.74561" lon="7.25026">
        <ele>383.415077</ele>
        <time>2012-01-21T16:34:53Z</time>
      </trkpt>
      <trkpt lat="43.74561" lon="7.25011">
        <ele>383.415039</ele>
        <time>2012-01-21T16:34:56Z</time>
      </trkpt>
      <trkpt lat="43.74561" lon="7.24996">
        <ele>383.415012</ele>
        <time>2012-01-21T16:34:58Z</time>
      </trkpt>
      <trkpt lat="43.74559" lon="7.24983">
        <ele>384.414982</ele>
        <time>2012-01-21T16:35:00Z</time>
      </trkpt>
      <trkpt lat="43.74555" lon="7.2497">
        <ele>385.414948</ele>
        <time>2012-01-21T16:35:02Z</time>
      </trkpt>
      <trkpt lat="43.74545" lon="7.24958">
        <ele>381.414909</ele>
        <time>2012-01-21T16:35:04Z</time>
      </trkpt>
      <trkpt lat="43.7453" lon="7.24948">
        <ele>373.414871</ele>
        <time>2012-01-21T16:35:06Z</time>
      </trkpt>
      <trkpt lat="43.74516" lon="7.2494">
        <ele>366.414833</ele>
        <time>2012-01-21T16:35:08Z</time>
      </trkpt>
      <trkpt lat="43.74502" lon="7.24935">
        <ele>363.414803</ele>
        <time>2012-01-21T16:35:10Z</time>
      </trkpt>
      <trkpt lat="43.74493" lon="7.24933">
        <ele>359.414787</ele>
        <time>2012-01-21T16:35:11Z</time>
      </trkpt>
      <trkpt lat="43.74482" lon="7.24928">
        <ele>356.414761</ele>
        <time>2012-01-21T16:35:13Z</time>
      </trkpt>
      <trkpt lat="43.74471" lon="7.24923">
        <ele>354.414734</ele>
        <time>2012-01-21T16:35:15Z</time>
      </trkpt>
      <trkpt lat="43.74456" lon="7.24922">
        <ele>351.414711</ele>
        <time>2012-01-21T16:35:17Z</time>
      </trkpt>
      <trkpt lat="43.74445" lon="7.24919">
        <ele>349.414688</ele>
        <time>2012-01-21T16:35:19Z</time>
      </trkpt>
      <trkpt lat="43.74434" lon="7.24917">
        <ele>348.414673</ele>
        <time>2012-01-21T16:35:21Z</time>
      </trkpt>
      <trkpt lat="43.74421" lon="7.24914">
        <ele>348.41465</ele>
        <time>2012-01-21T16:35:24Z</time>
      </trkpt>
      <trkpt lat="43.74411" lon="7.24915">
        <ele>348.414635</ele>
        <time>2012-01-21T16:35:26Z</time>
      </trkpt>
      <trkpt lat="43.744" lon="7.24916">
        <ele>349.414619</ele>
        <time>2012-01-21T16:35:28Z</time>
      </trkpt>
      <trkpt lat="43.7439" lon="7.24916">
        <ele>349.414608</ele>
        <time>2012-01-21T16:35:30Z</time>
      </trkpt>
      <trkpt lat="43.74386" lon="7.24916">
        <ele>349.414604</ele>
        <time>2012-01-21T16:35:31Z</time>
      </trkpt>
      <trkpt lat="43.74372" lon="7.24915">
        <ele>349.414581</ele>
        <time>2012-01-21T16:35:34Z</time>
      </trkpt>
      <trkpt lat="43.74368" lon="7.24916">
        <ele>349.414574</ele>
        <time>2012-01-21T16:35:35Z</time>
      </trkpt>
      <trkpt lat="43.74354" lon="7.24916">
        <ele>348.414558</ele>
        <time>2012-01-21T16:35:38Z</time>
      </trkpt>
      <trkpt lat="43.74349" lon="7.24916">
        <ele>348.414551</ele>
        <time>2012-01-21T16:35:39Z</time>
      </trkpt>
      <trkpt lat="43.74339" lon="7.24915">
        <ele>347.414536</ele>
        <time>2012-01-21T16:35:41Z</time>
      </trkpt>
      <trkpt lat="43.7433" lon="7.24915">
        <ele>347.41452</ele>
        <time>2012-01-21T16:35:43Z</time>
      </trkpt>
      <trkpt lat="43.74317" lon="7.2492">
        <ele>346.414513</ele>
        <time>2012-01-21T16:35:46Z</time>
      </trkpt>
      <trkpt lat="43.74306" lon="7.24927">
        <ele>347.41452</ele>
        <time>2012-01-21T16:35:49Z</time>
      </trkpt>
      <trkpt lat="43.74311" lon="7.24954">
        <ele>347.414581</ele>
        <time>2012-01-21T16:35:52Z</time>
      </trkpt>
      <trkpt lat="43.74319" lon="7.24978">
        <ele>346.414642</ele>
        <time>2012-01-21T16:35:54Z</time>
      </trkpt>
      <trkpt lat="43.74325" lon="7.25">
        <ele>345.414696</ele>
        <time>2012-01-21T16:35:56Z</time>
      </trkpt>
      <trkpt lat="43.74328" lon="7.25008">
        <ele>345.414719</ele>
        <time>2012-01-21T16:35:57Z</time>
      </trkpt>
      <trkpt lat="43.74334" lon="7.25027">
        <ele>343.414768</ele>
        <time>2012-01-21T16:35:59Z</time>
      </trkpt>
      <trkpt lat="43.74338" lon="7.25046">
        <ele>342.41481</ele>
        <time>2012-01-21T16:36:01Z</time>
      </trkpt>
      <trkpt lat="43.74334" lon="7.25065">
        <ele>342.414848</ele>
        <time>2012-01-21T16:36:03Z</time>
      </trkpt>
      <trkpt lat="43.7433" lon="7.25087">
        <ele>340.414886</ele>
        <time>2012-01-21T16:36:05Z</time>
      </trkpt>
      <trkpt lat="43.74324" lon="7.25107">
        <ele>339.414921</ele>
        <time>2012-01-21T16:36:07Z</time>
      </trkpt>
      <trkpt lat="43.74319" lon="7.25118">
        <ele>339.41494</ele>
        <time>2012-01-21T16:36:08Z</time>
      </trkpt>
      <trkpt lat="43.74305" lon="7.25129">
        <ele>338.41494</ele>
        <time>2012-01-21T16:36:10Z</time>
      </trkpt>
      <trkpt lat="43.74294" lon="7.25136">
        <ele>337.414944</ele>
        <time>2012-01-21T16:36:11Z</time>
      </trkpt>
      <trkpt lat="43.74286" lon="7.25142">
        <ele>337.414944</ele>
        <time>2012-01-21T16:36:12Z</time>
      </trkpt>
      <trkpt lat="43.74277" lon="7.25147">
        <ele>337.41494</ele>
        <time>2012-01-21T16:36:13Z</time>
      </trkpt>
      <trkpt lat="43.74268" lon="7.25151">
        <ele>336.41494</ele>
        <time>2012-01-21T16:36:14Z</time>
      </trkpt>
      <trkpt lat="43.74253" lon="7.25161">
        <ele>336.41494</ele>
        <time>2012-01-21T16:36:16Z</time>
      </trkpt>
      <trkpt lat="43.74245" lon="7.25165">
        <ele>336.414936</ele>
        <time>2012-01-21T16:36:17Z</time>
      </trkpt>
      <trkpt lat="43.74235" lon="7.25168">
        <ele>335.414932</ele>
        <time>2012-01-21T16:36:18Z</time>
      </trkpt>
      <trkpt lat="43.74222" lon="7.25168">
        <ele>333.414913</ele>
        <time>2012-01-21T16:36:19Z</time>
      </trkpt>
      <trkpt lat="43.74211" lon="7.25168">
        <ele>332.414898</ele>
        <time>2012-01-21T16:36:20Z</time>
      </trkpt>
      <trkpt lat="43.74164" lon="7.25158">
        <ele>325.41481</ele>
        <time>2012-01-21T16:36:24Z</time>
      </trkpt>
      <trkpt lat="43.74153" lon="7.25157">
        <ele>324.414795</ele>
        <time>2012-01-21T16:36:25Z</time>
      </trkpt>
      <trkpt lat="43.74131" lon="7.2515">
        <ele>323.414749</ele>
        <time>2012-01-21T16:36:27Z</time>
      </trkpt>
      <trkpt lat="43.74108" lon="7.25138">
        <ele>322.414696</ele>
        <time>2012-01-21T16:36:29Z</time>
      </trkpt>
      <trkpt lat="43.74084" lon="7.25125">
        <ele>322.414631</ele>
        <time>2012-01-21T16:36:31Z</time>
      </trkpt>
      <trkpt lat="43.74073" lon="7.2512">
        <ele>322.414608</ele>
        <time>2012-01-21T16:36:32Z</time>
      </trkpt>
      <trkpt lat="43.7403" lon="7.25115">
        <ele>322.414536</ele>
        <time>2012-01-21T16:36:36Z</time>
      </trkpt>
      <trkpt lat="43.7401" lon="7.25117">
        <ele>322.414513</ele>
        <time>2012-01-21T16:36:38Z</time>
      </trkpt>
      <trkpt lat="43.73999" lon="7.25119">
        <ele>321.414501</ele>
        <time>2012-01-21T16:36:39Z</time>
      </trkpt>
      <trkpt lat="43.7398" lon="7.25124">
        <ele>321.41449</ele>
        <time>2012-01-21T16:36:41Z</time>
      </trkpt>
      <trkpt lat="43.73961" lon="7.2513">
        <ele>321.414474</ele>
        <time>2012-01-21T16:36:43Z</time>
      </trkpt>
      <trkpt lat="43.73952" lon="7.25133">
        <ele>321.414471</ele>
        <time>2012-01-21T16:36:44Z</time>
      </trkpt>
      <trkpt lat="43.73926" lon="7.25141">
        <ele>322.414452</ele>
        <time>2012-01-21T16:36:47Z</time>
      </trkpt>
      <trkpt lat="43.73908" lon="7.25146">
        <ele>322.414436</ele>
        <time>2012-01-21T16:36:49Z</time>
      </trkpt>
      <trkpt lat="43.73892" lon="7.25146">
        <ele>322.41441</ele>
        <time>2012-01-21T16:36:51Z</time>
      </trkpt>
      <trkpt lat="43.73877" lon="7.25153">
        <ele>322.414406</ele>
        <time>2012-01-21T16:36:53Z</time>
      </trkpt>
      <trkpt lat="43.73864" lon="7.25162">
        <ele>323.41441</ele>
        <time>2012-01-21T16:36:55Z</time>
      </trkpt>
      <trkpt lat="43.73851" lon="7.2517">
        <ele>322.414406</ele>
        <time>2012-01-21T16:36:57Z</time>
      </trkpt>
      <trkpt lat="43.73851" lon="7.25193">
        <ele>322.414459</ele>
        <time>2012-01-21T16:36:59Z</time>
      </trkpt>
      <trkpt lat="43.73851" lon="7.25216">
        <ele>321.414505</ele>
        <time>2012-01-21T16:37:01Z</time>
      </trkpt>
      <trkpt lat="43.73839" lon="7.25234">
        <ele>320.414528</ele>
        <time>2012-01-21T16:37:03Z</time>
      </trkpt>
      <trkpt lat="43.73827" lon="7.25256">
        <ele>319.414558</ele>
        <time>2012-01-21T16:37:05Z</time>
      </trkpt>
      <trkpt lat="43.7381" lon="7.25273">
        <ele>318.41457</ele>
        <time>2012-01-21T16:37:07Z</time>
      </trkpt>
      <trkpt lat="43.73792" lon="7.2528">
        <ele>317.414566</ele>
        <time>2012-01-21T16:37:09Z</time>
      </trkpt>
      <trkpt lat="43.73776" lon="7.25285">
        <ele>316.414551</ele>
        <time>2012-01-21T16:37:11Z</time>
      </trkpt>
      <trkpt lat="43.7376" lon="7.2529">
        <ele>316.414539</ele>
        <time>2012-01-21T16:37:13Z</time>
      </trkpt>
      <trkpt lat="43.73747" lon="7.25301">
        <ele>314.414543</ele>
        <time>2012-01-21T16:37:15Z</time>
      </trkpt>
      <trkpt lat="43.73735" lon="7.25313">
        <ele>314.414551</ele>
        <time>2012-01-21T16:37:17Z</time>
      </trkpt>
      <trkpt lat="43.73735" lon="7.25328">
        <ele>313.414585</ele>
        <time>2012-01-21T16:37:19Z</time>
      </trkpt>
      <trkpt lat="43.73742" lon="7.25346">
        <ele>313.414631</ele>
        <time>2012-01-21T16:37:22Z</time>
      </trkpt>
      <trkpt lat="43.73745" lon="7.25351">
        <ele>313.41465</ele>
        <time>2012-01-21T16:37:23Z</time>
      </trkpt>
      <trkpt lat="43.73751" lon="7.25366">
        <ele>313.414688</ele>
        <time>2012-01-21T16:37:26Z</time>
      </trkpt>
      <trkpt lat="43.73759" lon="7.2538">
        <ele>313.414726</ele>
        <time>2012-01-21T16:37:29Z</time>
      </trkpt>
      <trkpt lat="43.73761" lon="7.25385">
        <ele>313.414738</ele>
        <time>2012-01-21T16:37:30Z</time>
      </trkpt>
      <trkpt lat="43.73767" lon="7.25399">
        <ele>312.41478</ele>
        <time>2012-01-21T16:37:33Z</time>
      </trkpt>
      <trkpt lat="43.73775" lon="7.25408">
        <ele>312.414806</ele>
        <time>2012-01-21T16:37:36Z</time>
      </trkpt>
      <trkpt lat="43.73782" lon="7.25418">
        <ele>311.414841</ele>
        <time>2012-01-21T16:37:39Z</time>
      </trkpt>
      <trkpt lat="43.73789" lon="7.2543">
        <ele>311.414871</ele>
        <time>2012-01-21T16:37:42Z</time>
      </trkpt>
      <trkpt lat="43.73791" lon="7.25433">
        <ele>311.414886</ele>
        <time>2012-01-21T16:37:43Z</time>
      </trkpt>
      <trkpt lat="43.73799" lon="7.25442">
        <ele>311.414917</ele>
        <time>2012-01-21T16:37:46Z</time>
      </trkpt>
      <trkpt lat="43.73807" lon="7.25451">
        <ele>310.414948</ele>
        <time>2012-01-21T16:37:49Z</time>
      </trkpt>
      <trkpt lat="43.73815" lon="7.25458">
        <ele>309.414974</ele>
        <time>2012-01-21T16:37:52Z</time>
      </trkpt>
      <trkpt lat="43.73823" lon="7.25466">
        <ele>308.415001</ele>
        <time>2012-01-21T16:37:55Z</time>
      </trkpt>
      <trkpt lat="43.73832" lon="7.25476">
        <ele>308.415031</ele>
        <time>2012-01-21T16:37:59Z</time>
      </trkpt>
      <trkpt lat="43.73837" lon="7.2548">
        <ele>308.415047</ele>
        <time>2012-01-21T16:38:01Z</time>
      </trkpt>
      <trkpt lat="43.73847" lon="7.25486">
        <ele>309.415077</ele>
        <time>2012-01-21T16:38:05Z</time>
      </trkpt>
      <trkpt lat="43.73861" lon="7.25492">
        <ele>310.415108</ele>
        <time>2012-01-21T16:38:12Z</time>
      </trkpt>
      <trkpt lat="43.73887" lon="7.25511">
        <ele>310.415184</ele>
        <time>2012-01-21T16:38:23Z</time>
      </trkpt>
      <trkpt lat="43.73904" lon="7.25523">
        <ele>310.41523</ele>
        <time>2012-01-21T16:38:28Z</time>
      </trkpt>
      <trkpt lat="43.73911" lon="7.25531">
        <ele>310.41526</ele>
        <time>2012-01-21T16:38:31Z</time>
      </trkpt>
      <trkpt lat="43.73919" lon="7.25537">
        <ele>310.415283</ele>
        <time>2012-01-21T16:38:33Z</time>
      </trkpt>
      <trkpt lat="43.7393" lon="7.25547">
        <ele>311.415321</ele>
        <time>2012-01-21T16:38:36Z</time>
      </trkpt>
      <trkpt lat="43.7394" lon="7.25557">
        <ele>310.415352</ele>
        <time>2012-01-21T16:38:39Z</time>
      </trkpt>
      <trkpt lat="43.73948" lon="7.25565">
        <ele>310.415382</ele>
        <time>2012-01-21T16:38:42Z</time>
      </trkpt>
      <trkpt lat="43.73957" lon="7.25575">
        <ele>309.415413</ele>
        <time>2012-01-21T16:38:45Z</time>
      </trkpt>
      <trkpt lat="43.73965" lon="7.25584">
        <ele>308.415443</ele>
        <time>2012-01-21T16:38:48Z</time>
      </trkpt>
      <trkpt lat="43.73973" lon="7.25593">
        <ele>308.415478</ele>
        <time>2012-01-21T16:38:51Z</time>
      </trkpt>
      <trkpt lat="43.7398" lon="7.25605">
        <ele>307.415512</ele>
        <time>2012-01-21T16:38:55Z</time>
      </trkpt>
      <trkpt lat="43.73983" lon="7.25617">
        <ele>307.415543</ele>
        <time>2012-01-21T16:38:59Z</time>
      </trkpt>
      <trkpt lat="43.73983" lon="7.25632">
        <ele>307.415573</ele>
        <time>2012-01-21T16:39:03Z</time>
      </trkpt>
      <trkpt lat="43.73986" lon="7.25658">
        <ele>308.415634</ele>
        <time>2012-01-21T16:39:10Z</time>
      </trkpt>
      <trkpt lat="43.73987" lon="7.2569">
        <ele>308.415707</ele>
        <time>2012-01-21T16:39:17Z</time>
      </trkpt>
      <trkpt lat="43.73988" lon="7.25707">
        <ele>308.415741</ele>
        <time>2012-01-21T16:39:19Z</time>
      </trkpt>
      <trkpt lat="43.7399" lon="7.2572">
        <ele>308.415768</ele>
        <time>2012-01-21T16:39:21Z</time>
      </trkpt>
      <trkpt lat="43.7399" lon="7.25726">
        <ele>308.415783</ele>
        <time>2012-01-21T16:39:22Z</time>
      </trkpt>
      <trkpt lat="43.73991" lon="7.25731">
        <ele>308.415794</ele>
        <time>2012-01-21T16:39:23Z</time>
      </trkpt>
      <trkpt lat="43.73992" lon="7.25736">
        <ele>308.41581</ele>
        <time>2012-01-21T16:39:24Z</time>
      </trkpt>
      <trkpt lat="43.73993" lon="7.25741">
        <ele>309.415817</ele>
        <time>2012-01-21T16:39:26Z</time>
      </trkpt>
      <trkpt lat="43.74" lon="7.25762">
        <ele>309.415871</ele>
        <time>2012-01-21T16:39:31Z</time>
      </trkpt>
      <trkpt lat="43.74004" lon="7.25776">
        <ele>310.415909</ele>
        <time>2012-01-21T16:39:34Z</time>
      </trkpt>
      <trkpt lat="43.74008" lon="7.25784">
        <ele>310.415932</ele>
        <time>2012-01-21T16:39:36Z</time>
      </trkpt>
      <trkpt lat="43.74015" lon="7.25797">
        <ele>310.41597</ele>
        <time>2012-01-21T16:39:39Z</time>
      </trkpt>
      <trkpt lat="43.74022" lon="7.2581">
        <ele>310.416004</ele>
        <time>2012-01-21T16:39:42Z</time>
      </trkpt>
      <trkpt lat="43.74024" lon="7.25814">
        <ele>310.416016</ele>
        <time>2012-01-21T16:39:43Z</time>
      </trkpt>
      <trkpt lat="43.74031" lon="7.25824">
        <ele>309.416046</ele>
        <time>2012-01-21T16:39:46Z</time>
      </trkpt>
      <trkpt lat="43.74039" lon="7.25834">
        <ele>309.416077</ele>
        <time>2012-01-21T16:39:49Z</time>
      </trkpt>
      <trkpt lat="43.74045" lon="7.25844">
        <ele>310.416107</ele>
        <time>2012-01-21T16:39:52Z</time>
      </trkpt>
      <trkpt lat="43.7405" lon="7.2585">
        <ele>310.41613</ele>
        <time>2012-01-21T16:39:54Z</time>
      </trkpt>
      <trkpt lat="43.74059" lon="7.25859">
        <ele>312.416161</ele>
        <time>2012-01-21T16:39:57Z</time>
      </trkpt>
      <trkpt lat="43.74069" lon="7.25869">
        <ele>311.416191</ele>
        <time>2012-01-21T16:40:00Z</time>
      </trkpt>
      <trkpt lat="43.7408" lon="7.25879">
        <ele>310.416233</ele>
        <time>2012-01-21T16:40:03Z</time>
      </trkpt>
      <trkpt lat="43.7409" lon="7.25889">
        <ele>310.416267</ele>
        <time>2012-01-21T16:40:06Z</time>
      </trkpt>
      <trkpt lat="43.74099" lon="7.259">
        <ele>310.416306</ele>
        <time>2012-01-21T16:40:09Z</time>
      </trkpt>
      <trkpt lat="43.74109" lon="7.2591">
        <ele>311.416336</ele>
        <time>2012-01-21T16:40:12Z</time>
      </trkpt>
      <trkpt lat="43.74112" lon="7.25913">
        <ele>311.416351</ele>
        <time>2012-01-21T16:40:13Z</time>
      </trkpt>
      <trkpt lat="43.74119" lon="7.25921">
        <ele>312.416374</ele>
        <time>2012-01-21T16:40:15Z</time>
      </trkpt>
      <trkpt lat="43.74126" lon="7.25928">
        <ele>313.416401</ele>
        <time>2012-01-21T16:40:17Z</time>
      </trkpt>
      <trkpt lat="43.74136" lon="7.25939">
        <ele>313.416435</ele>
        <time>2012-01-21T16:40:20Z</time>
      </trkpt>
      <trkpt lat="43.74146" lon="7.25945">
        <ele>313.416466</ele>
        <time>2012-01-21T16:40:23Z</time>
      </trkpt>
      <trkpt lat="43.74157" lon="7.25951">
        <ele>314.416489</ele>
        <time>2012-01-21T16:40:26Z</time>
      </trkpt>
      <trkpt lat="43.74168" lon="7.25956">
        <ele>314.416519</ele>
        <time>2012-01-21T16:40:29Z</time>
      </trkpt>
      <trkpt lat="43.7418" lon="7.25959">
        <ele>315.416534</ele>
        <time>2012-01-21T16:40:32Z</time>
      </trkpt>
      <trkpt lat="43.74192" lon="7.25962">
        <ele>316.416565</ele>
        <time>2012-01-21T16:40:35Z</time>
      </trkpt>
      <trkpt lat="43.74203" lon="7.25966">
        <ele>316.416584</ele>
        <time>2012-01-21T16:40:38Z</time>
      </trkpt>
      <trkpt lat="43.74212" lon="7.25972">
        <ele>316.416611</ele>
        <time>2012-01-21T16:40:41Z</time>
      </trkpt>
      <trkpt lat="43.74217" lon="7.25983">
        <ele>317.416641</ele>
        <time>2012-01-21T16:40:44Z</time>
      </trkpt>
      <trkpt lat="43.74223" lon="7.26">
        <ele>317.416687</ele>
        <time>2012-01-21T16:40:47Z</time>
      </trkpt>
      <trkpt lat="43.74226" lon="7.26005">
        <ele>318.416702</ele>
        <time>2012-01-21T16:40:48Z</time>
      </trkpt>
      <trkpt lat="43.74231" lon="7.26023">
        <ele>318.416748</ele>
        <time>2012-01-21T16:40:51Z</time>
      </trkpt>
      <trkpt lat="43.74236" lon="7.2604">
        <ele>319.416786</ele>
        <time>2012-01-21T16:40:54Z</time>
      </trkpt>
      <trkpt lat="43.74242" lon="7.26056">
        <ele>319.416832</ele>
        <time>2012-01-21T16:40:57Z</time>
      </trkpt>
      <trkpt lat="43.74245" lon="7.26067">
        <ele>320.416859</ele>
        <time>2012-01-21T16:40:59Z</time>
      </trkpt>
      <trkpt lat="43.74249" lon="7.26079">
        <ele>320.416885</ele>
        <time>2012-01-21T16:41:01Z</time>
      </trkpt>
      <trkpt lat="43.74255" lon="7.26095">
        <ele>321.416931</ele>
        <time>2012-01-21T16:41:04Z</time>
      </trkpt>
      <trkpt lat="43.74257" lon="7.26101">
        <ele>321.416946</ele>
        <time>2012-01-21T16:41:05Z</time>
      </trkpt>
      <trkpt lat="43.74263" lon="7.26118">
        <ele>322.416988</ele>
        <time>2012-01-21T16:41:08Z</time>
      </trkpt>
      <trkpt lat="43.74268" lon="7.26135">
        <ele>323.417034</ele>
        <time>2012-01-21T16:41:11Z</time>
      </trkpt>
      <trkpt lat="43.74273" lon="7.26151">
        <ele>324.417072</ele>
        <time>2012-01-21T16:41:14Z</time>
      </trkpt>
      <trkpt lat="43.74276" lon="7.26163">
        <ele>324.417103</ele>
        <time>2012-01-21T16:41:16Z</time>
      </trkpt>
      <trkpt lat="43.7428" lon="7.26175">
        <ele>325.417137</ele>
        <time>2012-01-21T16:41:18Z</time>
      </trkpt>
      <trkpt lat="43.74284" lon="7.26187">
        <ele>325.417168</ele>
        <time>2012-01-21T16:41:20Z</time>
      </trkpt>
      <trkpt lat="43.74289" lon="7.26199">
        <ele>325.417198</ele>
        <time>2012-01-21T16:41:22Z</time>
      </trkpt>
      <trkpt lat="43.74293" lon="7.26211">
        <ele>326.417233</ele>
        <time>2012-01-21T16:41:24Z</time>
      </trkpt>
      <trkpt lat="43.74298" lon="7.26223">
        <ele>326.417259</ele>
        <time>2012-01-21T16:41:26Z</time>
      </trkpt>
      <trkpt lat="43.74303" lon="7.26234">
        <ele>325.417294</ele>
        <time>2012-01-21T16:41:28Z</time>
      </trkpt>
      <trkpt lat="43.74306" lon="7.2624">
        <ele>325.417313</ele>
        <time>2012-01-21T16:41:29Z</time>
      </trkpt>
      <trkpt lat="43.74311" lon="7.26251">
        <ele>326.417339</ele>
        <time>2012-01-21T16:41:31Z</time>
      </trkpt>
      <trkpt lat="43.74316" lon="7.26261">
        <ele>326.41737</ele>
        <time>2012-01-21T16:41:33Z</time>
      </trkpt>
      <trkpt lat="43.74322" lon="7.2627">
        <ele>326.417397</ele>
        <time>2012-01-21T16:41:35Z</time>
      </trkpt>
      <trkpt lat="43.74328" lon="7.2628">
        <ele>326.417427</ele>
        <time>2012-01-21T16:41:37Z</time>
      </trkpt>
      <trkpt lat="43.74335" lon="7.26291">
        <ele>327.417461</ele>
        <time>2012-01-21T16:41:39Z</time>
      </trkpt>
      <trkpt lat="43.74342" lon="7.26302">
        <ele>327.417488</ele>
        <time>2012-01-21T16:41:41Z</time>
      </trkpt>
      <trkpt lat="43.74345" lon="7.26314">
        <ele>327.417526</ele>
        <time>2012-01-21T16:41:43Z</time>
      </trkpt>
      <trkpt lat="43.74347" lon="7.26331">
        <ele>327.417564</ele>
        <time>2012-01-21T16:41:46Z</time>
      </trkpt>
      <trkpt lat="43.74352" lon="7.26345">
        <ele>326.417595</ele>
        <time>2012-01-21T16:41:49Z</time>
      </trkpt>
      <trkpt lat="43.74363" lon="7.26353">
        <ele>325.417625</ele>
        <time>2012-01-21T16:41:54Z</time>
      </trkpt>
      <trkpt lat="43.74375" lon="7.26351">
        <ele>324.417641</ele>
        <time>2012-01-21T16:41:58Z</time>
      </trkpt>
      <trkpt lat="43.74378" lon="7.26353">
        <ele>324.417648</ele>
        <time>2012-01-21T16:41:59Z</time>
      </trkpt>
      <trkpt lat="43.74388" lon="7.26359">
        <ele>323.417671</ele>
        <time>2012-01-21T16:42:03Z</time>
      </trkpt>
      <trkpt lat="43.74387" lon="7.26359">
        <ele>323.417675</ele>
        <time>2012-01-21T16:42:06Z</time>
      </trkpt>
      <trkpt lat="43.74396" lon="7.26359">
        <ele>319.417686</ele>
        <time>2012-01-21T16:43:47Z</time>
      </trkpt>
    </trkseg>
  </trk>
</gpx>